[[{"header":{"parameterUnit":"m.s-1","parameterCategory":1,"la1":30.6,"la2":28.766,"lo1":-90.7593,"lo2":-88.6598,"dy":0.0162,"dx":0.0183,"nx":116,"ny":114,"refTime":"2023-09-17T18:00:00:Z","depth":0,"parameterNumber":2,"parameterNumberName":"U-component_of_WINDS"},"data":[0.0,0.0,0.0,0.0,0.0,0.0,0.0,0.0,0.0,0.0,0.0,0.0,0.0,0.0,0.0,0.0,0.0,0.0,0.0,0.0,0.0,0.0,0.0,0.0,0.0,0.0,0.0,0.0,0.0,0.0,0.0,0.0,0.0,0.0,0.0,0.0,0.0,0.0,0.0,0.0,0.0,0.0,0.0,0.0,0.0,0.0,0.0,0.0,0.0,0.0,0.0,0.0,0.0,0.0,0.0,0.0,0.0,0.0,0.0,0.0,0.0,0.0,0.0,0.0,0.0,0.0,0.0,0.0,0.0,0.0,0.0,0.0,0.0,0.0,0.0,0.0,0.0,0.0,0.0,0.0,0.0,0.0,0.0,0.0,0.0,0.0,0.0,0.0,0.0,0.0,0.0,0.0,0.0,0.0,0.0,0.0,0.0,0.0,0.0,0.0,0.0,0.0,0.0,0.0,0.0,0.0,0.0,0.0,0.0,0.0,0.0,0.0,0.0,0.0,0.0,0.0,0.0,0.0,0.0,0.0,0.0,0.0,0.0,0.0,0.0,0.0,0.0,0.0,0.0,0.0,0.0,0.0,0.0,0.0,0.0,0.0,0.0,0.0,0.0,0.0,0.0,0.0,0.0,0.0,0.0,0.0,0.0,0.0,0.0,0.0,0.0,0.0,0.0,0.0,0.0,0.0,0.0,0.0,0.0,0.0,0.0,0.0,0.0,0.0,0.0,0.0,0.0,0.0,0.0,0.0,0.0,0.0,0.0,0.0,0.0,0.0,0.0,0.0,0.0,0.0,0.0,0.0,0.0,0.0,0.0,0.0,0.0,0.0,0.0,0.0,0.0,0.0,0.0,0.0,0.0,0.0,0.0,0.0,0.0,0.0,0.0,0.0,0.0,0.0,0.0,0.0,0.0,0.0,0.0,0.0,0.0,0.0,0.0,0.0,0.0,0.0,0.0,0.0,0.0,0.0,0.0,0.0,0.0,0.0,0.0,0.0,0.0,0.0,0.0,0.0,0.0,0.0,0.0,0.0,0.0,0.0,0.0,0.0,0.0,0.0,0.0,0.0,0.0,0.0,0.0,0.0,0.0,0.0,0.0,0.0,0.0,0.0,0.0,0.0,0.0,0.0,0.0,0.0,0.0,0.0,0.0,0.0,0.0,0.0,0.0,0.0,0.0,0.0,0.0,0.0,0.0,0.0,0.0,0.0,0.0,0.0,0.0,0.0,0.0,0.0,0.0,0.0,0.0,0.0,0.0,0.0,0.0,0.0,0.0,0.0,0.0,0.0,0.0,0.0,0.0,0.0,0.0,0.0,0.0,0.0,0.0,0.0,0.0,0.0,0.0,0.0,0.0,0.0,0.0,0.0,0.0,0.0,0.0,0.0,0.0,0.0,0.0,0.0,0.0,0.0,0.0,0.0,0.0,0.0,0.0,0.0,0.0,0.0,0.0,0.0,0.0,0.0,0.0,0.0,0.0,0.0,0.0,0.0,0.0,0.0,0.0,0.0,0.0,0.0,0.0,0.0,0.0,0.0,0.0,0.0,0.0,0.0,0.0,0.0,0.0,0.0,0.0,0.0,0.0,0.0,0.0,0.0,0.0,0.0,0.0,0.0,0.0,0.0,0.0,0.0,0.0,0.0,0.0,0.0,0.0,0.0,0.0,0.0,0.0,0.0,0.0,0.0,0.0,0.0,0.0,0.0,0.0,0.0,0.0,0.0,0.0,0.0,0.0,0.0,0.0,0.0,0.0,0.0,0.0,0.0,0.0,0.0,0.0,0.0,0.0,0.0,0.0,0.0,0.0,0.0,0.0,0.0,0.0,0.0,0.0,0.0,0.0,0.0,0.0,0.0,0.0,0.0,0.0,0.0,0.0,0.0,0.0,0.0,0.0,0.0,0.0,0.0,0.0,0.0,0.0,0.0,0.0,0.0,0.0,0.0,0.0,0.0,0.0,0.0,0.0,0.0,0.0,0.0,0.0,0.0,0.0,0.0,0.0,0.0,0.0,0.0,0.0,0.0,0.0,0.0,0.0,0.0,0.0,0.0,0.0,0.0,0.0,0.0,0.0,0.0,0.0,0.0,0.0,0.0,0.0,0.0,0.0,0.0,0.0,0.0,0.0,0.0,0.0,0.0,0.0,0.0,0.0,0.0,0.0,0.0,0.0,0.0,0.0,0.0,0.0,0.0,0.0,0.0,0.0,0.0,0.0,0.0,0.0,0.0,0.0,0.0,0.0,0.0,0.0,0.0,0.0,0.0,0.0,0.0,0.0,0.0,0.0,0.0,0.0,0.0,0.0,0.0,0.0,0.0,0.0,0.0,0.0,0.0,0.0,0.0,0.0,0.0,0.0,0.0,0.0,0.0,0.0,0.0,0.0,0.0,0.0,0.0,0.0,0.0,0.0,0.0,0.0,0.0,0.0,0.0,0.0,0.0,0.0,0.0,0.0,0.0,0.0,0.0,0.0,0.0,0.0,0.0,0.0,0.0,0.0,0.0,0.0,0.0,0.0,0.0,0.0,0.0,0.0,0.0,0.0,0.0,0.0,0.0,0.0,0.0,0.0,0.0,0.0,0.0,0.0,0.0,0.0,0.0,0.0,0.0,0.0,0.0,0.0,0.0,0.0,0.0,0.0,0.0,0.0,0.0,0.0,0.0,0.0,0.0,0.0,0.0,0.0,0.0,0.0,0.0,0.0,0.0,0.0,0.0,0.0,0.0,0.0,0.0,0.0,0.0,0.0,0.0,0.0,0.0,0.0,0.0,0.0,0.0,0.0,0.0,0.0,0.0,0.0,0.0,0.0,0.0,0.0,0.0,0.0,0.0,0.0,0.0,0.0,0.0,0.0,0.0,0.0,0.0,0.0,0.0,0.0,0.0,0.0,0.0,0.0,0.0,0.0,0.0,0.0,0.0,0.0,0.0,0.0,0.0,0.0,0.0,0.0,0.0,0.0,0.0,0.0,0.0,0.0,0.0,0.0,0.0,0.0,0.0,0.0,0.0,0.0,0.0,0.0,0.0,0.0,0.0,0.0,0.0,0.0,0.0,0.0,0.0,0.0,0.0,0.0,0.0,0.0,0.0,0.0,0.0,0.0,0.0,0.0,0.0,0.0,0.0,0.0,0.0,0.0,0.0,0.0,0.0,0.0,0.0,0.0,0.0,0.0,0.0,0.0,0.0,0.0,0.0,0.0,0.0,0.0,0.0,0.0,0.0,0.0,0.0,0.0,0.0,0.0,0.0,0.0,0.0,0.0,0.0,0.0,0.0,0.0,0.0,0.0,0.0,0.0,0.0,0.0,0.0,0.0,0.0,0.0,0.0,0.0,0.0,0.0,0.0,0.0,0.0,0.0,0.0,0.0,0.0,0.0,0.0,0.0,0.0,0.0,0.0,0.0,0.0,0.0,0.0,0.0,0.0,0.0,0.0,0.0,0.0,0.0,0.0,0.0,0.0,0.0,0.0,0.0,0.0,0.0,0.0,0.0,0.0,0.0,0.0,0.0,0.0,0.0,0.0,0.0,0.0,0.0,0.0,0.0,0.0,0.0,0.0,0.0,0.0,0.0,0.0,0.0,0.0,0.0,0.0,0.0,0.0,0.0,0.0,0.0,0.0,0.0,0.0,0.0,0.0,0.0,0.0,0.0,0.0,0.0,0.0,0.0,0.0,0.0,0.0,0.0,0.0,0.0,0.0,0.0,0.0,0.0,0.0,0.0,0.0,0.0,0.0,0.0,0.0,0.0,0.0,0.0,0.0,0.0,0.0,0.0,0.0,0.0,0.0,0.0,0.0,0.0,0.0,0.0,0.0,0.0,0.0,0.0,0.0,0.0,0.0,0.0,0.0,0.0,0.0,0.0,0.0,0.0,0.0,0.0,0.0,0.0,0.0,0.0,0.0,0.0,0.0,0.0,0.0,0.0,0.0,0.0,0.0,0.0,0.0,0.0,0.0,0.0,0.0,0.0,0.0,0.0,0.0,0.0,0.0,0.0,0.0,0.0,0.0,0.0,0.0,0.0,0.0,0.0,0.0,0.0,0.0,0.0,0.0,0.0,0.0,0.0,0.0,0.0,0.0,0.0,0.0,0.0,0.0,0.0,0.0,0.0,0.0,0.0,0.0,0.0,0.0,0.0,0.0,0.0,0.0,0.0,0.0,0.0,0.0,0.0,0.0,0.0,0.0,0.0,0.0,0.0,0.0,0.0,0.0,0.0,0.0,0.0,0.0,0.0,0.0,0.0,0.0,0.0,0.0,0.0,0.0,0.0,0.0,0.0,0.0,0.0,0.0,0.0,0.0,0.0,0.0,0.0,0.0,0.0,0.0,0.0,0.0,0.0,0.0,0.0,0.0,0.0,0.0,0.0,0.0,0.0,0.0,0.0,0.0,0.0,0.0,0.0,0.0,0.0,0.0,0.0,0.0,0.0,0.0,0.0,0.0,0.0,0.0,0.0,0.0,0.0,0.0,0.0,0.0,0.0,0.0,0.0,0.0,0.0,0.0,0.0,0.0,0.0,0.0,0.0,0.0,0.0,0.0,0.0,0.0,0.0,0.0,0.0,0.0,0.0,0.0,0.0,0.0,0.0,0.0,0.0,0.0,0.0,0.0,0.0,0.0,0.0,0.0,0.0,0.0,0.0,0.0,0.0,0.0,0.0,0.0,0.0,0.0,0.0,0.0,0.0,0.0,0.0,0.0,0.0,0.0,0.0,0.0,0.0,0.0,0.0,0.0,0.0,0.0,0.0,0.0,0.0,0.0,0.0,0.0,0.0,0.0,0.0,0.0,0.0,0.0,0.0,0.0,0.0,0.0,0.0,0.0,0.0,0.0,0.0,0.0,0.0,0.0,0.0,0.0,0.0,0.0,0.0,0.0,0.0,0.0,0.0,0.0,0.0,0.0,0.0,0.0,0.0,0.0,0.0,0.0,0.0,0.0,0.0,0.0,0.0,0.0,0.0,0.0,0.0,0.0,0.0,0.0,0.0,0.0,0.0,0.0,0.0,0.0,0.0,0.0,0.0,0.0,0.0,0.0,0.0,0.0,0.0,0.0,0.0,0.0,0.0,0.0,0.0,0.0,0.0,0.0,0.0,0.0,0.0,0.0,0.0,0.0,0.0,0.0,0.0,0.0,0.0,0.0,0.0,0.0,0.0,0.0,0.0,0.0,0.0,0.0,0.0,0.0,0.0,0.0,0.0,0.0,0.0,0.0,0.0,0.0,0.0,0.0,0.0,0.0,0.0,0.0,0.0,0.0,0.0,0.0,0.0,0.0,0.0,0.0,0.0,0.0,0.0,0.0,0.0,0.0,0.0,0.0,0.0,0.0,0.0,0.0,0.0,0.0,0.0,0.0,0.0,0.0,0.0,0.0,0.0,0.0,0.0,0.0,0.0,0.0,0.0,0.0,0.0,0.0,0.0,0.0,0.0,0.0,0.0,0.0,0.0,0.0,0.0,0.0,0.0,0.0,0.0,0.0,0.0,0.0,0.0,0.0,0.0,0.0,0.0,0.0,0.0,0.0,0.0,0.0,0.0,0.0,0.0,0.0,0.0,0.0,0.0,0.0,0.0,0.0,0.0,0.0,0.0,0.0,0.0,0.0,0.0,0.0,0.0,0.0,0.0,0.0,0.0,0.0,0.0,0.0,0.0,0.0,0.0,0.0,0.0,0.0,0.0,0.0,0.0,0.0,0.0,0.0,0.0,0.0,0.0,0.0,0.0,0.0,0.0,0.0,0.0,0.0,0.0,0.0,0.0,0.0,0.0,0.0,0.0,0.0,0.0,0.0,0.0,0.0,0.0,0.0,0.0,0.0,0.0,0.0,0.0,0.0,0.0,0.0,0.0,0.0,0.0,0.0,0.0,0.0,0.0,0.0,0.0,0.0,0.0,0.0,0.0,0.0,0.0,0.0,0.0,0.0,0.0,0.0,0.0,0.0,0.0,0.0,0.0,0.0,0.0,0.0,0.0,0.0,0.0,0.0,0.0,0.0,0.0,0.0,0.0,0.0,0.0,0.0,0.0,0.0,0.0,0.0,0.0,0.0,0.0,0.0,0.0,0.0,0.0,0.0,0.0,0.0,0.0,0.0,0.0,0.0,0.0,0.0,1.9874,1.8411,0.0,0.0,0.0,0.0,0.0,0.0,0.0,0.0,0.0,0.0,0.0,0.0,0.0,0.0,0.0,0.0,0.0,0.0,0.0,0.0,0.0,0.0,0.0,0.0,0.0,0.0,0.0,0.0,0.0,0.0,0.0,0.0,0.0,0.0,0.0,0.0,0.0,0.0,1.4585,1.553,1.6861,1.5553,1.5069,1.5325,0.0,0.0,0.0,0.0,0.0,0.0,0.0,0.0,0.0,0.0,0.0,0.0,0.0,0.0,0.0,0.0,0.0,0.0,0.0,0.0,0.0,0.0,0.0,0.0,0.0,0.0,0.0,0.0,0.0,0.0,0.0,0.0,0.0,0.0,0.0,0.0,0.0,0.0,0.0,0.0,0.0,0.0,0.0,0.0,0.0,0.0,0.0,0.0,0.0,0.0,0.0,0.0,0.0,0.0,0.0,0.0,0.0,0.0,0.0,0.0,0.0,0.0,0.0,0.0,0.0,0.0,0.0,0.0,0.0,0.0,2.1621,2.0594,0.0,0.0,0.0,0.0,0.0,0.0,0.0,0.0,0.0,0.0,0.0,0.0,0.0,0.0,0.0,0.0,0.0,0.0,0.0,0.0,0.0,0.0,0.0,0.0,1.1886,1.2033,1.2471,1.2932,0.0,0.0,0.0,0.0,0.0,0.0,0.0,1.3738,1.3773,1.4098,1.5356,1.6433,1.7281,1.6852,1.6915,1.7349,1.5879,0.0,0.0,0.0,0.0,0.0,0.0,0.0,0.0,0.0,0.0,0.0,0.0,0.0,0.0,0.0,0.0,0.0,0.0,0.0,0.0,0.0,0.0,0.0,0.0,0.0,0.0,0.0,0.0,0.0,0.0,0.0,0.0,0.0,0.0,0.0,0.0,0.0,0.0,0.0,0.0,0.0,0.0,0.0,0.0,0.0,0.0,0.0,0.0,0.0,0.0,0.0,0.0,0.0,0.0,0.0,0.0,0.0,0.0,0.0,0.0,0.0,0.0,0.0,2.2527,2.2824,2.3387,2.3228,2.3582,2.4285,2.329,2.3065,2.3301,2.1964,0.0,0.0,0.0,0.0,0.0,0.0,0.0,0.0,0.0,0.0,0.0,0.0,0.0,0.0,0.0,0.0,0.0,0.0,0.0,0.0,0.0,1.1658,1.183,1.2531,1.2769,1.2957,0.0,0.0,0.0,0.0,0.0,0.0,1.4237,1.416,1.4883,1.6452,1.7674,1.7933,1.7306,1.7227,1.744,1.7834,1.6374,1.5736,1.5769,0.0,0.0,0.0,0.0,0.0,0.0,0.0,0.0,0.0,0.0,0.0,0.0,0.0,0.0,0.0,0.0,0.0,0.0,0.0,0.0,0.0,0.0,0.0,0.0,0.0,0.0,0.0,0.0,0.0,0.0,0.0,0.0,0.0,0.0,0.0,0.0,0.0,0.0,0.0,0.0,0.0,1.6489,1.6855,0.0,0.0,0.0,0.0,0.0,0.0,0.0,0.0,0.0,0.0,0.0,0.0,0.0,2.1288,2.204,2.2414,2.2796,2.3196,2.4663,2.4945,2.419,2.5251,2.5402,2.4887,2.4727,0.0,2.3375,2.3174,0.0,0.0,0.0,0.0,0.0,0.0,0.0,0.0,0.0,0.0,0.0,0.0,0.0,0.0,0.0,0.0,0.0,0.0,0.0,0.0,0.0,1.2132,1.2365,1.273,1.3152,1.3466,1.3606,1.3587,0.0,0.0,0.0,1.4365,1.4912,1.4747,1.5332,1.6734,1.7259,1.7712,1.8079,1.7819,1.7938,1.8348,1.7439,1.6716,1.616,1.5691,0.0,0.0,0.0,0.0,0.0,0.0,0.0,0.0,0.0,0.0,0.0,0.0,0.0,0.0,0.0,0.0,0.0,0.0,0.0,0.0,0.0,0.0,0.0,0.0,0.0,0.0,0.0,0.0,0.0,0.0,0.0,0.0,0.0,0.0,0.0,0.0,0.0,0.0,0.0,1.6586,1.6802,1.8116,1.7621,1.7353,0.0,0.0,0.0,0.0,0.0,0.0,0.0,0.0,0.0,2.0552,2.0974,2.1694,2.2773,2.2991,2.3177,2.3364,2.3757,2.3874,2.3808,2.4287,2.4536,2.4569,2.4877,2.473,2.4252,2.372,2.3209,2.2702,0.0,0.0,0.0,0.0,2.2637,2.2597,0.0,0.0,0.0,0.0,0.0,0.0,0.0,0.0,0.0,0.0,0.0,0.0,1.2104,1.2425,1.2733,1.2936,1.3502,1.3858,1.3907,1.3995,0.0,0.0,1.456,1.4804,1.5296,1.5255,1.5602,1.641,1.6738,1.7422,1.8433,1.8192,1.826,1.8588,1.8394,1.7788,1.6849,1.6236,1.5985,1.5974,0.0,0.0,0.0,0.0,0.0,0.0,0.0,0.0,0.0,0.0,0.0,0.0,0.0,0.0,0.0,0.0,0.0,0.0,0.0,0.0,0.0,0.0,0.0,0.0,0.0,0.0,0.0,0.0,0.0,0.0,0.0,0.0,0.0,0.0,0.0,0.0,0.0,1.7163,1.7223,1.885,1.8434,1.7993,0.0,0.0,0.0,0.0,0.0,0.0,1.9552,1.9743,2.0258,2.1175,2.1299,2.1951,2.314,2.314,2.3205,2.3284,2.2986,2.2946,2.318,2.3284,2.3484,2.3782,2.4192,2.4356,2.4345,2.4068,2.3956,2.3915,2.3381,2.2802,2.2497,2.3836,2.41,2.4044,0.0,0.0,0.0,0.0,0.0,0.0,0.0,0.0,0.0,0.0,0.0,1.2095,1.2095,1.2185,1.2533,1.3299,1.375,1.3885,1.3635,1.4323,1.4646,1.443,1.4112,1.4284,1.4996,1.558,1.5853,1.584,1.713,1.7746,1.776,1.8118,1.8311,1.8335,1.8878,1.869,1.7853,1.6882,1.6454,1.6435,1.5985,0.0,0.0,0.0,0.0,0.0,0.0,0.0,0.0,0.0,0.0,0.0,0.0,0.0,0.0,0.0,0.0,0.0,0.0,0.0,0.0,0.0,0.0,0.0,0.0,0.0,0.0,0.0,0.0,0.0,0.0,0.0,0.0,0.0,0.0,0.0,0.0,0.0,0.0,1.8005,1.8366,0.0,0.0,0.0,0.0,1.9448,1.9766,1.9891,1.9712,2.0416,2.0772,2.0633,2.1072,2.1676,2.2439,2.2439,2.2637,2.3024,2.3695,2.3502,2.2567,2.334,2.3265,2.2592,2.2617,2.2642,2.2757,2.4294,2.4419,2.3626,2.3587,2.2965,2.2328,2.4032,2.466,2.4882,0.0,0.0,0.0,0.0,0.0,0.0,0.0,0.0,1.2258,1.2122,1.1864,1.1711,1.1711,1.252,1.3121,1.3319,1.4139,1.4441,1.3941,1.4112,1.419,1.4081,1.421,1.4538,1.5047,1.6089,1.6467,1.6189,1.6912,1.7408,1.7643,1.7738,1.8138,1.8765,1.92,1.9251,1.9017,1.888,1.8635,1.8355,1.8177,1.757,0.0,0.0,0.0,0.0,0.0,0.0,0.0,0.0,0.0,0.0,0.0,0.0,0.0,0.0,0.0,0.0,0.0,0.0,0.0,0.0,0.0,0.0,0.0,0.0,0.0,0.0,0.0,0.0,0.0,0.0,0.0,0.0,0.0,0.0,0.0,0.0,0.0,1.8452,1.8567,0.0,1.8829,1.9324,1.9573,1.9457,1.9757,1.9899,1.9822,2.0094,2.0327,2.0466,2.0638,2.1056,2.1752,2.1752,2.1968,2.235,2.2619,2.2564,2.2209,2.2837,2.295,2.2697,2.3063,2.3219,2.3246,2.3858,2.3839,2.3468,2.399,2.388,2.3639,2.5251,2.5534,2.5249,0.0,0.0,0.0,0.0,0.0,0.0,0.0,0.0,1.2107,1.2101,1.1887,1.1799,1.1966,1.2973,1.3652,1.3732,1.4459,1.4674,1.4147,1.4226,1.4245,1.4102,1.4383,1.4661,1.4932,1.5759,1.6247,1.6327,1.6855,1.7307,1.7706,1.7922,1.8392,1.9043,1.9487,1.9791,1.9993,2.0436,2.0115,1.9345,1.9548,1.8977,1.7966,0.0,0.0,0.0,0.0,0.0,0.0,0.0,0.0,0.0,0.0,0.0,0.0,0.0,0.0,0.0,0.0,0.0,0.0,0.0,0.0,0.0,0.0,0.0,0.0,0.0,0.0,0.0,0.0,0.0,0.0,0.0,0.0,0.0,0.0,1.7592,1.8042,1.8588,1.8791,1.8914,1.9059,1.9496,1.9722,1.9575,1.9878,2.0067,2.0067,2.0265,2.0512,2.0742,2.0861,2.1147,2.1589,2.1597,2.1735,2.2011,2.2011,2.2011,2.2011,2.2368,2.2537,2.2564,2.2903,2.3063,2.3063,2.3063,2.3086,2.3193,2.3922,2.4099,2.4177,2.5658,2.5847,2.5559,0.0,0.0,0.0,0.0,0.0,0.0,0.0,1.2437,1.2092,1.2102,1.2152,1.2364,1.2844,1.3481,1.409,1.4541,1.4662,1.4533,1.4142,1.4718,1.4894,1.4494,1.4545,1.4607,1.4609,1.4661,1.518,1.6241,1.6977,1.7528,1.7924,1.8714,1.9084,1.9127,1.9726,2.0247,2.0713,2.1318,2.065,1.9279,1.9909,1.9868,1.9339,0.0,0.0,0.0,0.0,0.0,0.0,0.0,0.0,0.0,0.0,0.0,0.0,0.0,0.0,0.0,0.0,0.0,0.0,0.0,0.0,0.0,0.0,0.0,0.0,0.0,0.0,0.0,0.0,0.0,0.0,0.0,0.0,0.0,1.782,1.7773,1.7923,1.8402,1.9025,1.928,1.8884,1.9511,1.9908,1.9916,2.025,2.0424,2.0424,2.1058,2.1412,2.1412,2.1791,2.2019,2.2027,2.2027,2.2043,2.2059,2.2059,2.204,2.2083,2.2083,2.2083,2.2083,2.2083,2.2083,2.2083,2.2083,2.2352,2.2862,2.3381,2.3576,2.3762,2.5073,2.5548,2.5764,0.0,0.0,0.0,0.0,0.0,0.0,0.0,1.2201,1.1765,1.2063,1.1902,1.1997,1.2619,1.3417,1.3995,1.4214,1.4517,1.4619,1.44,1.4348,1.4131,1.3791,1.4295,1.4604,1.4592,1.5895,1.6699,1.6994,1.7737,1.8145,1.8274,1.8442,1.8706,1.9054,1.9513,1.9812,2.0,2.0623,2.0439,1.9867,2.1019,2.0948,2.0185,0.0,0.0,0.0,0.0,0.0,0.0,0.0,0.0,0.0,0.0,0.0,0.0,0.0,0.0,0.0,0.0,0.0,0.0,0.0,0.0,0.0,0.0,0.0,0.0,0.0,0.0,0.0,0.0,0.0,0.0,0.0,1.7615,1.8143,1.8149,1.862,1.9083,1.9441,1.9654,1.9813,1.9948,2.0138,2.0353,2.0615,2.0939,2.1137,2.1137,2.1584,2.1849,2.1849,2.1937,2.2112,2.2366,2.2366,2.2601,2.3081,2.3081,2.3236,2.3532,2.3532,2.3532,2.3532,2.3532,2.3532,2.3532,2.3532,2.3446,2.3291,2.3091,2.3258,2.3629,2.4009,2.4421,2.5013,0.0,0.0,0.0,0.0,0.0,0.0,0.0,1.2138,1.1746,1.2326,1.1931,1.1987,1.3026,1.3549,1.3961,1.4315,1.4512,1.4517,1.4297,1.398,1.3778,1.3754,1.416,1.4605,1.504,1.6239,1.6995,1.7301,1.7999,1.844,1.8572,1.8687,1.8989,1.9388,1.9606,1.9869,2.0102,2.0457,2.0578,2.0611,2.133,2.1253,2.0693,2.0977,2.0417,1.9431,1.894,1.8574,1.8141,1.6909,0.0,0.0,0.0,0.0,0.0,0.0,0.0,0.0,0.0,0.0,0.0,0.0,0.0,0.0,0.0,0.0,0.0,0.0,0.0,0.0,0.0,0.0,0.0,0.0,1.8525,1.9029,1.9151,1.9422,1.9725,2.0067,2.0107,2.0306,2.0756,2.0812,2.098,2.133,2.1544,2.1663,2.1663,2.2024,2.2207,2.2207,2.2466,2.272,2.2927,2.3098,2.3376,2.3753,2.3753,2.3864,2.4114,2.4114,2.4114,2.4114,2.4114,2.4114,2.4114,2.4114,2.3965,2.371,0.0,0.0,0.0,0.0,2.428,2.5103,0.0,0.0,0.0,0.0,0.0,0.0,0.0,1.2182,1.1929,1.2644,1.2113,1.2229,1.3721,1.3774,1.3951,1.4621,1.4526,1.4297,1.3905,1.361,1.362,1.4024,1.4081,1.4622,1.5725,1.6126,1.6675,1.7419,1.8041,1.8519,1.8876,1.9225,1.9574,1.9892,1.9892,2.0135,2.0523,2.0523,2.0756,2.1137,2.1066,2.0987,2.0946,2.1179,2.0621,1.9601,1.8528,1.8085,1.7893,1.6931,0.0,0.0,0.0,0.0,0.0,0.0,0.0,0.0,0.0,0.0,0.0,0.0,0.0,0.0,0.0,0.0,0.0,0.0,0.0,0.0,0.0,0.0,0.0,0.0,1.9524,2.0075,2.04,2.0242,2.0187,2.048,2.0512,2.0774,2.1415,2.1478,2.1605,2.196,2.2051,2.2048,2.2048,2.2382,0.0,0.0,0.0,2.3533,2.3573,2.3925,2.4129,2.4169,2.4169,2.4193,2.4203,2.4203,2.4203,2.4203,2.4203,2.4203,2.4203,2.4203,2.418,2.4108,2.3708,2.3359,2.3134,2.3726,2.4616,2.5523,0.0,0.0,0.0,0.0,0.0,0.0,0.0,1.2307,1.2205,1.2299,1.2178,1.2507,1.3618,1.3716,1.3932,1.4492,1.4273,1.383,1.3224,1.3133,1.3285,1.3685,1.3956,1.4727,1.6071,1.6759,1.7413,1.8105,1.8518,1.8915,1.9296,1.9367,1.9574,1.9892,1.9892,1.9941,2.0038,2.0038,2.0079,2.0208,2.0551,2.0839,2.1071,2.1004,2.0831,2.056,1.9803,1.9494,1.9263,1.775,1.7509,1.7672,1.6472,1.6219,0.0,0.0,0.0,0.0,0.0,0.0,0.0,0.0,0.0,0.0,0.0,0.0,0.0,0.0,0.0,0.0,0.0,0.0,0.0,1.9268,1.9869,2.0416,2.0766,2.0978,2.1145,2.1216,2.1224,2.1383,2.1849,2.1889,2.1913,2.1976,2.2247,2.2414,2.2414,2.272,2.3017,2.3303,2.3446,2.3652,2.3981,2.4052,2.4227,2.4506,2.4506,0.0,2.4905,2.4905,2.4905,2.4905,2.4905,2.4905,2.4905,2.4905,2.4738,2.4474,2.4124,2.3745,2.3472,2.4077,2.4265,2.4331,0.0,0.0,0.0,0.0,0.0,0.0,0.0,1.2481,1.2393,1.2489,1.227,1.2433,1.3294,1.3342,1.3477,1.3912,1.3665,1.3361,1.3019,1.2867,1.3099,1.3824,1.4021,1.4829,1.6416,1.7,1.7641,1.8295,1.863,1.9098,1.9646,1.9646,1.9924,2.0392,2.0392,2.0392,2.0392,2.0392,2.0392,2.0401,2.0474,2.0506,2.0528,2.0868,2.0715,2.0225,1.9621,1.9254,1.8866,1.7667,1.744,1.7595,1.7027,1.6699,1.6331,0.0,0.0,0.0,0.0,0.0,0.0,0.0,0.0,0.0,0.0,0.0,0.0,0.0,0.0,1.78,1.7973,0.0,1.9508,1.9845,2.0464,2.0955,2.1137,2.1454,2.164,2.1412,2.1573,2.1838,2.2215,2.2247,2.2326,2.2501,2.2518,2.2607,2.2752,2.2783,2.2954,2.3304,2.3467,2.3668,2.3861,2.4183,2.4424,2.4597,2.478,2.4936,2.5111,2.5111,2.5111,2.5111,2.5111,2.5111,2.5111,2.5111,2.5,2.4825,2.4681,2.4261,2.383,2.4134,2.4338,2.4453,0.0,0.0,0.0,0.0,0.0,0.0,0.0,1.2646,1.2561,1.2667,1.2363,1.2383,1.3036,1.2983,1.3015,1.3285,1.312,1.2989,1.2928,1.2713,1.3044,1.4069,1.4045,1.4845,1.665,1.7024,1.754,1.8295,1.863,1.9153,1.9797,1.9885,2.0234,2.0821,2.0867,2.0899,2.0899,2.0899,2.0899,2.0867,2.0535,2.0203,1.9958,2.0542,2.0245,1.9436,1.8814,1.834,1.7908,1.7097,1.7063,1.7375,1.7531,1.7199,1.6537,1.5634,1.522,0.0,0.0,0.0,0.0,0.0,0.0,0.0,0.0,1.6556,1.6938,1.7583,1.7986,1.84,1.8994,1.9431,1.99,2.0496,2.0921,2.1175,2.1246,2.1409,2.1383,2.0952,2.1617,2.2087,2.2075,2.2225,2.2306,2.2268,2.2361,2.2465,2.2552,2.2644,2.2842,2.3177,2.3467,2.3635,2.3696,2.4217,2.4548,2.461,2.4857,2.505,2.5111,2.5111,2.5111,2.5111,2.5111,2.5111,2.5111,2.5111,2.5111,2.5111,2.5111,2.4762,2.4283,2.4211,2.4464,2.4777,0.0,0.0,0.0,0.0,0.0,0.0,0.0,0.0,1.277,1.233,1.2472,1.2745,1.3077,1.2983,1.2913,1.2952,1.2985,1.2897,1.2652,1.2621,1.3044,1.4069,1.3815,1.4609,1.667,1.6737,1.7265,1.8295,1.863,1.9034,1.9455,1.9749,2.0099,2.0464,2.0782,2.0899,2.0899,2.0899,2.0899,2.0867,2.0535,2.0203,1.9869,1.9661,1.9292,1.8774,1.7825,1.7456,1.7242,1.6213,1.6432,1.7064,1.6625,1.6933,1.7179,1.567,1.5197,1.4906,1.3692,1.4456,1.5763,1.636,1.7291,1.8234,0.0,1.9,1.9144,1.9526,1.9869,2.0124,2.0202,2.0512,2.0851,2.1214,2.0702,2.0343,2.0643,2.0269,1.9752,1.915,2.1083,2.1951,2.0673,2.1265,2.1144,1.9811,2.1024,2.1555,2.0991,2.229,2.3193,2.3535,2.3581,2.3741,2.4047,2.4123,2.4301,2.461,2.4641,2.4795,2.5111,2.5111,2.5111,2.5111,2.5111,2.5111,2.5111,2.5111,2.5111,2.5111,2.5111,2.5063,2.4952,2.4635,2.4406,2.4194,0.0,0.0,0.0,0.0,0.0,0.0,0.0,0.0,0.0,1.2189,1.2158,1.2213,1.2335,1.2286,1.2342,1.2538,1.247,1.2473,1.2598,1.259,1.2861,1.3489,1.3577,1.4309,1.5801,1.6202,1.6849,1.7729,1.8255,1.8677,1.9066,1.9439,1.9781,2.0115,2.0266,2.033,2.033,2.033,2.033,2.0314,2.0171,1.9908,1.9542,1.8986,1.8653,1.8392,1.7594,1.7008,0.0,1.5916,1.5832,1.6017,1.6194,1.6363,1.6326,1.5447,1.5343,1.5522,1.5673,1.5989,1.6504,1.7419,1.8151,1.8708,1.8984,1.9238,1.9549,2.0076,2.0456,2.0702,2.0702,2.0962,2.1065,2.0699,2.0676,2.0422,1.9661,1.9511,1.9032,1.7881,1.914,1.9874,1.9234,1.953,1.9465,1.8822,1.9331,1.9628,1.9554,2.0894,2.1793,2.2128,2.2893,2.3376,2.3518,2.3704,2.3891,2.4015,2.4232,2.4487,2.4795,2.4795,2.4919,2.5111,2.5111,2.5111,2.5111,2.5111,2.5111,2.5111,2.5111,2.5111,2.5087,2.4944,2.4793,2.4635,0.0,0.0,0.0,0.0,0.0,0.0,0.0,0.0,0.0,0.0,1.1912,1.1782,1.172,1.1768,1.1899,1.2131,1.2067,1.2116,1.2423,1.2543,1.275,1.3092,1.3339,1.3967,1.5014,1.5705,1.6365,1.7005,1.7697,1.8144,1.8384,1.8787,1.9185,1.9606,1.9709,1.9805,1.9892,1.9892,1.9861,1.9741,1.9638,1.9344,1.8898,1.8373,1.7977,1.766,1.7159,1.6706,1.6257,1.5852,1.5542,1.5422,1.5904,1.5908,1.5613,1.5165,1.508,1.5375,1.6544,1.6786,1.6987,1.816,1.8836,1.9241,1.9241,1.9542,1.994,2.044,2.0742,2.0899,2.0899,2.0969,2.0866,2.0339,2.014,1.9709,1.8707,1.8394,1.7792,1.6412,1.6891,1.7254,1.7037,1.7622,1.7833,1.7401,1.7715,1.7992,1.8056,1.9392,2.0254,2.0493,2.1454,2.2153,2.2536,2.2786,2.3129,2.3611,2.386,2.4139,2.4487,2.4548,2.4734,2.498,2.505,2.5111,2.5111,2.5111,2.5111,2.5111,2.5111,2.5111,2.5111,2.5111,2.5111,2.5071,0.0,0.0,0.0,0.0,0.0,0.0,0.0,0.0,0.0,0.0,0.0,0.0,0.0,1.1679,1.181,1.1818,1.1935,1.2005,1.2021,1.2384,1.275,1.3092,1.3116,1.3592,1.4597,1.534,1.5892,1.6238,1.6981,1.7339,1.7355,1.7681,1.8192,1.8852,1.9233,1.959,1.9892,1.9892,1.9702,1.9383,1.9002,1.8438,1.7862,1.7816,1.7172,1.6269,1.6246,1.6424,1.6591,1.5931,1.5693,1.5685,1.5709,1.5709,1.5558,1.4837,1.4163,1.3967,1.5367,1.6222,1.7051,1.8439,1.9558,2.0345,2.0345,2.0623,2.0859,2.0875,2.0883,2.0899,2.0899,2.0491,2.0244,2.0537,1.8852,1.7613,1.7879,1.6644,1.5392,1.4487,1.4586,1.44,1.362,1.5669,1.6409,1.4833,1.634,1.7078,1.6486,1.8104,1.9056,1.9068,1.91,1.9769,2.1139,2.117,2.1996,2.3611,2.3611,2.3798,2.4139,2.4456,2.461,2.4641,2.4957,2.5111,2.5111,2.5111,2.5111,2.5111,2.5111,2.5111,2.5111,2.5111,2.5111,2.5111,0.0,0.0,0.0,0.0,0.0,0.0,0.0,0.0,0.0,0.0,0.0,0.0,0.0,0.0,0.0,0.0,1.1407,1.1535,1.1973,1.2131,1.2376,1.2758,1.2981,1.3259,1.3608,1.4283,1.4697,1.4816,1.5772,1.6234,1.625,1.681,1.7186,1.7402,1.7543,1.7662,1.7787,1.7787,1.7701,1.759,1.7463,1.7273,1.7011,1.6584,1.6329,1.6118,0.0,1.5377,1.5674,1.5446,1.5367,1.5406,1.5629,1.5542,1.5271,1.4748,1.4948,1.5531,1.6504,1.7618,1.8708,1.9638,2.0313,2.0717,2.0717,2.0812,2.0899,2.0899,2.0709,2.0416,1.9943,1.9502,1.8964,1.809,1.7378,1.6657,1.5832,1.5157,1.4536,1.3961,1.3848,1.3745,1.3609,1.4321,1.46,1.4043,1.4804,1.5208,1.5016,1.6689,1.7683,1.7683,1.8556,1.9228,1.9706,2.0633,2.1391,2.1964,2.3067,2.3673,2.3767,2.4108,2.4263,2.4301,2.461,2.4764,2.4795,2.5019,2.5111,2.5111,2.5111,2.5111,2.5111,2.5111,2.5111,2.5111,0.0,0.0,0.0,0.0,0.0,0.0,0.0,0.0,0.0,0.0,0.0,0.0,0.0,0.0,0.0,0.0,0.0,1.1185,1.1608,1.1743,1.1988,1.2368,1.256,1.2751,1.2988,1.3489,1.3746,1.3746,1.462,1.5062,1.5078,1.5675,1.6099,1.6337,1.6464,1.6599,1.6689,1.6689,1.6638,1.6527,1.6527,1.6376,1.6123,1.582,1.5764,0.0,1.5059,1.4982,1.5184,1.5038,1.5078,1.5216,1.5276,1.5157,1.5014,1.5139,1.5654,1.6476,1.7721,1.8707,1.9518,2.0026,2.0317,2.0403,2.0086,2.0241,2.0377,2.006,2.0005,1.9766,1.8977,1.832,1.7569,1.654,1.6029,1.5426,1.4518,1.4142,1.3869,1.3625,1.3532,1.3518,1.3575,1.3646,1.3688,1.3688,1.4076,1.4312,1.4312,1.5524,1.6246,1.6246,1.7033,1.7701,1.8294,1.9098,1.9796,2.0341,2.1447,2.2208,2.2724,2.3067,2.3479,2.3953,2.4263,2.4417,2.4456,2.4764,2.4919,2.4919,2.505,2.5111,2.5111,2.5111,2.5111,2.5111,0.0,0.0,0.0,0.0,0.0,0.0,0.0,0.0,0.0,0.0,0.0,0.0,0.0,0.0,0.0,0.0,0.0,0.0,1.0995,1.1302,1.1622,1.1957,1.1848,1.2079,1.2741,1.2935,1.3028,1.3044,1.357,1.3837,1.3845,1.433,1.4932,1.5629,1.5952,1.6273,1.6586,1.6586,1.6416,1.6126,1.6126,1.5737,1.5208,1.5526,1.5446,1.5176,1.5176,1.5176,1.5102,1.4724,1.4877,1.5168,1.4782,1.4692,1.493,1.5924,1.6293,1.681,1.885,1.9415,1.9444,1.962,1.962,1.9361,1.8553,1.8971,1.9335,1.8506,1.8748,1.8871,1.7967,1.6925,1.609,1.5889,1.4773,1.3967,1.3982,1.363,1.3395,1.3405,1.3566,1.3603,1.3424,1.3584,1.3707,1.3707,1.4081,1.4317,1.4326,1.4682,1.4894,1.4884,1.47,1.5324,1.6861,1.6754,1.7491,1.9004,1.9004,1.9706,2.1012,2.1391,2.2278,2.3479,2.3891,2.4077,2.4108,2.4456,2.4579,2.4641,2.4949,2.508,2.5111,2.5111,2.5111,2.5111,0.0,0.0,0.0,0.0,0.0,0.0,0.0,0.0,0.0,0.0,0.0,0.0,0.0,0.0,0.0,0.0,0.0,0.0,1.0963,1.1074,1.1273,1.1606,1.1502,1.1619,1.2055,1.2004,1.2096,1.2349,1.2832,1.3084,1.3092,1.3612,1.4085,1.4514,1.4609,1.4829,1.5136,1.5136,1.5088,1.5001,1.5001,1.4917,1.4756,1.4853,1.4837,1.4748,1.4748,1.4748,1.4742,1.4637,1.5028,1.555,1.5443,1.596,1.6611,1.6575,1.7533,1.8707,1.9248,1.9516,1.9537,1.9136,1.8544,1.7995,1.7785,1.7601,1.7462,1.7514,1.7115,1.6481,1.5494,1.4779,1.4229,1.375,1.35,1.3375,1.3543,1.347,1.3472,1.3624,1.3528,1.3534,1.3603,1.3807,1.3929,1.3929,1.4166,1.4378,1.4512,1.4762,1.4832,1.4682,1.463,1.4813,1.5213,1.6359,1.7627,1.9004,1.9004,1.9196,1.9578,2.0721,2.1423,2.18,2.3168,2.3736,2.3767,2.4077,2.4355,2.461,2.4703,2.4888,2.5111,2.5111,2.5111,2.5111,0.0,0.0,0.0,0.0,0.0,0.0,0.0,0.0,0.0,0.0,0.0,0.0,0.0,0.0,0.0,0.0,0.0,0.0,0.0,1.0843,1.0936,1.1271,1.1121,1.1179,1.1499,1.1478,1.1526,1.1654,1.2227,1.249,1.2506,1.3106,1.3473,1.3672,1.3815,1.3989,1.4171,1.4321,1.4375,0.0,0.0,1.4605,1.4605,1.4605,1.47,1.4837,1.466,1.4708,1.4885,1.5028,1.5356,1.5748,1.6039,1.6555,1.7098,1.7511,1.847,1.9495,1.9932,2.0145,1.9957,1.8897,1.8264,1.7679,1.682,1.669,1.658,1.6048,1.5758,1.5233,1.4084,1.3514,1.31,1.2694,1.2809,1.3003,1.3126,1.3306,1.3466,1.3695,1.3589,1.3603,1.3811,1.3939,1.4059,1.4238,1.4356,1.4474,1.4592,1.471,1.4719,1.4606,1.4427,1.437,1.446,1.5545,1.6467,1.7211,1.7211,1.7528,1.8133,1.8934,1.9954,2.1139,2.209,2.2849,2.3425,2.3736,2.3984,2.417,2.4324,2.4579,2.4888,2.4888,2.498,2.5111,0.0,0.0,0.0,0.0,0.0,0.0,0.0,0.0,0.0,0.0,0.0,0.0,0.0,0.0,0.0,0.0,0.0,0.0,0.0,0.0,1.067,1.0915,1.0749,1.0769,1.1044,1.1134,1.116,1.1086,1.1692,1.2012,1.2074,1.2672,1.3004,1.3108,1.341,1.3561,1.3625,1.3966,1.4091,1.4123,1.4462,1.4605,1.4605,0.0,1.4821,1.507,1.4734,1.4861,1.5255,1.5581,1.5756,1.5936,1.6575,1.6916,1.7305,1.8519,1.9217,1.9797,2.0653,2.0737,2.0223,1.8807,1.8206,1.7528,1.5918,1.598,1.599,1.4542,1.4542,1.4444,1.3265,1.2729,1.2414,1.2269,1.2549,1.2804,1.2833,1.3174,1.3466,1.3695,1.3665,1.3745,1.3991,1.4007,1.4168,1.4531,1.4583,1.4601,1.4601,1.4573,1.4545,1.4521,1.4196,1.4133,1.4307,1.4691,1.4898,1.4898,1.4898,1.5541,1.6721,1.6915,1.8294,2.0563,2.0949,2.1776,2.2856,2.3324,2.3549,2.3642,2.3922,2.4232,2.4548,2.4579,2.4764,2.5042,0.0,0.0,0.0,0.0,0.0,0.0,0.0,0.0,0.0,0.0,0.0,0.0,0.0,0.0,0.0,0.0,0.0,0.0,0.0,0.0,0.0,1.0584,1.0441,1.048,1.0753,1.0686,1.0755,1.102,1.1305,1.1583,1.1862,1.2089,1.252,1.3092,1.3164,1.3346,1.3625,1.3966,1.4091,1.4123,1.4462,1.4605,1.4605,1.4605,0.0,0.0,1.4629,1.4861,1.5255,1.5581,1.6063,1.6607,1.7048,1.7977,1.8986,1.9232,1.9932,2.0694,2.0843,1.9879,1.8833,1.8753,1.716,1.5633,1.5776,1.5039,1.4236,1.402,1.3355,1.2691,1.2287,1.1924,1.1736,1.187,1.2408,1.2852,1.3022,1.3259,1.3466,1.3695,1.3542,1.3589,1.3972,1.4161,1.4288,1.4359,1.4502,1.4601,1.4601,1.4432,1.4288,1.4123,1.4213,1.4274,1.4312,1.4691,1.4898,1.4898,1.4898,1.5029,1.5285,1.6467,1.7265,1.7838,2.0113,2.1233,2.1555,2.2724,2.3362,2.3611,2.3666,2.3891,2.4232,2.4518,2.4641,2.4734,0.0,0.0,0.0,0.0,0.0,0.0,0.0,0.0,0.0,0.0,1.2303,1.1763,0.0,0.0,0.0,0.0,0.0,0.0,0.0,0.0,0.0,0.0,1.0509,1.0433,1.0493,1.0578,1.075,1.1058,0.0,1.1729,1.2056,1.2222,1.2503,1.2853,1.302,1.3195,1.3362,1.3869,1.4091,1.4123,1.4462,1.4605,1.4605,0.0,0.0,0.0,1.4605,1.4861,1.5255,1.5581,1.6023,1.6535,1.7125,1.8112,1.9129,1.9344,2.0106,2.0899,2.0899,2.0009,1.8997,1.8662,1.7351,1.6041,1.5585,1.4954,1.4322,1.3794,1.327,1.2741,1.2123,1.2034,1.2011,1.1829,1.2351,1.2866,1.307,1.3283,1.3466,1.3695,1.3603,1.3707,1.4128,1.4255,1.4328,1.4436,1.4436,1.4432,1.4432,1.4238,1.4057,1.3849,1.4048,1.4172,1.4312,1.4592,1.4799,1.4898,1.4898,1.4898,1.4931,1.5606,1.6305,1.7077,1.8384,1.9795,2.1139,2.1776,2.2567,2.3324,2.3324,2.3542,2.386,2.4015,2.4293,2.461,0.0,0.0,0.0,0.0,0.0,0.0,0.0,1.2736,1.27,1.27,1.252,1.224,1.1818,1.1256,0.0,0.0,0.0,0.0,0.0,0.0,0.0,0.0,0.0,0.0,1.0432,0.0,0.0,1.1084,1.1525,0.0,0.0,0.0,0.0,0.0,1.2885,1.3036,1.3148,1.3743,1.402,0.0,0.0,1.4605,1.4605,0.0,0.0,0.0,0.0,1.4805,1.5152,1.5558,1.5884,1.6214,1.6937,1.7826,1.8677,1.924,2.0003,2.0726,2.0859,2.03,1.955,1.884,1.7943,1.6872,1.5655,1.5234,1.483,1.3861,1.3628,1.3335,1.2478,1.257,1.2612,1.205,1.2502,1.2949,1.3089,1.324,1.3395,1.3603,1.3652,1.3788,1.4208,1.4284,1.4378,1.4521,1.4322,1.4175,1.4175,1.4029,1.3863,1.3693,1.3901,1.4109,1.4307,1.4493,1.47,1.4898,1.4898,1.4898,1.4898,1.4898,1.5508,1.6559,1.6883,1.8224,2.0271,2.0854,2.1713,2.2692,2.2981,2.3269,2.3518,2.358,2.3922,2.4425,0.0,0.0,0.0,0.0,0.0,0.0,0.0,1.27,1.27,1.27,1.252,1.2374,1.233,1.2112,0.0,0.0,0.0,0.0,0.0,0.0,0.0,0.0,0.0,0.0,0.0,0.0,0.0,1.1002,1.1362,0.0,0.0,0.0,0.0,0.0,0.0,1.2821,1.3116,1.3498,0.0,0.0,0.0,0.0,0.0,0.0,0.0,0.0,0.0,1.4629,1.4756,1.5451,1.5717,1.5868,1.6535,1.7286,1.8087,1.9105,1.9678,2.0123,2.0717,2.03,1.968,1.9602,1.8389,1.7049,1.6411,1.5683,1.4931,1.4364,1.4028,1.3758,1.341,1.3391,1.3223,1.2617,1.2931,1.3222,1.3098,1.3112,1.3207,1.3391,1.3419,1.358,1.4,1.4203,1.4317,1.434,1.3972,1.3745,1.3745,1.3731,1.3707,1.3688,1.3901,1.4109,1.4307,1.4493,1.47,1.4898,1.4898,1.4898,1.4898,1.4898,1.4964,1.5155,1.6435,1.7136,1.7555,2.0081,2.117,2.1391,2.263,2.3106,2.3175,2.3479,2.3635,2.3767,0.0,0.0,0.0,0.0,0.0,0.0,0.0,1.2736,1.27,1.27,1.263,1.2573,1.2573,1.2649,1.2544,0.0,0.0,0.0,0.0,0.0,0.0,0.0,0.0,0.0,0.0,0.0,1.1308,1.1547,1.1685,0.0,0.0,0.0,0.0,0.0,0.0,1.2973,1.3116,1.3458,0.0,0.0,0.0,0.0,0.0,0.0,0.0,0.0,0.0,0.0,1.4684,1.5213,1.5534,1.578,1.6261,1.6733,1.7358,1.8414,1.9288,1.9996,2.0464,2.0171,1.9706,1.9706,1.8194,1.6656,1.6452,1.5494,1.4558,1.434,1.4213,1.4018,1.3581,1.374,1.3632,1.2746,1.2995,1.3207,1.296,1.2913,1.2994,1.3202,1.334,1.3556,1.3972,1.4194,1.4312,1.4312,1.3925,1.3688,1.3688,1.3688,1.3688,1.3688,1.3773,1.392,1.4128,1.4336,1.4512,1.4719,1.4842,1.4898,1.4898,1.4898,1.4898,1.4931,1.5476,1.6213,1.7071,1.8197,1.9604,2.1139,2.1681,2.2379,2.3106,2.3261,2.3425,2.3635,0.0,0.0,0.0,0.0,0.0,0.0,1.2777,1.2736,1.27,1.27,1.27,1.27,1.27,1.2874,1.2904,1.2698,0.0,0.0,0.0,0.0,0.0,0.0,0.0,0.0,0.0,0.0,1.1709,1.1873,1.1967,1.2147,0.0,0.0,1.2492,1.2432,0.0,0.0,0.0,0.0,0.0,0.0,0.0,0.0,0.0,0.0,0.0,0.0,0.0,0.0,0.0,0.0,0.0,1.5629,1.6063,1.6353,1.6765,1.7834,1.8763,1.9527,1.9988,1.9937,1.9636,1.9184,1.7826,1.6465,1.5916,1.5003,1.4274,1.4195,1.431,1.428,1.3816,1.4138,1.4149,1.3228,1.3277,1.3342,1.3086,1.2954,1.2937,1.3079,1.334,1.3618,1.3977,1.4194,1.4312,1.4312,1.3925,1.3688,1.3688,1.3688,1.3688,1.3688,1.3688,1.3792,1.401,1.4151,1.4295,1.4512,1.4715,1.4814,1.4814,1.4875,1.4898,1.4898,1.4898,1.5476,1.6435,1.727,1.8742,2.0569,2.136,2.2285,2.3106,2.3106,2.3261,2.3479,0.0,0.0,0.0,0.0,0.0,0.0,0.0,1.27,1.27,1.27,1.27,1.27,1.27,1.2692,1.2809,1.3068,0.0,0.0,0.0,0.0,0.0,0.0,0.0,0.0,0.0,0.0,1.2197,1.181,1.2131,1.2164,1.1915,1.2251,1.2254,1.2028,0.0,0.0,0.0,0.0,0.0,0.0,0.0,0.0,0.0,0.0,0.0,0.0,0.0,0.0,0.0,0.0,0.0,0.0,0.0,1.6206,1.6412,1.749,1.8055,1.847,1.9216,1.9654,1.9535,1.7927,1.7316,1.6608,1.4743,1.4298,1.422,1.3966,1.434,1.4599,1.4346,1.4739,1.4898,1.427,1.3969,1.3747,1.36,1.3295,1.3093,1.3093,1.3463,1.3769,1.3991,1.4194,1.4312,1.4312,1.3925,1.3688,1.3688,1.3688,1.3688,1.3688,1.3688,1.3792,1.401,1.4014,1.4083,1.4317,1.4502,1.4606,1.4611,1.4809,1.4898,1.4898,1.4898,1.4898,1.5127,1.785,1.9004,1.9291,2.2027,2.3074,2.3106,2.3106,2.3106,2.3137,0.0,0.0,0.0,0.0,0.0,0.0,0.0,1.27,1.27,1.27,1.27,1.27,1.27,1.27,1.2672,1.263,0.0,0.0,0.0,0.0,0.0,0.0,0.0,0.0,0.0,0.0,1.2679,1.2826,1.2431,1.2344,1.2583,1.2405,1.2429,1.2614,1.2745,1.3019,0.0,0.0,0.0,0.0,0.0,0.0,1.4296,0.0,0.0,0.0,0.0,0.0,0.0,0.0,0.0,0.0,0.0,0.0,0.0,1.6876,1.7477,1.8063,1.851,1.8566,1.8345,1.7823,1.661,1.5461,1.5238,1.4443,1.3839,1.4117,1.431,1.4401,1.4316,1.4594,1.4695,1.4273,1.4286,1.4118,1.3485,1.3285,1.3081,1.2667,1.3258,1.3773,1.3991,1.4295,1.4436,1.4322,1.4062,1.3844,1.3698,1.3688,1.3688,1.3688,1.3688,1.3721,1.3792,1.3939,1.4043,1.4109,1.4317,1.446,1.4606,1.4667,1.4771,1.4898,1.4898,1.4898,1.4964,1.5829,1.6759,1.7812,1.9604,2.0879,2.1839,2.2762,2.3106,2.3106,0.0,0.0,0.0,0.0,0.0,0.0,0.0,1.27,1.27,1.27,1.27,1.27,1.27,1.27,1.2656,1.252,0.0,0.0,0.0,0.0,0.0,0.0,0.0,0.0,0.0,1.3344,1.3162,1.326,1.2805,1.2681,1.2857,1.2605,1.2657,1.2934,1.2909,1.3115,0.0,0.0,0.0,0.0,0.0,0.0,1.4445,0.0,0.0,0.0,0.0,0.0,0.0,0.0,0.0,0.0,0.0,0.0,0.0,0.0,1.6841,1.7307,1.7779,1.787,1.7675,1.7104,1.6028,1.5059,1.4862,1.4124,1.3611,1.4063,1.4153,1.4177,1.428,1.4437,1.4555,1.4529,1.449,1.4249,1.3728,1.3517,1.322,1.2723,1.3273,1.3773,1.3991,1.4317,1.4422,1.4322,1.4123,1.3915,1.3703,1.3688,1.3688,1.3688,1.3688,1.3688,1.3688,1.3821,1.3892,1.3892,1.4099,1.4238,1.437,1.4446,1.4592,1.479,1.479,1.4832,0.0,1.5476,1.6208,1.7136,1.8492,1.9865,2.1202,2.2027,2.2661,2.3106,0.0,0.0,0.0,0.0,0.0,0.0,0.0,0.0,0.0,0.0,1.27,1.27,1.27,1.27,1.27,0.0,0.0,0.0,0.0,0.0,0.0,0.0,0.0,0.0,0.0,1.3821,1.3622,1.329,1.323,1.3098,1.292,1.2856,1.2949,1.3168,1.3029,1.3198,0.0,0.0,0.0,0.0,0.0,0.0,0.0,0.0,0.0,0.0,0.0,0.0,0.0,0.0,0.0,0.0,0.0,0.0,0.0,0.0,0.0,0.0,0.0,1.7424,1.73,1.5897,1.5499,1.5113,1.3796,1.3479,0.0,1.3876,1.3918,1.3984,1.425,1.4316,1.4497,1.5022,1.465,1.4263,1.4212,1.3811,1.342,1.3108,1.3429,1.374,1.3986,1.4194,1.4317,1.4331,1.4147,1.3939,1.3721,1.3698,1.3688,1.3688,1.3688,1.3688,1.3688,1.3688,1.3688,1.3693,1.3892,1.3996,1.4019,1.4203,1.4375,1.4578,1.4592,1.4705,1.4977,1.63,1.685,1.698,1.8326,1.9674,2.0816,2.1044,2.1902,2.2981,0.0,0.0,0.0,0.0,0.0,0.0,0.0,0.0,0.0,0.0,0.0,1.27,1.27,1.27,0.0,0.0,0.0,0.0,0.0,0.0,0.0,0.0,0.0,0.0,0.0,1.3962,1.3905,1.4117,1.3505,1.351,1.4093,1.3466,1.3752,1.4726,1.3992,1.3894,1.4258,0.0,0.0,0.0,0.0,0.0,0.0,0.0,0.0,0.0,1.5756,1.5815,0.0,0.0,0.0,0.0,0.0,0.0,0.0,0.0,1.6242,1.6238,1.6412,0.0,1.5986,1.512,1.4532,1.4028,0.0,1.3334,1.3382,1.4069,1.4045,1.3984,1.425,1.4473,1.4702,1.5059,1.5142,1.4963,1.4288,1.3318,1.273,1.2866,1.3089,1.3453,1.3958,1.4194,1.4347,1.4512,1.4328,1.4151,1.3948,1.3778,1.3688,1.3688,1.3688,1.3688,1.3688,1.3688,1.3688,1.3688,1.374,1.3849,1.4014,1.4062,1.4194,1.4397,1.4531,1.463,1.4714,1.519,1.5383,1.5541,1.692,1.7683,1.8224,2.0309,2.1297,2.1713,0.0,0.0,0.0,0.0,0.0,0.0,0.0,0.0,0.0,0.0,0.0,0.0,0.0,0.0,0.0,0.0,0.0,0.0,0.0,0.0,0.0,0.0,0.0,0.0,1.4396,1.4186,1.4282,1.4723,1.4294,1.4417,1.5083,1.4463,1.4661,1.5509,1.4801,1.4505,1.45,1.45,1.45,0.0,1.4693,0.0,0.0,0.0,0.0,0.0,1.6158,1.6149,0.0,1.5665,1.5722,1.6028,0.0,0.0,0.0,0.0,1.5996,1.5999,1.6158,1.6177,1.592,1.4943,1.4529,1.4155,1.3466,1.3202,1.3256,1.3827,1.3827,1.3809,1.4069,1.4443,1.4805,1.5065,1.533,1.5197,1.4325,1.3259,1.2597,1.2611,1.2913,1.3306,1.3811,1.4052,1.4267,1.4578,1.4493,1.4295,1.4029,1.3901,1.3792,1.3693,1.3688,1.3688,1.3688,1.3688,1.3688,1.3688,1.3688,1.375,1.3863,1.3863,1.3977,1.418,1.4267,1.437,1.4469,1.4677,1.4762,1.4836,1.5696,1.6435,1.7168,1.8672,1.9604,2.0341,0.0,0.0,0.0,0.0,0.0,0.0,0.0,0.0,0.0,0.0,0.0,0.0,0.0,0.0,0.0,0.0,0.0,0.0,0.0,0.0,0.0,0.0,0.0,1.4431,1.4396,1.4396,1.4592,1.4996,1.5061,1.5344,1.5785,1.5454,1.5441,1.5698,1.5421,1.5054,1.4595,1.453,1.4536,1.4638,1.4903,0.0,0.0,0.0,0.0,0.0,0.0,0.0,0.0,1.6,1.6101,1.6335,1.606,0.0,0.0,0.0,0.0,0.0,1.5984,1.6318,1.6299,1.502,1.4802,1.4572,1.3373,1.3069,1.3135,1.3479,1.3521,1.3622,1.3966,1.4382,1.4805,1.5065,1.5176,1.5013,1.4298,1.3367,1.2663,1.248,1.2772,1.3202,1.3688,1.3873,1.4161,1.4611,1.462,1.4446,1.4097,1.4017,1.3925,1.3745,1.3707,1.3688,1.3688,1.3688,1.3688,1.3688,1.3688,1.3688,1.3688,1.3688,1.3788,1.3962,1.3996,1.4109,1.4279,1.4465,1.455,1.4568,1.4738,1.5559,1.6668,1.6861,1.7687,1.8876,0.0,0.0,0.0,0.0,0.0,0.0,0.0,0.0,0.0,0.0,0.0,0.0,0.0,0.0,0.0,0.0,0.0,0.0,0.0,0.0,0.0,0.0,1.4926,1.457,1.4396,1.4396,1.444,1.4517,1.492,1.5344,1.5809,1.5733,1.5566,1.5303,1.5642,1.5526,1.5069,1.466,1.4734,1.5054,1.4734,0.0,0.0,0.0,0.0,0.0,0.0,0.0,0.0,1.6359,1.6482,1.679,1.6753,0.0,0.0,0.0,0.0,0.0,1.5429,1.5764,1.595,1.4944,1.4306,1.3775,1.322,1.2918,1.2976,1.3701,1.367,1.3714,1.4437,1.4636,1.4805,1.5065,1.4524,1.4085,1.4191,1.3199,1.2517,1.2729,1.2611,1.2885,1.3868,1.3825,1.4057,1.4795,1.4696,1.4573,1.4512,1.4203,1.3996,1.3962,1.3783,1.3688,1.3688,1.3688,1.3688,1.3688,1.3688,1.3688,1.3688,1.3688,1.3707,1.375,1.3934,1.4029,1.4076,1.4274,1.4359,1.4364,1.4397,1.4642,1.512,1.6313,1.6973,1.749,0.0,0.0,0.0,0.0,0.0,0.0,0.0,0.0,0.0,0.0,0.0,0.0,0.0,0.0,0.0,0.0,0.0,0.0,0.0,0.0,0.0,1.5277,1.5051,1.4811,1.4569,1.4454,1.4516,1.4778,1.5245,1.5713,1.6179,1.6472,1.6374,1.5974,1.6175,1.5888,1.5191,1.4966,1.4858,1.4799,0.0,0.0,0.0,0.0,0.0,0.0,0.0,0.0,0.0,0.0,1.6752,1.6856,1.6639,0.0,0.0,0.0,0.0,0.0,1.5335,1.5276,1.5184,1.4552,1.4249,1.3985,1.3436,1.3322,1.3417,1.3646,1.3827,1.4051,1.4425,1.4733,1.5059,1.5469,1.4679,1.4072,1.418,1.3302,1.2611,1.2592,1.2606,1.2852,1.3472,1.3643,1.3939,1.4521,1.4691,1.4715,1.4606,1.4422,1.4215,1.4019,1.3915,1.3807,1.3688,1.3688,1.3688,1.3688,1.3688,1.3688,1.3688,1.3688,1.3688,1.3723,1.3792,1.384,1.3854,1.4062,1.4147,1.4161,1.427,1.4369,1.4522,1.517,1.6349,1.7768,0.0,0.0,0.0,0.0,0.0,0.0,0.0,0.0,0.0,0.0,0.0,0.0,0.0,0.0,0.0,0.0,0.0,0.0,0.0,0.0,1.5626,1.521,1.5131,1.4949,1.465,1.4488,1.4625,1.5093,1.5571,1.6105,1.671,1.7106,1.7057,1.6599,1.6599,1.6132,1.5366,1.5366,1.5098,1.4669,0.0,0.0,0.0,0.0,0.0,0.0,0.0,0.0,0.0,0.0,0.0,0.0,0.0,0.0,0.0,1.5908,1.5956,1.5917,1.5178,1.4875,1.4647,1.4015,1.3963,1.397,1.3596,1.367,1.3768,1.369,1.4069,1.4413,1.4473,1.4823,1.524,1.5644,1.4798,1.4132,1.4186,1.3347,1.263,1.2433,1.2587,1.2819,1.307,1.3387,1.3717,1.4133,1.4474,1.4616,1.4465,1.4498,1.438,1.409,1.4007,1.3934,1.3764,1.3712,1.3688,1.3688,1.3688,1.3688,1.3688,1.3688,1.3688,1.3688,1.3688,1.3688,1.3703,1.3868,1.3939,1.3953,1.4104,1.4194,1.4246,1.4293,1.5566,1.7305,0.0,0.0,0.0,0.0,0.0,0.0,0.0,0.0,0.0,0.0,0.0,0.0,0.0,0.0,0.0,0.0,0.0,0.0,0.0,0.0,1.5703,1.548,1.5232,1.4892,1.4431,1.4419,1.4625,1.5093,1.5571,1.6293,1.7237,1.7281,1.7057,1.6599,1.6599,1.6328,1.5845,1.5845,1.5584,1.5176,1.5559,0.0,0.0,0.0,0.0,0.0,0.0,0.0,0.0,0.0,0.0,0.0,0.0,0.0,1.5892,1.617,1.6003,1.5533,1.453,1.4664,1.4772,1.3483,1.3005,1.2957,1.3399,1.3503,1.3653,1.4141,1.4479,1.4763,1.5004,1.5083,1.5119,1.5155,1.4403,1.3922,1.4164,1.3184,1.2428,1.2387,1.2428,1.2621,1.3055,1.3122,1.3311,1.3703,1.3948,1.4071,1.4026,1.4232,1.4322,1.4288,1.4109,1.4005,1.3991,1.3788,1.3688,1.3688,1.3688,1.3688,1.3688,1.3688,1.3688,1.3688,1.3688,1.3688,1.3688,1.3707,1.3712,1.3712,1.3731,1.3854,1.4026,1.4241,1.4433,1.4589,0.0,0.0,0.0,0.0,0.0,0.0,0.0,0.0,0.0,0.0,0.0,0.0,0.0,0.0,0.0,0.0,0.0,0.0,0.0,0.0,1.5715,1.5513,1.5244,1.4937,1.4581,1.4454,1.4625,1.5093,1.5854,1.6598,1.7306,1.7306,1.7211,1.7043,1.7043,1.6752,1.6277,1.6277,1.5992,1.552,1.5679,1.5775,0.0,0.0,0.0,0.0,0.0,0.0,0.0,0.0,1.6908,1.6856,1.6613,1.6342,1.6094,1.5965,1.5546,1.4971,1.4175,1.409,1.4015,1.3077,1.2894,1.3081,1.3634,1.402,1.4268,1.4292,1.4781,1.5185,1.5119,1.5372,1.5541,1.5378,1.489,1.4474,1.4239,1.3472,1.2822,1.2441,1.2414,1.2475,1.2658,1.2942,1.316,1.3321,1.3618,1.3868,1.4005,1.4085,1.4123,1.4123,1.4052,1.3948,1.3811,1.3731,1.3688,1.3688,1.3688,1.3688,1.3688,1.3688,1.3688,1.3688,1.3688,1.3688,1.3688,1.3688,1.3688,1.3688,1.3688,1.374,1.3821,1.3896,1.4432,1.514,0.0,0.0,0.0,0.0,0.0,0.0,0.0,0.0,0.0,0.0,0.0,0.0,0.0,0.0,0.0,0.0,0.0,0.0,0.0,1.5803,1.5715,1.5513,1.5244,1.4971,1.4708,1.4643,1.4843,1.5322,1.6282,1.694,1.7306,1.7306,1.7306,1.7292,1.7279,1.6969,1.6523,1.6815,1.6467,1.573,1.6182,1.6335,0.0,0.0,0.0,0.0,0.0,0.0,0.0,0.0,1.6908,1.6839,1.6438,1.6236,1.6057,1.5667,1.5226,1.4754,1.4076,1.3857,1.3694,1.3092,1.3021,1.3238,1.3785,1.4256,1.4576,1.4558,1.5059,1.5445,1.5264,1.5523,1.5704,1.5529,1.5082,1.4633,1.425,1.3527,1.2849,1.2441,1.2414,1.2414,1.2414,1.2701,1.2866,1.2866,1.3197,1.3491,1.3613,1.3745,1.3844,1.3906,1.391,1.3873,1.3792,1.3721,1.3688,1.3688,1.3688,1.3688,1.3688,1.3688,1.3688,1.3688,1.3688,1.3688,1.3688,1.3688,1.3688,1.3688,1.3688,1.3688,1.3688,1.3688,1.4252,1.5037,0.0,0.0,0.0,0.0,0.0,0.0,0.0,0.0,0.0,0.0,0.0,0.0,0.0,0.0,0.0,0.0,0.0,0.0,1.5731,1.5803,1.5715,1.5513,1.5244,1.4983,1.4719,1.4972,1.5344,1.5809,1.6809,1.7306,1.7306,1.7306,1.7306,1.73,1.7242,1.6951,1.6568,1.7497,1.7061,1.5847,1.7236,1.7182,1.635,0.0,0.0,0.0,0.0,0.0,0.0,0.0,1.6891,1.6821,1.6412,1.6053,1.571,1.5303,1.5145,1.4939,1.4278,1.4084,1.3985,1.3599,1.3292,1.3244,1.3791,1.4111,1.4455,1.5004,1.5318,1.5499,1.5499,1.5499,1.5499,1.5499,1.4764,1.4223,1.4196,1.3169,1.2414,1.2414,1.2414,1.2414,1.2414,1.2414,1.2414,1.2414,1.2639,1.2795,1.2795,1.3188,1.3505,1.3674,1.3684,1.3788,1.4,1.3792,1.3688,1.3688,1.3688,1.3688,1.3688,1.3688,1.3688,1.3688,1.3688,1.3688,1.3688,1.3688,1.3688,1.3688,1.3688,1.3688,1.3688,1.3688,1.3688,1.3688,0.0,0.0,0.0,0.0,0.0,0.0,0.0,0.0,0.0,0.0,0.0,0.0,0.0,0.0,0.0,0.0,0.0,0.0,1.5755,1.5803,1.577,1.5715,1.5323,1.5062,1.4983,1.5388,1.5822,1.6291,1.6975,1.7306,1.7306,1.7306,1.7306,1.7314,1.7611,1.766,1.7502,1.7736,1.7553,1.7116,1.7147,1.6999,1.6709,0.0,0.0,0.0,0.0,0.0,0.0,0.0,0.0,0.0,1.6,1.57,1.5267,1.4732,1.4227,1.3705,1.3071,1.3156,1.331,1.302,1.3308,1.369,1.387,1.4238,1.4799,1.5511,1.5572,1.5499,1.5499,1.565,1.5716,1.5529,1.5088,1.4627,1.425,1.3527,1.2876,1.2441,1.2414,1.2414,1.2414,1.2414,1.2414,1.2414,1.247,1.2602,1.279,1.2913,1.3074,1.3273,1.3278,1.3311,1.3373,1.3463,1.348,1.348,1.3622,1.3688,1.3688,1.3688,1.3688,1.3688,1.3688,1.3688,1.3688,1.3688,1.3688,1.3688,1.3688,1.3688,1.3688,1.3688,1.3688,1.3688,0.0,0.0,0.0,0.0,0.0,0.0,0.0,0.0,0.0,0.0,0.0,0.0,0.0,0.0,0.0,0.0,0.0,0.0,0.0,0.0,1.5759,1.5681,1.5486,1.5472,1.5654,1.5931,1.6312,1.6819,1.7139,1.7306,1.7306,1.7306,1.7306,1.7314,1.7568,1.7565,1.7359,1.7678,1.755,1.7147,1.7196,1.7089,1.6856,0.0,0.0,0.0,0.0,0.0,0.0,0.0,0.0,0.0,1.5604,1.5391,1.5093,1.4581,1.4046,1.356,1.3277,1.3227,1.3268,1.3326,1.3622,1.399,1.431,1.4636,1.5065,1.5753,1.5765,1.5656,1.5656,1.5783,1.5757,1.5364,1.4965,1.4579,1.425,1.3689,1.3179,1.2794,1.2767,1.2659,1.2409,1.2414,1.2414,1.2414,1.2414,1.247,1.263,1.2635,1.2762,1.297,1.2975,1.3018,1.3093,1.3226,1.3287,1.3292,1.3471,1.357,1.357,1.3651,1.3688,1.3688,1.3688,1.3688,1.3688,1.3688,1.3688,1.3688,1.3688,1.3688,1.3688,1.3688,1.3688,1.3688,0.0,0.0,0.0,0.0,0.0,0.0,0.0,0.0,0.0,0.0,0.0,0.0,0.0,0.0,0.0,0.0,0.0,0.0,0.0,0.0,1.5715,1.5513,1.5683,1.5981,1.6437,1.6489,1.6765,1.7306,1.7306,1.7306,1.7306,1.7306,1.7306,1.73,1.7328,1.7063,1.6678,1.7506,1.7307,1.6505,1.729,1.735,1.6859,1.6492,0.0,0.0,0.0,0.0,0.0,0.0,0.0,0.0,1.5258,1.5151,1.5067,1.4599,1.4304,1.4125,1.4225,1.3902,1.3641,1.4141,1.4099,1.4147,1.4932,1.5107,1.5258,1.5783,1.5891,1.5891,1.5891,1.5891,1.5705,1.5095,1.4546,1.4169,1.4062,1.3608,1.3288,1.3207,1.3261,1.3071,1.255,1.2436,1.2414,1.2414,1.2414,1.2414,1.2414,1.2414,1.2503,1.2762,1.2767,1.2852,1.3036,1.306,1.307,1.307,1.3287,1.3372,1.3395,1.3599,1.3688,1.3688,1.3688,1.3688,1.3688,1.3688,1.3688,1.3688,1.3688,1.3688,1.3688,1.3688,1.3688,1.3688,0.0,0.0,0.0,0.0,0.0,0.0,0.0,0.0,0.0,0.0,0.0,0.0,0.0,0.0,0.0,0.0,0.0,0.0,0.0,0.0,1.5715,1.5513,1.5531,1.5687,1.5942,1.6302,1.6765,1.7306,1.7306,1.7306,1.7306,1.7306,1.7306,1.7325,1.8064,1.8087,1.7631,1.8143,1.7983,1.7387,1.7156,1.6995,1.6875,1.6745,1.6568,0.0,0.0,0.0,0.0,0.0,0.0,0.0,1.4758,1.4731,1.4576,1.3813,1.3831,1.3947,1.3242,1.3428,1.3851,1.396,1.4099,1.437,1.4974,1.5107,1.5258,1.5783,1.5891,1.5891,1.5891,1.5891,1.5705,1.5095,1.4546,1.3873,1.2925,1.3066,1.3125,1.2659,1.3012,1.3261,1.3125,1.2686,1.2414,1.2414,1.2414,1.2414,1.2414,1.2414,1.2433,1.248,1.2484,1.2503,1.2546,1.2748,1.2861,1.2861,1.307,1.3254,1.3395,1.3599,1.3688,1.3688,1.3688,1.3688,1.3688,1.3688,1.3688,1.3688,1.3688,1.3688,1.3688,1.3688,1.3688,1.3688,0.0,0.0,0.0,0.0,0.0,0.0,0.0,0.0,0.0,0.0,0.0,0.0,0.0,0.0,0.0,0.0,0.0,0.0,0.0,0.0,0.0,1.5499,1.5383,1.5569,1.6116,1.6367,1.6765,1.7306,1.7306,1.7306,1.7306,1.7306,1.7306,1.7325,1.8057,1.7931,1.7282,1.8096,1.7983,1.7263,1.7207,1.7265,1.7315,1.6761,1.655,1.643,1.5707,0.0,0.0,0.0,0.0,0.0,0.0,0.0,1.4478,1.3858,1.3705,1.3654,1.3358,1.3376,1.3599,1.4002,1.4195,1.4437,1.4986,1.5107,1.5258,1.5783,1.5678,1.5571,1.5838,1.5458,1.5057,1.5009,1.431,1.3743,1.3657,1.3689,1.3716,1.3657,1.3689,1.3608,1.3342,1.274,1.2414,1.2414,1.2414,1.2414,1.2414,1.2659,1.2713,1.2414,1.2952,1.298,1.2414,1.2829,1.2887,1.2611,1.2852,1.3117,1.3395,1.3599,1.3688,1.3688,1.3688,1.3688,1.3688,1.3688,1.3688,1.3688,1.3688,1.3688,1.3688,1.3688,1.3688,1.3688,0.0,0.0,0.0,0.0,0.0,0.0,0.0,0.0,0.0,0.0,0.0,0.0,0.0,0.0,0.0,0.0,0.0,0.0,0.0,0.0,0.0,1.536,1.5272,1.5571,1.6356,1.6555,1.6839,1.7239,1.7239,1.725,1.7222,1.7312,1.74,1.7466,1.7873,1.7539,1.6748,1.7802,1.7699,1.6841,1.722,1.7514,1.7612,1.6721,1.6516,1.6564,1.5632,1.5299,1.5234,1.4842,0.0,0.0,0.0,0.0,1.4474,1.407,1.3605,1.3278,1.3604,1.3461,1.3406,1.4123,1.4298,1.4437,1.4986,1.5107,1.5258,1.5783,1.541,1.5169,1.5785,1.4976,1.4358,1.4794,1.4067,1.3716,1.4444,1.4444,1.4466,1.4821,1.4466,1.4008,1.3499,1.2822,1.2414,1.2414,1.2414,1.2441,1.255,1.3044,1.312,1.2708,1.3678,1.3705,1.2708,1.3202,1.3202,1.2708,1.2963,1.3201,1.3432,1.3676,1.3745,1.3688,1.3688,1.3688,1.3688,1.3688,1.3688,1.3688,1.3688,1.3688,1.3688,1.3688,1.3688,1.3688,0.0,0.0,0.0,0.0,0.0,0.0,0.0,0.0,0.0,0.0,1.6077,0.0,0.0,0.0,0.0,0.0,0.0,0.0,1.5803,0.0,0.0,1.482,1.5378,1.5767,1.5885,1.6754,1.7135,1.7039,1.7039,1.698,1.6885,1.7395,1.7789,1.8084,1.8209,1.7932,1.7378,1.7604,1.7353,1.6814,1.6865,1.6908,1.6928,1.6797,1.654,1.6225,1.5795,1.5636,1.5586,1.525,1.5319,0.0,0.0,0.0,1.4216,1.3584,1.3148,1.2881,1.2851,1.3326,1.3882,1.4214,1.4298,1.4437,1.4986,1.5107,1.5258,1.5783,1.541,1.5169,1.5785,1.4976,1.4218,1.4304,1.4169,1.3765,1.2871,1.3981,1.474,1.4358,1.425,1.4169,1.4089,1.3061,1.2414,1.2414,1.2414,1.2631,1.3152,1.3261,1.3499,1.3954,1.4116,1.4116,1.3954,1.4035,1.4035,1.3954,1.417,1.4035,1.3605,1.3957,1.3957,1.3688,1.3688,1.3688,1.3688,1.3688,1.3688,1.3688,1.3688,1.3688,1.3688,1.3688,1.3688,1.3688,0.0,0.0,0.0,0.0,0.0,0.0,0.0,0.0,0.0,0.0,0.0,1.5869,0.0,0.0,0.0,1.5803,1.5803,1.5801,1.5799,1.5761,1.5596,1.5327,1.5632,1.5918,1.6182,1.662,1.689,1.6997,1.6997,1.7024,1.7081,1.758,1.7685,1.7497,1.8057,1.7772,1.6927,1.7442,1.7326,1.6804,1.6832,1.7062,1.7287,1.6681,1.6357,1.6158,1.582,1.5574,1.543,1.547,1.5454,1.5399,1.5247,0.0,0.0,0.0,1.2852,1.2408,1.2643,1.329,1.3966,1.4232,1.4298,1.4437,1.4986,1.5107,1.5155,1.5358,1.5169,1.5089,1.5357,1.4734,1.4304,1.4606,1.4412,1.425,1.4353,1.4191,1.4326,1.5051,1.3975,1.3467,1.4142,1.3115,1.2414,1.2414,1.2713,1.3012,1.3288,1.391,1.4229,1.4196,1.4815,1.4842,1.4223,1.4498,1.4498,1.4196,1.4277,1.4264,1.4126,1.4427,1.4187,1.3528,1.3641,1.3688,1.3688,1.3688,1.3688,1.3688,1.3688,1.3688,1.3688,1.3688,1.3688,1.3748,0.0,0.0,0.0,0.0,0.0,0.0,0.0,0.0,0.0,0.0,0.0,0.0,0.0,0.0,0.0,0.0,1.6131,1.6044,1.5905,1.6082,1.6081,1.5811,1.5907,1.6138,1.65,1.658,1.6724,1.6941,1.6913,1.6963,1.7087,1.7414,1.7247,1.6712,1.7641,1.7492,1.6545,1.7083,1.7058,1.6661,1.6779,1.7118,1.7413,1.654,1.6242,1.6257,1.5852,1.5597,1.5486,1.5645,1.5534,1.53,1.5056,1.4393,0.0,0.0,0.0,1.217,1.2595,1.3194,1.3739,1.3945,1.41,1.4286,1.4616,1.4802,1.4893,1.4986,1.5014,1.5014,1.5014,1.4546,1.4385,1.4901,1.4654,1.4708,1.5544,1.467,1.4455,1.5752,1.4218,1.3359,1.4142,1.3386,1.279,1.2631,1.3202,1.3586,1.3716,1.453,1.4901,1.4654,1.5458,1.5485,1.4654,1.503,1.503,1.4621,1.4621,1.4619,1.4647,1.4882,1.4554,1.3786,1.3901,1.3833,1.3688,1.3688,1.3688,1.3688,1.3688,1.3688,1.3718,1.3863,1.3923,1.4013,0.0,0.0,0.0,0.0,0.0,0.0,0.0,0.0,0.0,0.0,0.0,0.0,1.6559,1.7015,1.7327,1.7327,1.7085,1.6716,1.6213,1.6185,1.6081,1.5811,1.6225,0.0,1.65,1.681,1.6919,1.6807,1.6669,1.6563,1.645,1.6596,1.6443,1.609,1.7021,1.7206,1.6754,1.6426,1.6261,1.6258,1.6592,1.6738,1.6726,1.6337,1.6392,1.6599,1.592,1.588,1.6103,1.5804,1.5685,1.5518,1.4641,1.3912,1.3294,0.0,0.0,0.0,1.262,1.2928,1.315,1.3159,1.3543,1.3868,1.3623,1.393,1.4393,1.4906,1.5014,1.5014,1.5014,1.4546,1.4385,1.4901,1.4987,1.4982,1.5041,1.5464,1.5811,1.5891,1.5277,1.4686,1.425,1.4142,1.3878,1.3288,1.3824,1.4385,1.4874,1.4961,1.525,1.5779,1.5865,1.5865,1.5811,1.5838,1.5838,1.5811,1.5811,1.5523,1.4989,1.52,1.5116,1.4815,1.4619,1.4217,1.3688,1.3688,1.3688,1.3688,1.3688,1.3688,1.3778,1.4336,1.454,1.4659,0.0,0.0,0.0,0.0,0.0,0.0,0.0,0.0,0.0,0.0,0.0,0.0,0.0,1.7036,1.7057,1.6836,1.6885,1.6846,1.6662,1.6806,1.6862,1.6778,1.6918,1.6953,1.6821,1.6939,1.6884,1.668,1.6932,1.6714,1.6098,1.6737,1.658,1.5765,1.642,1.635,1.5766,1.5632,1.5674,1.5892,1.5999,1.6468,1.704,1.6662,1.677,1.7048,1.6814,1.6512,1.6222,1.6297,1.565,1.4732,1.4404,1.3587,1.2637,1.2017,1.2056,1.231,1.2427,1.2762,1.3139,1.3311,1.364,1.3856,1.3731,1.3959,1.4259,1.4447,1.4767,1.5014,1.5014,1.5164,1.5223,1.5035,1.533,1.5571,1.5571,1.5137,1.5083,1.5811,1.4729,1.4002,1.4191,1.4196,1.3954,1.3342,1.4175,1.4794,1.4982,1.5357,1.5678,1.5891,1.5891,1.5891,1.5891,1.5891,1.5891,1.5891,1.5891,1.5785,1.5577,1.5831,1.576,1.5428,1.5508,1.5333,1.4913,1.4913,1.4913,1.4913,1.4913,1.4913,1.4942,1.5145,1.5235,1.5324,0.0,0.0,0.0,0.0,0.0,0.0,0.0,0.0,0.0,0.0,0.0,0.0,0.0,0.0,1.7244,1.6937,1.7068,1.7124,1.7041,1.72,1.7306,1.7306,1.7239,1.7145,1.6997,1.7073,1.7016,1.684,1.7239,1.72,1.6743,1.6873,1.6603,1.6035,1.5812,1.5598,1.5367,1.5367,1.5629,1.6039,1.6186,1.6727,1.7435,1.7175,1.7231,1.7445,1.7188,1.6708,1.6159,1.6135,1.5342,1.4323,1.4021,1.316,1.2149,1.1758,1.1948,1.231,1.24,1.2689,1.2983,1.3091,1.3377,1.3618,1.3579,1.383,1.4137,1.4404,1.474,1.5062,1.525,1.5624,1.5785,1.5357,1.5651,1.5891,1.5891,1.5244,1.5057,1.5811,1.489,1.4239,1.4439,1.4654,1.4519,1.391,1.4767,1.5303,1.5303,1.5678,1.5891,1.5891,1.5891,1.5891,1.5891,1.5891,1.5891,1.5891,1.5891,1.5891,1.5924,1.6066,1.6071,1.5915,1.6182,1.6032,1.5601,1.5601,1.5601,1.5601,1.5601,1.5601,1.5626,1.5833,1.5893,1.5981,0.0,0.0,0.0,0.0,0.0,0.0,0.0,0.0,0.0,1.7091,0.0,0.0,0.0,0.0,0.0,1.7734,1.7709,1.7573,1.7306,1.7292,1.7292,1.7314,1.7113,1.7018,1.704,1.7234,1.733,1.733,1.7599,1.7946,1.8332,1.6883,1.6437,1.6777,1.5267,1.5012,1.5693,1.5685,1.6071,1.6726,1.7111,1.749,1.7809,1.7809,1.7816,1.7737,1.7,1.646,1.5977,1.5253,1.4772,1.4302,1.346,1.2591,1.1912,1.1912,1.2099,1.2379,0.0,0.0,0.0,1.2373,1.2712,1.31,1.3081,1.346,1.401,1.4805,1.5003,1.5169,1.5785,1.5891,1.5891,1.5891,1.5891,1.5891,1.5891,1.5891,1.5891,1.5891,1.5891,1.5651,1.5062,1.5544,1.5651,1.5035,1.5571,1.5891,1.5891,1.5891,1.5891,1.5891,1.5891,1.5891,1.5891,1.5891,1.5891,1.5891,1.5891,1.5891,1.5891,1.5891,1.6063,1.6323,1.6579,1.631,1.565,1.5655,1.5655,1.5655,1.5655,1.5655,1.5715,1.6301,1.6537,1.6626,0.0,0.0,0.0,0.0,0.0,0.0,0.0,0.0,0.0,0.0,0.0,0.0,1.8129,1.7751,1.762,1.7884,1.7602,1.7323,1.7092,1.7078,1.7197,1.7434,1.739,1.7452,1.7647,1.8044,1.8192,1.8103,1.8224,1.8076,1.7663,1.6714,1.6053,1.5647,1.4915,1.5012,1.5685,1.5438,1.5721,1.6361,1.6718,1.7397,1.8152,1.8152,1.8311,1.842,1.7697,1.6914,1.6143,1.555,1.4571,1.3485,1.2981,1.254,1.2183,1.2183,1.237,1.2572,1.243,0.0,0.0,0.0,0.0,0.0,1.2789,1.3288,1.3913,1.435,1.4726,1.5169,1.5785,1.5891,1.5891,1.5891,1.5891,1.5891,1.5891,1.5891,1.5891,1.5891,1.5891,1.5651,1.5062,1.5544,1.5651,1.5035,1.5571,1.5891,1.5891,1.5891,1.5891,1.5891,1.5891,1.5891,1.5891,1.5891,1.5891,1.5891,1.5891,1.5891,1.5891,1.5891,1.6063,1.6323,1.6579,1.6695,1.6692,1.688,1.6985,1.6985,1.6985,1.6985,1.6979,1.7156,1.7214,1.725,0.0,0.0,0.0,0.0,0.0,0.0,0.0,0.0,0.0,0.0,0.0,0.0,1.8578,1.8065,1.7799,1.7901,1.7593,1.732,1.7223,1.7391,1.7679,1.8064,1.7998,1.8038,1.8192,1.8406,1.8333,1.7942,1.8178,1.8008,1.7432,0.0,1.6183,1.5924,1.5332,1.53,1.5709,1.5785,1.623,1.6873,1.708,1.7707,1.8518,1.8518,1.8416,1.8218,1.7613,1.6816,1.5955,1.5368,1.435,1.327,1.2948,1.262,1.2292,1.2292,1.24,1.2509,1.2487,1.2584,1.2705,1.2705,0.0,0.0,1.3257,1.3664,1.4177,1.478,1.5168,1.5491,1.5838,1.5891,1.5891,1.5891,1.5891,1.5891,1.5891,1.5891,1.5891,1.5891,1.5891,1.5758,1.541,1.5678,1.5758,1.541,1.5705,1.5891,1.5891,1.5891,1.5891,1.5891,1.5891,1.5891,1.5891,1.5891,1.5891,1.5891,1.5891,1.5891,1.5891,1.5891,1.6003,1.616,1.6404,1.6682,1.6948,1.7213,1.7411,1.7514,1.7514,1.7514,1.7514,1.7514,1.7514,1.7514,0.0,0.0,0.0,0.0,0.0,0.0,0.0,0.0,0.0,0.0,1.9865,1.9545,1.8833,1.8577,1.8319,1.8024,1.7828,1.7724,1.7694,1.8086,1.8495,1.8903,1.8748,1.8657,1.8657,1.8586,1.8224,1.7576,0.0,0.0,0.0,0.0,0.0,0.0,1.6054,1.5717,1.5796,1.6384,1.7096,1.7793,1.7793,1.8168,1.8749,1.8696,1.8226,1.7564,1.7045,1.6341,1.5516,1.4845,1.4129,1.3491,1.3232,1.2834,1.2481,1.24,1.2424,1.2515,1.2741,1.2771,1.2747,1.2747,1.2729,0.0,1.3906,1.4165,1.4479,1.5433,1.5674,1.5716,1.5716,1.5716,1.5716,1.5716,1.5765,1.5825,1.5879,1.5891,1.5891,1.5891,1.5891,1.5891,1.5891,1.5891,1.5891,1.5891,1.5891,1.5891,1.5891,1.5891,1.5891,1.5891,1.5891,1.5891,1.5891,1.5891,1.5891,1.5891,1.5891,1.5891,1.5891,1.5891,1.5891,1.5903,1.6196,1.645,1.6676,1.6972,1.7272,1.7514,1.7514,1.7514,1.7514,1.7514,1.7514,1.7514,0.0,0.0,0.0,0.0,0.0,0.0,0.0,0.0,2.0432,2.0095,1.9649,1.9282,1.9122,1.8922,1.8929,1.9228,1.9158,1.905,1.8958,1.9026,1.9071,1.9056,1.9023,1.9007,1.9007,1.9353,0.0,0.0,0.0,0.0,0.0,0.0,0.0,1.6342,1.5897,1.5852,1.6111,1.6246,1.6873,1.7793,1.7793,1.8047,1.8362,1.798,1.7769,1.7549,1.6429,1.5641,1.502,1.4299,1.396,1.3785,1.3497,1.3491,1.3491,1.3069,1.3244,1.3562,1.3376,1.3183,1.3021,1.3021,1.2852,0.0,1.2964,1.3357,1.3725,1.3936,1.431,1.4606,1.4606,1.4606,1.4606,1.4606,1.4974,1.5409,1.5831,1.5891,1.5891,1.5891,1.5891,1.5891,1.5891,1.5891,1.5891,1.5891,1.5891,1.5891,1.5891,1.5891,1.5891,1.5891,1.5891,1.5891,1.5891,1.5891,1.5891,1.5891,1.5891,1.5891,1.5891,1.5891,1.5891,1.5903,1.6196,1.6341,1.6426,1.6893,1.7272,1.7514,1.7514,1.7514,1.7514,1.7514,1.7514,1.7514,1.998,2.0036,0.0,0.0,0.0,0.0,0.0,0.0,2.1046,2.086,2.0702,2.0464,2.0127,2.0341,2.04,2.0164,2.0029,1.9832,1.9573,1.9743,1.992,2.0096,1.9531,1.9301,1.9497,1.8907,0.0,0.0,0.0,0.0,0.0,0.0,1.6301,1.644,1.6265,1.6404,1.6754,1.6934,1.7212,1.754,1.7338,1.7633,1.8117,1.7532,1.716,1.6867,1.6234,1.5511,1.4783,1.443,1.4021,1.3713,1.3713,1.3622,1.3467,1.3334,1.3485,1.3629,1.337,1.3202,1.3069,1.293,1.2807,0.0,0.0,1.332,1.3592,1.3851,1.4117,1.4298,1.4298,1.4298,1.4298,1.4298,1.4757,1.5107,1.5095,1.5553,1.5891,1.5891,1.5891,1.5891,1.5891,1.5891,1.5891,1.5891,1.5891,1.5891,1.5891,1.5891,1.5891,1.5891,1.5891,1.5891,1.5891,1.5891,1.5891,1.5891,1.5891,1.5891,1.5891,1.5891,1.5891,1.5924,1.603,1.619,1.6341,1.6724,1.705,1.7298,1.746,1.7514,1.7514,1.7514,1.7514,1.7514,2.0378,2.0321,0.0,0.0,0.0,0.0,0.0,0.0,2.1703,2.1748,2.1685,2.1428,2.0886,2.118,2.1109,2.0372,2.0246,2.0087,1.9824,2.0054,2.0389,2.0799,1.9773,1.9294,1.9553,1.8239,0.0,0.0,0.0,0.0,0.0,0.0,1.6402,1.6636,1.6665,1.6917,1.7323,1.7606,1.7587,1.7372,1.703,1.7378,1.8052,1.726,1.6685,1.6241,1.5943,1.532,1.4611,1.4611,1.4178,1.3659,1.3797,1.3623,1.3418,1.3479,1.3605,1.3665,1.34,1.3256,1.3123,1.2916,1.2783,1.2819,0.0,0.0,0.0,1.3906,1.399,1.399,1.399,1.399,1.4008,1.4063,1.4479,1.4666,1.428,1.501,1.5602,1.5656,1.5801,1.5867,1.5819,1.5813,1.5831,1.5885,1.5843,1.5837,1.5885,1.5891,1.5891,1.5891,1.5891,1.5891,1.5891,1.5891,1.5891,1.5891,1.5891,1.5891,1.5891,1.5891,1.5891,1.5891,1.5891,1.6012,1.6229,1.6507,1.6779,1.7044,1.7393,1.7514,1.7514,1.7514,1.7514,1.7514,2.1169,2.1135,2.1413,0.0,0.0,0.0,0.0,0.0,2.2038,2.2283,2.1143,2.0293,2.0206,1.9468,1.8945,1.8852,1.9256,1.96,1.9796,1.9611,1.9597,1.9764,1.9139,1.862,1.8304,1.8186,0.0,0.0,0.0,0.0,0.0,0.0,1.6499,1.6451,1.6568,1.6879,1.7302,1.7398,1.7585,1.7821,1.7659,1.7865,1.8168,1.7187,1.6707,1.6378,1.5009,1.4437,1.4346,1.4346,1.4286,1.4129,1.3701,1.3985,1.4376,1.3696,1.3997,1.4521,1.4244,1.3827,1.3443,1.3429,1.3061,1.2723,1.2783,0.0,1.2813,1.2874,0.0,1.2886,1.2886,0.0,0.0,1.3196,1.3485,1.3732,1.3924,1.4256,1.457,1.4823,1.5469,1.5801,1.5565,1.5547,1.5638,1.5873,1.5674,1.5644,1.5879,1.5891,1.5891,1.5891,1.5891,1.5891,1.5891,1.5891,1.5891,1.5891,1.5891,1.5891,1.5891,1.5891,1.5891,1.5891,1.5891,1.593,1.5985,1.6217,1.6495,1.6797,1.7292,1.7514,1.7514,1.7514,1.7514,1.7514,2.1772,2.1745,2.1894,2.2167,0.0,0.0,0.0,0.0,2.2126,2.073,2.0938,2.0946,2.0298,2.0331,2.0224,1.9804,1.9979,1.9985,1.9698,1.9576,1.9534,1.9597,1.8697,1.8196,1.8223,1.7565,0.0,0.0,1.7115,0.0,0.0,0.0,1.6678,1.6801,1.6812,1.7075,1.7495,1.7672,1.7742,1.778,1.8298,1.8492,1.8333,1.7054,1.6112,1.539,1.4593,1.4298,1.4298,1.4298,1.4195,1.4087,1.4183,1.4202,1.422,1.4196,1.434,1.4413,1.4141,1.402,1.3857,1.3376,1.3208,1.3069,1.2777,1.2705,1.2705,1.2705,0.0,0.0,0.0,0.0,0.0,0.0,1.3214,1.3418,1.3236,1.3833,1.434,1.4461,1.4908,1.5288,1.5481,1.5638,1.5771,1.5879,1.5789,1.5771,1.5885,1.5891,1.5891,1.5891,1.5891,1.5891,1.5891,1.5891,1.5891,1.5891,1.5891,1.5891,1.5891,1.5891,1.5891,1.5891,1.5891,1.5891,1.591,1.6202,1.6474,1.6736,1.7111,1.7346,1.7514,1.7514,1.7514,1.7514,2.1844,2.1955,2.2183,2.2542,2.2213,0.0,0.0,2.2517,2.175,1.9931,2.0667,2.1051,2.0225,2.0376,2.0316,1.977,1.9613,1.9363,1.8948,1.8845,1.8866,1.904,1.8131,1.7744,1.8,1.7166,1.68,1.698,1.6852,0.0,0.0,0.0,0.0,1.6991,1.698,1.7251,1.7713,1.7955,1.7992,1.7978,1.8879,1.8731,1.7882,1.6873,1.5662,1.4456,1.4346,1.4346,1.4413,1.4413,1.4334,1.4292,1.4593,1.4473,1.4298,1.4599,1.4599,1.4443,1.4105,1.4099,1.4014,1.328,1.3189,1.3194,1.2795,1.2705,1.2705,1.2705,1.2705,0.0,0.0,0.0,1.2729,1.2807,0.0,1.3181,1.284,1.3417,1.3888,1.3966,1.4256,1.4672,1.5125,1.5409,1.5596,1.5674,1.5741,1.5813,1.5885,1.5891,1.5891,1.5891,1.5891,1.5891,1.5891,1.5891,1.5891,1.5891,1.5891,1.5891,1.5891,1.5891,1.5891,1.5891,1.5891,1.5891,1.593,1.6124,1.6365,1.6616,1.6881,1.7141,1.7411,1.7455,1.7514,1.7514,2.1184,2.1558,2.2297,2.3209,2.2457,2.148,2.0791,2.069,2.0745,2.0915,2.025,1.975,1.9728,1.8403,1.7519,1.7511,1.7094,1.6933,1.7159,1.694,1.7039,1.7635,1.7372,1.7221,1.7236,1.7267,1.7158,1.6911,1.7158,1.7151,0.0,0.0,0.0,0.0,1.6861,1.7309,1.8009,1.8129,1.8387,1.8725,1.9353,1.8336,1.6477,1.6642,1.5533,1.395,1.4201,1.4473,1.4678,1.4678,1.484,1.5028,1.4793,1.4877,1.4997,1.4762,1.489,1.4968,1.4431,1.4105,1.3768,1.3238,1.2906,1.2729,1.2705,1.2705,1.2705,1.2705,1.2705,1.2705,1.2705,1.2705,1.2774,0.0,1.2876,0.0,0.0,1.2882,1.2856,1.3111,1.3593,1.4039,1.431,1.4594,1.4859,1.5113,1.5366,1.5626,1.5879,1.5891,1.5891,1.5891,1.5891,1.5891,1.5891,1.5891,1.5891,1.5891,1.5891,1.5891,1.5891,1.5891,1.5891,1.5891,1.5891,1.5891,1.5891,1.5897,1.6081,1.6347,1.6604,1.6875,1.7135,1.7388,1.7514,1.7514,2.1463,2.1459,2.159,2.1717,2.1327,2.0736,2.0033,2.0911,2.1141,1.9726,1.9905,1.9835,1.8996,1.8268,1.7789,1.7614,1.7454,1.7316,1.7233,1.7141,1.712,1.713,1.7216,1.7185,1.7001,1.7188,1.7251,1.7165,1.7085,1.6983,0.0,0.0,0.0,0.0,1.7071,1.7441,1.7884,1.8152,1.8334,1.8395,1.7935,1.6963,1.571,1.4901,1.4073,1.3372,1.3457,1.3884,1.4383,1.4383,1.4694,1.5125,1.5209,1.5179,1.5125,1.5209,1.5173,1.5071,1.4883,1.4896,1.4793,1.4081,1.3966,1.387,1.334,1.3081,1.2961,1.2961,1.281,1.2705,1.2705,1.2705,1.2735,0.0,1.2765,1.2735,0.0,1.2765,1.2741,1.281,1.332,1.3815,1.4256,1.4708,1.5083,1.5348,1.5608,1.5795,1.5885,1.5891,1.5891,1.5891,1.5891,1.5891,1.5891,1.5891,1.5891,1.5891,1.5891,1.5891,1.5891,1.5891,1.5891,1.5891,1.5891,1.5891,1.5891,1.5891,1.6069,1.6335,1.6592,1.6857,1.7123,1.7411,1.7514,1.7514,2.0761,2.0559,2.0592,2.0985,2.0744,2.0231,1.9432,2.0263,2.0448,1.8905,1.9305,1.9425,1.8621,1.8301,1.8111,1.8065,1.7866,1.7606,1.7317,1.7302,1.7186,1.6917,1.7157,1.7266,1.7224,1.7258,1.7361,1.7477,1.7179,1.7049,0.0,0.0,0.0,0.0,1.7214,1.7551,1.7999,1.8211,1.8206,1.7929,1.6458,1.5445,1.4654,1.3465,1.3212,1.3498,1.3283,1.3562,1.4099,1.4284,1.4656,1.513,1.5505,1.5523,1.5421,1.559,1.5517,1.5348,1.5161,1.5234,0.0,1.4473,1.4431,1.4407,1.3774,1.3503,1.3376,1.3376,1.3109,1.294,1.3218,1.2958,1.2771,0.0,0.0,1.2705,0.0,1.2705,1.2705,1.2705,1.3012,1.3435,1.3966,1.4419,1.4871,1.5324,1.5602,1.5795,1.5885,1.5891,1.5891,1.5891,1.5891,1.5891,1.5891,1.5891,1.5891,1.5891,1.5891,1.5891,1.5891,1.5891,1.5891,1.5891,1.5891,1.5891,1.5891,1.5891,1.5988,1.6169,1.6447,1.6712,1.6996,1.7381,1.7514,1.7514,1.9234,1.9006,1.9448,2.0925,2.0647,1.9894,1.8958,1.882,1.8736,1.8527,1.8512,1.8528,1.8584,1.835,1.8323,1.8644,1.8174,1.7682,1.7375,1.7339,1.7216,1.6961,1.7194,1.7477,1.7784,1.7485,1.7477,1.7792,1.7463,1.7302,0.0,0.0,0.0,0.0,1.7346,1.7704,1.8328,1.8328,1.8003,1.7312,1.5076,1.39,1.3436,1.2485,1.2997,1.4217,1.3563,1.3538,1.3862,1.4372,1.4709,1.5068,1.5678,1.5865,1.5865,1.5891,1.5891,1.5783,1.5282,1.5149,1.5022,1.4491,1.4358,1.4286,1.4026,1.3954,1.3948,1.3948,1.3515,1.3376,1.4123,1.3429,1.2904,1.337,1.3021,1.2705,1.2705,1.2705,1.2705,1.2705,1.2729,1.294,1.3424,1.3755,1.425,1.5028,1.5342,1.5614,1.5879,1.5879,1.5879,1.5891,1.5891,1.5891,1.5891,1.5891,1.5891,1.5891,1.5891,1.5891,1.5891,1.5891,1.5891,1.5891,1.5891,1.5891,1.5891,1.5891,1.5891,1.5942,1.6208,1.6453,1.6761,1.7292,1.7514,1.7514,1.9498,1.9118,1.8982,1.9375,1.9306,1.9096,1.885,1.8878,1.884,1.8535,1.8577,1.8556,1.8333,1.8286,1.8316,1.8397,1.825,1.8138,1.8057,1.7799,1.7631,1.7574,1.7624,1.7704,1.7792,1.7711,1.7704,1.7792,1.7463,1.7302,1.7309,0.0,0.0,1.7675,1.7923,1.8284,1.8664,1.8664,1.7776,1.6176,1.4399,1.3829,1.3891,1.2597,1.2989,1.406,1.2872,1.2856,1.3444,1.3579,1.3992,1.4493,1.5062,1.5223,1.533,1.5785,1.5891,1.5861,1.5728,1.5686,1.5608,1.5276,1.5191,1.5119,0.0,0.0,1.4485,1.4485,1.4232,1.3936,1.3749,1.3473,1.3218,1.2952,1.2795,1.2705,1.2705,1.2705,1.2705,1.2705,1.3061,1.3262,1.3208,1.3815,1.437,1.4762,1.524,1.5614,1.5879,1.5704,1.5686,1.5885,1.5891,1.5891,1.5891,1.5891,1.5891,1.5891,1.5891,1.5891,1.5891,1.5891,1.5891,1.5891,1.5891,1.5891,1.5891,1.5891,1.5891,1.5942,1.6208,1.6453,1.6761,1.7292,1.7514,1.7596,1.9307,1.9012,1.8804,1.8804,1.872,1.8682,1.8682,1.884,1.8799,1.8417,1.8428,1.842,1.8262,1.8145,1.8145,1.8291,1.8299,1.824,1.8101,1.7894,1.7792,1.7792,1.7792,1.7947,1.8233,1.8101,1.8028,1.8028,1.7821,1.766,1.7521,1.785,1.8028,1.8035,1.8218,1.8482,1.8763,1.8273,1.746,1.637,1.4921,1.4205,0.0,1.3288,1.3172,1.3312,1.2524,1.2508,1.2962,1.3207,1.3527,1.3905,1.4471,1.4659,1.4761,1.533,1.5517,1.5571,1.5838,1.5891,1.5855,1.5704,1.5668,1.5602,1.5342,1.5161,1.5059,1.5059,1.4751,1.4491,1.4545,1.4081,1.355,1.3127,1.2862,1.2747,1.2868,1.2762,1.2854,1.3308,1.324,1.3388,1.4008,1.431,1.4594,1.484,1.5161,1.539,1.5541,1.5517,1.5565,1.5716,1.5831,1.5891,1.5891,1.5891,1.5891,1.5891,1.5891,1.5891,1.5891,1.5891,1.5891,1.5891,1.5891,1.5891,1.5891,1.5891,1.5891,1.5942,1.6208,1.6374,1.6567,1.699,1.7213,1.7473,1.8881,1.8781,1.8766,1.8766,1.8628,1.8489,1.8419,1.8589,1.8601,1.8239,1.8174,1.8182,1.8235,1.8021,1.7967,1.8277,1.8299,1.8182,1.7872,1.7814,1.7814,1.785,1.7814,1.8116,1.88,1.8467,1.8321,1.8364,1.8321,1.8152,0.0,1.8211,1.8364,1.8364,1.8408,1.8562,1.8738,1.7603,1.7186,1.7153,1.5748,1.4647,1.3868,1.3949,1.3305,1.2414,1.2414,1.2414,1.2495,1.3017,1.3179,1.3288,1.39,1.4089,1.4196,1.474,1.4928,1.5116,1.5651,1.5838,1.5891,1.5891,1.5891,1.5831,1.5602,1.5553,1.5553,1.5553,1.5185,1.5059,1.5674,1.4787,1.3893,1.3718,1.3244,1.3,1.322,1.3067,1.3209,1.3999,1.3399,0.0,1.4995,1.4805,1.4727,1.5057,1.5067,1.5083,1.5155,1.5342,1.5481,1.5547,1.5771,1.5891,1.5891,1.5891,1.5891,1.5891,1.5891,1.5891,1.5891,1.5891,1.5891,1.5891,1.5891,1.5891,1.5891,1.5891,1.5891,1.591,1.6166,1.6257,1.6293,1.6543,1.6875,1.734,1.8772,1.8682,1.8543,1.8543,1.8566,1.8415,1.793,1.7891,1.7979,1.8161,1.8023,1.7862,1.7896,1.8094,1.824,1.8299,1.8299,1.8277,1.8218,1.7938,1.7909,1.8203,1.7955,1.8116,1.88,1.8467,1.8438,1.8701,1.8438,1.8277,0.0,1.8547,1.8701,1.8716,1.9012,1.8986,1.8738,1.7698,1.7211,1.6955,1.4891,1.4102,1.4024,1.3073,1.2572,1.2414,1.2414,1.2414,1.2414,1.2523,1.255,1.2659,1.3256,1.345,1.3581,1.4169,1.4659,1.5009,1.5122,1.5517,1.5891,1.5891,1.5891,1.5879,1.5831,1.5819,1.5819,1.5819,1.5753,1.5596,1.53,1.469,1.4331,1.4688,1.4333,1.4039,1.4087,1.4051,1.3922,1.3642,1.3848,1.4096,1.4285,1.4158,1.4299,1.4901,1.4838,1.4949,1.5409,1.527,1.5372,1.5807,1.5867,1.5891,1.5891,1.5891,1.5891,1.5891,1.5891,1.5891,1.5891,1.5891,1.5891,1.5891,1.5891,1.5891,1.5891,1.5891,1.5891,1.5891,1.594,1.5958,1.5988,1.626,1.6853,1.7708,1.8773,1.8635,1.8504,1.8504,1.8302,1.8079,1.7983,1.7685,1.7622,1.7954,1.7888,1.7792,1.7792,1.7777,1.7777,1.7777,1.7777,1.7777,1.7777,1.7624,1.7682,1.8035,1.7904,1.8116,1.88,1.8635,1.8628,1.8789,1.8803,1.8723,0.0,0.0,1.9063,1.9078,1.9232,1.9122,1.8763,1.8266,1.8037,1.7833,1.6168,1.5337,1.4959,1.3786,1.2952,1.2414,1.2414,1.2414,1.2414,1.2414,1.2414,1.2441,1.274,1.2822,1.2957,1.3554,1.3932,1.418,1.4498,1.4788,1.503,1.503,1.503,1.503,1.503,1.5223,1.5437,1.5437,1.5678,1.5771,1.5384,1.4871,0.0,1.4984,1.4519,1.4189,1.4473,1.4389,1.4399,1.4656,1.4219,1.4419,1.5788,1.492,1.4503,1.5057,1.4843,1.4858,1.5276,1.5179,1.5288,1.5674,1.5819,1.5891,1.5891,1.5891,1.5891,1.5891,1.5891,1.5891,1.5891,1.5891,1.5891,1.5891,1.5891,1.5891,1.5945,1.6385,1.6571,1.6624,1.7021,1.7206,1.7199,1.7336,1.8043,1.9029,1.8727,1.8396,1.8071,1.8032,1.7485,1.7168,1.7394,1.7297,1.7363,1.7833,1.7836,1.7792,1.7792,1.7558,1.7382,1.7309,1.7302,1.7302,1.7302,1.7302,1.7419,1.7675,1.7682,1.796,1.8569,1.865,1.8723,1.8789,1.9144,1.9173,0.0,0.0,1.9305,1.9298,1.9232,1.9056,1.8789,1.8789,1.8789,1.872,1.7645,1.684,1.6133,1.4991,1.397,1.3137,1.3137,1.3137,1.3137,1.3137,1.2812,1.2441,1.2708,1.2599,1.255,1.3283,1.3396,1.3396,1.3878,1.4089,1.4196,1.4196,1.4196,1.4196,1.4196,1.4519,1.4821,1.4821,1.5223,1.5568,1.5724,1.535,0.0,1.5771,1.5287,1.5006,1.5426,1.5288,1.5421,1.6106,1.51,1.5236,1.7436,1.6127,1.5365,1.5865,1.5308,1.4972,1.5095,1.5107,1.5228,1.5487,1.5698,1.5807,1.5807,1.5861,1.5891,1.5891,1.5891,1.5891,1.5891,1.5891,1.5891,1.5891,1.5891,1.5891,1.5965,1.6836,1.7199,1.7279,1.8101,1.8396,1.8396,1.8396,1.9129,2.0071,1.8503,1.7582,1.6702,1.645,1.5665,1.5035,1.4943,1.6027,1.7192,1.8124,1.7999,1.7792,1.7792,1.7762,1.7624,1.7331,1.7302,1.7302,1.7302,1.7302,1.7317,1.7353,1.7353,1.7514,1.7904,1.8196,1.8496,1.8789,1.9144,1.9283,1.9254,0.0,1.9305,1.929,1.899,1.8818,0.0,1.8789,1.8789,1.8735,1.7878,1.7503,1.7312,1.616,1.5675,1.5568,1.5568,1.5568,1.5568,1.5568,1.4153,1.2599,1.3684,1.3278,1.2627,1.3792,1.3743,1.3315,1.3369,1.377,1.4196,1.4196,1.4196,1.4196,1.4196,1.425,1.4277,1.4277,1.4331,1.4811,1.6245,1.6306,1.6637,1.8106,1.8156,1.7993,1.8055,1.8034,1.7865,1.7481,1.7291,1.7363,1.7728,1.727,1.7196,1.7788,1.6507,1.5524,1.512,1.5107,1.5228,1.5487,1.5523,1.5535,1.5535,1.5771,1.5891,1.5891,1.5891,1.5891,1.5891,1.5891,1.5891,1.5891,1.5891,1.5891,1.5965,1.6836,1.7199,1.7279,1.8101,1.8396,1.8396,1.8396,1.8966,1.9803,1.6525,1.5856,1.5417,1.5472,1.504,1.4702,1.4759,1.5275,1.5885,1.6482,1.7474,1.8108,1.8108,1.8108,1.7977,1.7624,1.7594,1.7514,1.7317,1.7302,1.7302,1.7302,1.7302,1.7456,1.7784,1.7923,1.8262,1.8789,1.8921,1.9107,1.9305,0.0,0.0,0.0,0.0,1.8679,1.8511,1.8708,1.8789,1.8742,1.7906,1.7608,1.7477,1.634,1.5888,1.5888,1.5888,1.5888,1.5888,1.5888,1.5274,1.4578,1.5066,1.49,1.4605,1.5093,1.5039,1.4852,1.4852,1.4541,1.4196,1.4196,1.3657,1.3115,1.3115,1.3391,1.3662,1.3662,1.3954,1.4406,1.504,1.551,1.607,1.6892,1.7381,1.7746,1.7897,1.7924,1.7829,1.7642,1.747,1.7619,1.8277,1.8059,1.8041,1.8428,1.7474,1.6535,1.5809,1.5979,1.5926,1.5519,1.565,1.5734,1.5734,1.5837,1.5891,1.5891,1.5891,1.5891,1.5891,1.5891,1.5891,1.5945,1.6438,1.6677,1.6783,1.8146,1.8703,1.8781,1.9595,1.9905,1.9905,1.9905,2.0112,2.0452,1.5145,1.4594,1.4321,1.451,1.4115,1.385,1.4046,1.4362,1.4685,1.4998,1.6529,1.7546,1.7456,1.7449,1.729,1.6888,1.686,1.6728,1.644,1.6419,1.6419,1.6419,1.6419,1.6523,1.6762,1.7156,1.7589,1.8064,1.8473,1.8767,1.9012,0.0,0.0,0.0,1.8547,1.8482,1.8452,1.8591,1.8785,1.8899,1.8338,1.8108,1.8003,1.7199,1.6902,1.6902,1.6902,1.6902,1.6902,1.6902,1.6902,1.6849,1.6505,1.618,1.5968,1.6287,1.6154,1.5888,1.5888,1.5307,1.4696,1.4696,1.4051,1.343,1.343,1.3754,1.4062,1.4062,1.4406,1.4804,1.5125,1.5769,1.641,1.6936,1.761,1.8119,1.8309,1.8337,1.8337,1.8337,1.8081,1.8211,1.9037,1.8845,1.876,1.8944,1.8561,1.7859,1.6789,1.6759,1.6523,1.5909,1.5806,1.5777,1.5777,1.5849,1.5891,1.5891,1.5891,1.5891,1.5918,1.6178,1.6285,1.6338,1.718,1.7542,1.7648,1.9101,1.9706,1.9783,2.0583,2.0899,2.0899,2.0899,2.0899,2.0899,1.4991,1.4131,1.3421,1.342,1.255,1.1914,1.2101,1.3093,1.3905,1.4186,1.5221,1.5799,1.5461,1.5431,1.522,1.4702,1.4629,1.4564,1.4358,1.434,1.434,1.434,1.434,1.434,1.4346,1.5627,1.6319,1.6326,1.7647,1.8313,1.8313,0.0,1.8313,1.8291,1.7969,1.8182,1.876,1.8445,1.8679,1.9298,1.9272,1.9279,1.9279,1.9246,1.9246,1.9246,1.9246,1.9246,1.9246,1.9246,1.9246,1.9063,1.7924,1.6803,1.6127,1.7259,1.6776,1.5888,1.5888,1.5888,1.5888,1.5888,1.5861,1.5861,1.5861,1.5861,1.5861,1.5861,1.5861,1.6213,1.7338,1.7779,1.8349,1.9465,0.0,2.0078,2.0078,2.0078,2.0078,2.0078,1.9771,1.9702,2.0048,1.9781,1.9598,1.958,1.9888,1.9456,1.8048,1.7224,1.68,1.6774,1.596,1.5499,1.5499,1.5759,1.5891,1.5891,1.5891,1.5891,1.5945,1.6783,1.7173,1.7226,1.8048,1.8396,1.8448,1.9335,1.9706,1.9783,2.0583,2.0899,2.0899,2.0899,2.0899,2.0899,1.2927,1.2547,1.2341,1.249,1.2219,1.2079,1.226,1.2607,1.2869,1.297,1.33,1.348,1.3355,1.4781,1.5523,1.4998,1.495,1.4757,1.4322,1.4292,1.4292,1.4292,1.4292,1.4292,1.4292,1.4713,1.5043,1.528,1.6382,1.7411,0.0,1.8299,1.8182,1.7945,1.8094,1.8262,1.8467,1.8584,1.8909,1.9305,1.9305,1.9305,1.9305,1.9305,1.9305,1.9305,1.9305,1.9305,1.9305,1.9305,1.9305,1.9246,1.8881,1.8501,1.8284,1.8639,1.8501,1.8232,1.8232,1.7648,1.7067,1.7067,1.6479,1.5888,1.5888,1.5888,1.5888,1.5888,1.5888,1.6021,1.6372,1.7147,1.7838,1.8213,1.8997,1.955,1.955,1.955,1.955,1.955,1.9616,1.9722,1.982,1.9892,1.9842,1.9628,1.9704,1.9219,1.7996,1.7723,1.7263,1.6478,1.601,0.0,1.5765,1.545,1.5277,1.5277,1.5277,1.5491,1.5891,1.5752,1.6252,1.7226,1.7608,1.8349,1.9361,2.0171,2.0506,2.0532,2.0789,2.0899,2.0899,2.0899,2.0899,2.0899,1.1997,1.1914,1.198,1.2187,1.2198,1.2268,1.239,1.2414,1.2414,1.2414,1.2414,1.2414,1.2414,1.3695,1.4384,1.3901,1.3857,1.3646,1.3177,1.3143,1.3143,1.3143,1.3143,1.3143,1.3143,1.3499,0.0,1.4003,1.542,1.6729,1.7909,1.7909,1.7806,1.7624,1.7945,1.8189,1.8321,1.865,1.9005,1.9305,1.9305,1.9305,1.9305,1.9305,1.9305,1.9305,1.9305,1.9305,1.9305,1.9305,1.9305,1.9305,1.9305,1.9305,1.9305,1.9305,1.9305,1.9305,1.9305,1.8769,1.8239,1.8239,1.77,1.7167,1.7167,1.7167,1.7167,1.7167,1.7167,1.7167,1.7167,1.7759,1.8239,1.8239,1.8848,1.9305,1.9305,1.9305,1.9305,1.9305,1.9343,1.9416,1.9543,1.9593,1.9591,1.9498,1.949,1.9189,1.8463,1.8247,1.7862,1.725,1.6871,1.6703,1.6703,1.6411,1.6225,1.6119,1.6019,1.6285,1.6816,1.6119,1.6591,1.7996,1.7995,1.8708,1.9905,2.0609,2.0848,2.0771,2.0873,2.0899,2.0899,2.0899,2.0899,2.0899,1.2093,1.2131,1.2192,1.2381,1.2414,1.2414,1.2414,1.2414,1.2414,1.2414,1.2414,1.2414,1.2414,1.2414,1.2249,1.1848,1.1801,1.1647,1.1246,1.1203,1.1194,1.1194,1.1194,1.1194,1.1194,1.2131,1.2684,1.2805,1.474,1.6254,1.7302,1.7302,1.7302,1.7324,1.7667,1.8021,1.8328,1.8672,1.9001,1.9305,1.9305,1.9305,1.9305,1.9305,1.9305,1.9305,1.9305,1.9305,1.9305,1.9305,1.9305,1.9305,1.9305,1.9305,1.9305,1.9305,1.9305,1.9305,1.9305,1.9305,1.9305,1.9305,1.9305,1.9305,1.9305,1.9305,1.9305,1.9305,1.9305,1.9305,1.9305,1.9305,1.9305,1.9305,1.9305,1.9305,1.9305,1.9305,1.9305,1.9305,1.9008,1.8968,1.9276,1.9027,1.8935,1.9246,1.9268,1.9268,1.9268,1.8738,1.853,1.8767,1.8251,1.7989,1.8015,1.8206,1.818,1.793,1.7681,1.7845,1.8318,1.7457,1.7858,1.9246,1.889,1.9254,2.0138,2.0634,2.0719,2.0522,2.0771,2.0873,2.0899,2.0899,2.0899,2.0899,1.2301,1.2343,1.233,1.2377,1.2414,1.2414,1.2414,1.2414,1.2414,1.2414,1.2414,1.2414,1.2414,1.2414,1.231,1.206,1.1886,1.1683,1.1458,1.1288,1.1194,1.1194,1.1194,1.1194,1.1194,1.1433,1.2325,1.3932,1.4411,1.5555,1.7302,1.7302,1.7302,1.7331,1.7933,1.8233,1.8343,1.8939,1.9232,1.9305,1.9305,1.9305,1.9305,1.9305,1.9305,1.9305,1.9305,1.9305,1.9305,1.9305,1.9305,1.9305,1.9305,1.9305,1.9305,1.9305,1.9305,1.9305,1.9305,1.9305,1.9305,1.9305,1.9305,1.9305,1.9305,1.9305,1.9305,1.9305,1.9305,1.9305,1.9305,1.9305,1.9305,1.9305,1.9305,1.9305,1.9305,1.9305,1.9305,1.9305,1.9232,1.9217,1.929,1.9232,1.9115,1.8921,1.8931,1.8931,1.8931,1.8775,1.8646,1.8513,1.797,1.7786,1.8015,1.7615,1.7378,1.7318,1.7246,1.7411,1.7766,1.71,1.7569,1.8885,1.8401,1.8923,2.0112,2.0241,2.0377,2.0522,2.0573,2.0719,2.0899,2.0899,2.0899,2.0899,1.239,1.2414,1.2414,1.2414,1.2414,1.2414,1.2414,1.2414,1.2414,1.2414,1.2414,1.2414,1.2414,1.2414,1.2367,1.2258,1.1971,1.1707,1.1504,1.1316,1.1194,1.1194,1.1194,1.1194,1.1194,1.1194,1.2228,1.4292,1.4292,1.5317,1.7302,1.7302,1.7382,1.7551,1.8079,1.8386,1.8555,1.9085,1.9305,1.9305,1.9305,1.9305,1.9305,1.9305,1.9305,1.9305,1.9305,1.9305,1.9305,1.9305,1.9305,1.9305,1.9305,1.9305,1.9305,1.9305,1.9305,1.9305,1.9305,1.9305,1.9305,1.9305,1.9305,1.9305,1.9305,1.9305,1.9305,1.9305,1.9305,1.9305,1.9305,1.9305,1.9305,1.9305,1.9173,1.9129,1.9283,1.9173,1.9137,1.9283,1.9305,1.9305,1.9305,1.9305,1.9224,1.9049,1.9041,1.9041,1.9041,1.918,1.9112,1.8821,1.8658,1.8624,1.8781,1.8558,1.8577,1.8845,1.8454,1.8513,1.8893,1.7681,1.7891,1.9172,1.8356,1.8651,1.9757,2.0119,2.0223,2.0179,2.0539,2.0694,2.0719,2.084,2.0899,2.0899,1.2414,1.2414,1.2414,1.2414,1.2414,1.2414,1.2414,1.2414,1.2414,1.2414,1.2414,1.2414,1.2414,1.2414,1.24,1.2371,1.2013,1.1721,1.1551,1.1331,1.1194,1.1194,1.1194,1.1194,1.1194,1.1194,1.2136,1.4052,1.422,1.5246,1.7084,1.7232,1.7477,1.7806,1.8152,1.8482,1.8811,1.9166,1.9305,1.9305,1.9305,1.9305,1.9305,1.9305,1.9305,1.9305,1.9305,1.9305,1.9305,1.9305,1.9305,1.9305,1.9305,1.9305,1.9305,1.9305,1.9305,1.9305,1.9305,1.9305,1.9305,1.9305,1.9305,1.9305,1.9305,1.9305,1.9305,1.9305,1.9305,1.9305,1.9305,1.9305,1.9305,1.9305,1.9071,1.8957,1.9261,1.9063,1.899,1.9268,1.9305,1.9305,1.9305,1.9305,1.9305,1.9305,1.9349,1.9378,1.9378,1.9679,1.9708,1.9386,1.9606,1.9732,1.9757,2.006,2.0421,2.0822,2.0145,2.0024,2.0308,1.8684,1.8553,1.9602,1.8624,1.8632,1.9357,2.005,2.0075,1.9783,2.0506,2.0668,2.0539,2.0796,2.0899,2.0899,1.2414,1.2414,1.2414,1.2414,1.2414,1.2414,1.2414,1.2414,1.2414,1.2414,1.2414,1.2414,1.2414,1.2414,1.2316,1.2147,1.1933,1.1777,1.1775,1.1411,1.1194,1.1194,1.1194,1.1194,1.1194,1.1194,1.177,1.2944,1.386,1.4889,1.6058,1.6897,1.7477,1.7806,1.8152,1.8482,1.8811,1.9166,1.9305,1.9305,1.9305,1.9305,1.9305,1.9305,1.9305,1.9305,1.9305,1.9305,1.9305,1.9305,1.9305,1.9305,1.9305,1.9305,1.9305,1.9305,1.9305,1.9305,1.9305,1.9305,1.9305,1.9305,1.9305,1.9305,1.9305,1.9305,1.9305,1.9305,1.9305,1.9305,1.9305,1.9305,1.9305,1.9305,1.9261,1.9246,1.929,0.0,1.9246,1.9298,1.9305,1.9305,1.9305,1.9305,1.9305,1.9305,1.9554,1.9715,1.9715,1.9989,2.0018,1.9723,1.9761,1.9866,2.0034,2.0532,2.0694,2.0573,2.0437,2.0179,1.9809,1.9517,1.9368,1.935,1.9194,1.9168,1.9305,1.9428,1.9583,1.9732,2.0086,2.0351,2.0539,2.0796,2.0899,2.0899,1.2414,1.2414,1.2414,1.2414,1.2414,1.2414,1.2414,1.2414,1.2414,1.2414,1.2414,1.2414,1.2414,1.2414,1.2334,1.2131,1.1914,1.1744,1.1636,1.1368,1.1194,1.1194,1.1194,1.1194,1.1194,1.1194,1.1702,1.2702,1.3758,1.4818,1.5822,1.6826,1.7572,1.8086,1.8233,1.8584,1.9085,1.9239,1.9305,1.9305,1.9305,1.9305,1.9305,1.9305,1.9305,1.9305,1.9305,1.9305,1.9305,1.9305,1.9305,1.9305,1.9305,1.9305,1.9305,1.9305,1.9305,1.9305,1.9305,1.9305,1.9305,1.9305,1.9305,1.9305,1.9305,1.9305,1.9305,1.9305,1.9305,1.9305,1.9305,1.9305,1.9305,1.9305,1.9159,1.91,1.9276,1.9151,1.91,1.9283,1.9305,1.9305,1.9305,1.9305,1.9371,1.9554,1.9701,1.9862,2.0011,2.0298,2.0274,1.9803,1.9771,1.9863,2.0112,2.048,2.0694,2.0719,2.0573,2.0359,2.0127,1.9835,1.9628,1.9506,1.935,1.9305,1.9298,1.9454,1.9506,1.9532,2.0094,2.03,2.0326,2.0737,2.0899,2.0899,1.2414,1.2414,1.2414,1.2414,1.2414,1.2414,1.2414,1.2414,1.2414,1.2414,1.2414,1.2414,1.2414,1.2414,1.231,1.206,1.1886,1.1683,1.1458,1.1288,1.1194,1.1194,1.1194,1.1194,1.1194,1.1194,1.158,1.2349,1.3668,1.4698,1.549,1.6725,1.7653,1.8299,1.8299,1.8664,1.9305,1.9305,1.9305,1.9305,1.9305,1.9305,1.9305,1.9305,1.9305,1.9305,1.9305,1.9305,1.9305,1.9305,1.9305,1.9305,1.9305,1.9305,1.9305,1.9305,1.9305,1.9305,1.9305,1.9305,1.9305,1.9305,1.9305,1.9305,1.9305,1.9305,1.9305,1.9305,1.9305,1.9305,1.9305,1.9305,1.9305,1.9305,0.0,1.9012,1.9268,1.9085,1.9019,1.9276,1.9305,1.9305,1.9305,1.9371,1.9518,1.9767,1.9928,2.0091,2.0312,2.0627,2.0537,1.992,1.9818,1.9879,2.0104,2.0429,2.0694,2.0899,2.0694,2.0573,2.0496,2.0075,1.9861,1.9783,1.9506,1.9402,1.9402,1.9558,1.948,1.9383,2.005,2.0197,2.006,2.0609,2.0822,2.0822,1.2414,1.2414,1.2414,1.2414,1.2414,1.2414,1.2414,1.2414,1.2414,1.2414,1.2414,1.2414,1.2414,1.2414,1.2249,1.1853,1.1801,1.1647,1.1246,1.1203,1.1194,1.1194,1.1194,1.1194,1.1194,1.1194,1.1243,1.1316,1.3312,1.434,1.4459,1.6396,1.7653,1.8299,1.8299,1.8664,1.9305,1.9305,1.9305,1.9305,1.9305,1.9305,1.9305,1.9305,1.9305,1.9305,1.9305,1.9305,1.9305,1.9305,1.9305,1.9305,1.9305,1.9305,1.9305,1.9305,1.9305,1.9305,1.9305,1.9305,1.9305,1.9305,1.9305,1.9305,1.9305,1.9305,1.9305,1.9305,1.9305,1.9305,1.9305,1.9305,1.9305,1.9305,0.0,0.0,1.9298,1.9283,1.9276,1.9298,1.9305,1.9305,1.9305,1.9576,1.9767,1.9789,2.0318,2.0634,2.0656,2.097,2.0874,2.0196,2.0114,2.0078,2.0104,2.0609,2.0873,2.0899,2.0873,2.0745,2.0496,2.047,2.0308,2.0053,1.9783,1.968,1.9654,1.9428,1.9324,1.9331,1.9635,1.9757,1.9783,2.0333,2.0522,2.0573,1.2414,1.2414,1.2414,1.2414,1.2414,1.2414,1.2414,1.2414,1.2414,1.2414,1.2414,1.2414,1.2414,1.2414,1.2244,1.1829,1.1791,1.1642,1.1222,1.1194,1.1194,1.1194,1.1194,1.1194,1.1194,1.1194,1.1194,1.1194,1.3282,1.4292,1.4346,1.6566,1.785,1.8313,1.8511,1.888,1.9305,1.9305,1.9305,1.9305,1.9305,1.9305,1.9305,1.9305,1.9305,1.9305,1.9305,1.9305,1.9305,1.9305,1.9305,1.9305,1.9305,1.9305,1.9305,1.9305,1.9305,1.9305,1.9305,1.9305,1.9305,1.9305,1.9305,1.9305,1.9305,1.9305,1.9305,1.9305,1.9305,1.9305,1.9305,1.9305,1.9305,1.9305,0.0,1.9305,1.9305,1.9305,1.9305,1.9305,1.9305,1.9386,1.9583,1.9715,1.9957,2.0325,2.0581,2.078,2.0985,2.0919,2.0765,2.0517,2.0456,2.0318,2.0104,2.0634,2.0899,2.0899,2.0899,2.0848,2.0745,2.0565,2.0437,2.0326,2.006,1.9957,1.9931,1.9828,1.9706,1.9576,1.9828,1.9957,1.9983,2.0359,2.0624,2.0771,1.2414,1.2414,1.2414,1.2414,1.2414,1.2414,1.2414,1.2414,1.2414,1.2414,1.2414,1.2414,1.2414,1.2414,1.2244,1.1829,1.1791,1.1642,1.1222,1.1194,1.1194,1.1194,1.1194,1.1194,1.1194,1.1194,1.1194,1.1194,1.2944,1.398,1.4346,1.6395,1.7692,1.8321,1.8642,1.8997,1.9305,1.9305,1.9305,1.9305,1.9305,1.9305,1.9305,1.9305,1.9305,1.9305,1.9305,1.9305,1.9305,1.9305,1.9305,1.9305,1.9305,1.9305,1.9305,1.9305,1.9305,1.9305,1.9305,1.9305,1.9305,1.9305,1.9305,1.9305,1.9305,1.9305,1.9305,1.9305,1.9305,1.9305,1.9305,1.9305,1.9305,1.9305,1.9305,1.9305,1.9305,1.9305,1.9305,1.9305,1.9305,1.943,1.9759,1.9884,2.0135,2.0656,2.0787,2.0948,2.1196,2.097,2.0802,2.07,2.075,2.0608,2.0265,2.0689,2.0899,2.0899,2.0899,2.0899,2.0891,2.0719,2.0624,2.0617,2.0351,2.0223,2.0215,2.013,1.9983,1.9828,1.9931,2.0034,2.013,2.03,2.0539,2.0796,1.2414,1.2414,1.2414,1.2414,1.2414,1.2414,1.2414,1.2414,1.2414,1.2414,1.2414,1.2414,1.2414,1.2414,1.2244,1.1829,1.1791,1.1642,1.1222,1.1194,1.1194,1.1194,1.1194,1.1194,1.1194,1.1194,1.1194,1.1194,1.2204,1.3258,1.4322,1.5688,1.7026,1.8321,1.865,1.8997,1.9305,1.9305,1.9305,1.9305,1.9305,1.9305,1.9305,1.9305,1.9305,1.9305,1.9305,1.9305,1.9305,1.9305,1.9305,1.9305,1.9305,1.9305,1.9305,1.9305,1.9305,1.9305,1.9305,1.9305,1.9305,1.9305,1.9305,1.9305,1.9305,1.9305,1.9305,1.9305,1.9305,1.9305,1.9305,1.9305,1.9305,1.9305,1.9305,1.9305,1.9305,1.9305,1.9305,1.9305,1.9305,1.943,1.9759,2.0047,2.0349,2.0678,2.0999,2.1211,2.1211,2.1211,2.1036,2.0707,2.0955,2.0933,2.0597,2.0807,2.0899,2.0899,2.0899,2.0899,2.0899,2.0899,2.0899,2.0873,2.0617,2.0496,2.0488,2.0215,2.0104,2.0078,1.9809,1.9879,2.0104,2.0104,2.0274,2.0547,1.2414,1.2414,1.2414,1.2414,1.2414,1.2414,1.2414,1.2414,1.2414,1.2414,1.2414,1.2414,1.2414,1.2414,1.2244,1.1829,1.1791,1.1642,1.1222,1.1194,1.1194,1.1194,1.1194,1.1194,1.1194,1.1194,1.1194,1.1194,1.2204,1.3258,1.4322,1.5921,1.7252,1.8328,1.8909,1.921,1.9305,1.9305,1.9305,1.9305,1.9305,1.9305,1.9305,1.9305,1.9305,1.9305,1.9305,1.9305,1.9305,1.9305,1.9305,1.9305,1.9305,1.9305,1.9305,1.9305,1.9305,1.9305,1.9305,1.9305,1.9305,1.9305,1.9305,1.9305,1.9305,1.9305,1.9305,1.9305,1.9305,1.9305,1.9305,1.9305,1.9305,1.9305,1.9305,1.9305,1.9305,1.9305,1.9305,1.9305,1.9305,1.9518,2.004,2.0152,2.0437,2.102,2.1152,2.1211,2.1211,2.1211,2.0752,1.9751,2.084,2.0866,1.9633,2.0465,2.0899,2.0899,2.0899,2.0899,2.0899,2.0899,2.0899,2.0873,2.0223,2.0256,2.0719,2.0094,2.0042,2.0377,2.0282,2.0308,2.0385,2.0385,2.0539,2.0796,1.2414,1.2414,1.2414,1.2414,1.2414,1.2414,1.2414,1.2414,1.2414,1.2414,1.2414,1.2414,1.2414,1.2414,1.2277,1.1947,1.1768,1.1532,1.1217,1.1194,1.1194,1.1194,1.1194,1.1194,1.1194,1.1194,1.1194,1.1194,1.1819,1.2635,1.3703,1.5382,1.673,1.7743,1.8825,1.9305,1.9305,1.9305,1.9305,1.9305,1.9305,1.9305,1.9305,1.9305,1.9305,1.9305,1.9305,1.9305,1.9305,1.9305,1.9305,1.9305,1.9305,1.9305,1.9305,1.9305,1.9305,1.9305,1.9305,1.9305,1.9305,1.9305,1.9305,1.9305,1.9305,1.9305,1.9305,1.9305,1.9305,1.9305,1.9305,1.9305,1.9305,1.9305,1.9305,1.9305,1.9305,1.9305,1.9305,1.9305,1.9305,1.951,1.9996,2.0137,2.0481,2.1159,2.1211,2.1211,2.1211,2.1211,2.0852,2.009,2.1071,2.0964,1.9604,2.0268,2.0568,2.0429,2.0737,2.0557,1.9931,2.0274,2.0248,1.9879,1.9387,1.9654,2.0403,1.9887,2.0068,2.065,2.0547,2.0573,2.065,2.0547,2.0668,2.0899,1.2414,1.2414,1.2414,1.2414,1.2414,1.2414,1.2414,1.2414,1.2414,1.2414,1.2414,1.2414,1.2414,1.2414,1.2334,1.2131,1.1735,1.14,1.1208,1.1194,1.1194,1.1194,1.1194,1.1194,1.1194,1.1194,1.1243,1.134,1.1243,1.178,1.2891,1.4474,1.5783,1.6904,1.855,1.9305,1.9305,1.9305,1.9305,1.9305,1.9305,1.9305,1.9305,1.9305,1.9305,1.9305,1.9305,1.9305,1.9305,1.9305,1.9305,1.9305,1.9305,1.9305,1.9305,1.9305,1.9305,1.9305,1.9305,1.9305,1.9305,1.9305,1.9305,1.9305,1.9305,1.9305,1.9305,1.9305,1.9305,1.9305,1.9305,1.9305,1.9305,1.9305,1.9305,1.9305,1.9305,1.9305,1.9305,1.9305,1.9305,1.943,1.9759,2.0077,2.051,2.1159,2.1211,2.1211,2.1211,2.1089,2.1031,2.1031,2.1305,2.0979,2.004,2.0175,2.003,1.9621,2.0341,1.9879,1.8422,1.9231,1.9153,1.8396,1.8318,1.8788,1.9569,1.9569,2.0068,2.0789,2.0591,2.0668,2.0865,2.0624,2.0694,2.0899,1.2414,1.2414,1.2414,1.2414,1.2414,1.2414,1.2414,1.2414,1.2414,1.2414,1.2414,1.2414,1.2414,1.2414,1.2334,1.2131,1.1735,1.14,1.1208,1.1194,1.1194,1.1194,1.1194,1.1194,1.1194,1.1194,1.158,1.2368,1.158,1.2228,1.4201,1.4883,1.5866,1.7105,1.8624,1.9305,1.9305,1.9305,1.9305,1.9305,1.9305,1.9305,1.9305,1.9305,1.9305,1.9305,1.9305,1.9305,1.9305,1.9305,1.9305,1.9305,1.9305,1.9305,1.9305,1.9305,1.9305,1.9305,1.9305,1.9305,1.9305,1.9305,1.9305,1.9305,1.9305,1.9305,1.9305,1.9305,1.9305,1.9305,1.9305,1.9305,1.9305,1.9305,1.9305,1.9305,1.9305,1.9305,1.9305,1.9305,1.9305,1.943,1.9759,2.0281,2.0758,2.1181,2.1211,2.1211,2.1211,2.0234,1.9708,1.9708,2.0014,1.9705,1.8716,1.9954,2.0057,1.8985,1.8955,1.8762,1.8396,1.8605,1.8579,1.837,1.7726,1.791,1.8684,1.8684,1.9179,2.0016,2.0583,2.0848,2.0891,2.0822,2.084,2.0899,1.2414,1.2414,1.2414,1.2414,1.2414,1.2414,1.2414,1.2414,1.2414,1.2414,1.2414,1.2414,1.2414,1.2414,1.2291,1.1985,1.1758,1.1529,1.1217,1.1194,1.1194,1.1194,1.1194,1.1194,1.1194,1.1673,1.2179,1.2702,1.2179,1.2567,1.3869,1.5295,1.61,1.642,1.8419,1.9305,1.9305,1.9305,1.9305,1.9305,1.9305,1.9305,1.9305,1.9305,1.9305,1.9305,1.9305,1.9305,1.9305,1.9305,1.9305,1.9305,1.9305,1.9305,1.9305,1.9305,1.9305,1.9305,1.9305,1.9305,1.9305,1.9305,1.9305,1.9305,1.9305,1.9305,1.9305,1.9305,1.9305,1.9305,1.9305,1.9305,1.9305,1.9305,1.9305,1.9305,1.9305,1.9305,1.9305,1.9305,1.9305,1.943,1.9759,2.0201,2.0597,2.0926,2.1123,2.0945,2.0328,2.0234,1.9939,1.9325,2.0199,2.0086,1.8792,1.9624,1.9375,1.7994,1.8543,1.8373,1.7604,1.8003,1.7942,1.7577,1.7137,1.7429,1.8158,1.8158,1.8937,2.0155,2.0417,2.0773,2.1129,2.0955,2.0899,2.0899,1.2414,1.2414,1.2414,1.2414,1.2414,1.2414,1.2414,1.2414,1.2414,1.2414,1.2414,1.2414,1.2414,1.2414,1.2244,1.1829,1.1791,1.1642,1.1222,1.1194,1.1194,1.1194,1.1194,1.1194,1.1194,1.2009,1.2611,1.2969,1.2969,1.319,1.3657,1.5795,1.6462,1.5964,1.8284,1.9305,1.9305,1.9305,1.9305,1.9305,1.9305,1.9305,1.9305,1.9305,1.9305,1.9305,1.9305,1.9305,1.9305,1.9305,1.9305,1.9305,1.9305,1.9305,1.9305,1.9305,1.9305,1.9305,1.9305,1.9305,1.9305,1.9305,1.9305,1.9305,1.9305,1.9305,1.9305,1.9305,1.9305,1.9305,1.9305,1.9305,1.9305,1.9305,1.9305,1.9305,1.9305,1.9305,1.9305,1.9305,1.9305,1.943,1.9759,1.9996,2.0291,2.0663,2.0948,2.068,1.9673,2.0414,2.0385,1.9325,2.0579,2.0615,1.9152,1.9193,1.8595,1.7325,1.8268,1.8021,1.6728,1.7381,1.7331,1.67,1.67,1.708,1.7708,1.7841,1.8864,2.0357,2.0245,2.0727,2.1478,2.1185,2.1099,2.1074,1.2414,1.2414,1.2414,1.2414,1.2414,1.2414,1.2414,1.2414,1.2414,1.2414,1.2414,1.2414,1.2414,1.2414,1.2244,1.1829,1.1791,1.1642,1.1222,1.1194,1.1194,1.1194,1.1194,1.1194,1.1194,1.134,1.2276,1.4076,1.4076,1.4771,1.6127,1.6592,1.6981,1.7364,1.8703,1.9305,1.9305,1.9305,1.9305,1.9305,1.9305,1.9305,1.9305,1.9305,1.9305,1.9305,1.9305,1.9305,1.9305,1.9305,1.9305,1.9305,1.9305,1.9305,1.9305,1.9305,1.9305,1.9305,1.9305,1.9305,1.9305,1.9305,1.9305,1.9305,1.9305,1.9305,1.9305,1.9305,1.9305,1.9305,1.9305,1.9305,1.9305,1.9305,1.9305,1.9305,1.9305,1.9305,1.9305,1.9305,1.9305,1.943,1.9759,1.9825,2.0104,2.0649,2.0736,2.0826,2.0931,2.0061,1.947,1.9296,1.9499,1.9267,1.8535,1.8526,1.8432,1.8219,1.7295,1.6818,1.67,1.6806,1.6812,1.67,1.67,1.6756,1.6918,1.7597,1.8512,1.9559,2.0253,2.1106,2.1913,2.1865,2.1841,2.1822,1.2414,1.2414,1.2414,1.2414,1.2414,1.2414,1.2414,1.2414,1.2414,1.2414,1.2414,1.2414,1.2414,1.2414,1.2244,1.1829,1.1791,1.1642,1.1222,1.1194,1.1194,1.1194,1.1194,1.1194,1.1194,1.1746,1.249,1.3403,1.4004,1.4789,1.5783,1.7043,1.7618,1.7661,1.8795,1.9305,1.9305,1.9305,1.9305,1.9305,1.9305,1.9305,1.9305,1.9305,1.9305,1.9305,1.9305,1.9305,1.9305,1.9305,1.9305,1.9305,1.9305,1.9305,1.9305,1.9305,1.9305,1.9305,1.9305,1.9305,1.9305,1.9305,1.9305,1.9305,1.9305,1.9305,1.9305,1.9305,1.9305,1.9305,1.9305,1.9305,1.9305,1.9305,1.9305,1.9305,1.9305,1.9305,1.9305,1.9305,1.9305,1.9356,1.9503,1.9686,1.9906,2.0164,2.0516,2.0435,1.9883,2.0172,2.0033,1.9325,1.9997,1.9737,1.8419,1.8389,1.8221,1.7895,1.7473,1.7235,1.7135,1.7135,1.7135,1.7135,1.7135,1.7135,1.7221,1.8097,1.9008,1.9928,2.0622,2.1343,2.1877,2.0834,2.076,2.1202]},{"header":{"parameterUnit":"m.s-1","parameterCategory":1,"la1":30.6,"la2":28.766,"lo1":-90.7593,"lo2":-88.6598,"dy":0.0162,"dx":0.0183,"nx":116,"ny":114,"refTime":"2023-09-17T18:00:00:Z","depth":0,"parameterNumber":3,"parameterNumberName":"V-component_of_WINDS"},"data":[0.0,0.0,0.0,0.0,0.0,0.0,0.0,0.0,0.0,0.0,0.0,0.0,0.0,0.0,0.0,0.0,0.0,0.0,0.0,0.0,0.0,0.0,0.0,0.0,0.0,0.0,0.0,0.0,0.0,0.0,0.0,0.0,0.0,0.0,0.0,0.0,0.0,0.0,0.0,0.0,0.0,0.0,0.0,0.0,0.0,0.0,0.0,0.0,0.0,0.0,0.0,0.0,0.0,0.0,0.0,0.0,0.0,0.0,0.0,0.0,0.0,0.0,0.0,0.0,0.0,0.0,0.0,0.0,0.0,0.0,0.0,0.0,0.0,0.0,0.0,0.0,0.0,0.0,0.0,0.0,0.0,0.0,0.0,0.0,0.0,0.0,0.0,0.0,0.0,0.0,0.0,0.0,0.0,0.0,0.0,0.0,0.0,0.0,0.0,0.0,0.0,0.0,0.0,0.0,0.0,0.0,0.0,0.0,0.0,0.0,0.0,0.0,0.0,0.0,0.0,0.0,0.0,0.0,0.0,0.0,0.0,0.0,0.0,0.0,0.0,0.0,0.0,0.0,0.0,0.0,0.0,0.0,0.0,0.0,0.0,0.0,0.0,0.0,0.0,0.0,0.0,0.0,0.0,0.0,0.0,0.0,0.0,0.0,0.0,0.0,0.0,0.0,0.0,0.0,0.0,0.0,0.0,0.0,0.0,0.0,0.0,0.0,0.0,0.0,0.0,0.0,0.0,0.0,0.0,0.0,0.0,0.0,0.0,0.0,0.0,0.0,0.0,0.0,0.0,0.0,0.0,0.0,0.0,0.0,0.0,0.0,0.0,0.0,0.0,0.0,0.0,0.0,0.0,0.0,0.0,0.0,0.0,0.0,0.0,0.0,0.0,0.0,0.0,0.0,0.0,0.0,0.0,0.0,0.0,0.0,0.0,0.0,0.0,0.0,0.0,0.0,0.0,0.0,0.0,0.0,0.0,0.0,0.0,0.0,0.0,0.0,0.0,0.0,0.0,0.0,0.0,0.0,0.0,0.0,0.0,0.0,0.0,0.0,0.0,0.0,0.0,0.0,0.0,0.0,0.0,0.0,0.0,0.0,0.0,0.0,0.0,0.0,0.0,0.0,0.0,0.0,0.0,0.0,0.0,0.0,0.0,0.0,0.0,0.0,0.0,0.0,0.0,0.0,0.0,0.0,0.0,0.0,0.0,0.0,0.0,0.0,0.0,0.0,0.0,0.0,0.0,0.0,0.0,0.0,0.0,0.0,0.0,0.0,0.0,0.0,0.0,0.0,0.0,0.0,0.0,0.0,0.0,0.0,0.0,0.0,0.0,0.0,0.0,0.0,0.0,0.0,0.0,0.0,0.0,0.0,0.0,0.0,0.0,0.0,0.0,0.0,0.0,0.0,0.0,0.0,0.0,0.0,0.0,0.0,0.0,0.0,0.0,0.0,0.0,0.0,0.0,0.0,0.0,0.0,0.0,0.0,0.0,0.0,0.0,0.0,0.0,0.0,0.0,0.0,0.0,0.0,0.0,0.0,0.0,0.0,0.0,0.0,0.0,0.0,0.0,0.0,0.0,0.0,0.0,0.0,0.0,0.0,0.0,0.0,0.0,0.0,0.0,0.0,0.0,0.0,0.0,0.0,0.0,0.0,0.0,0.0,0.0,0.0,0.0,0.0,0.0,0.0,0.0,0.0,0.0,0.0,0.0,0.0,0.0,0.0,0.0,0.0,0.0,0.0,0.0,0.0,0.0,0.0,0.0,0.0,0.0,0.0,0.0,0.0,0.0,0.0,0.0,0.0,0.0,0.0,0.0,0.0,0.0,0.0,0.0,0.0,0.0,0.0,0.0,0.0,0.0,0.0,0.0,0.0,0.0,0.0,0.0,0.0,0.0,0.0,0.0,0.0,0.0,0.0,0.0,0.0,0.0,0.0,0.0,0.0,0.0,0.0,0.0,0.0,0.0,0.0,0.0,0.0,0.0,0.0,0.0,0.0,0.0,0.0,0.0,0.0,0.0,0.0,0.0,0.0,0.0,0.0,0.0,0.0,0.0,0.0,0.0,0.0,0.0,0.0,0.0,0.0,0.0,0.0,0.0,0.0,0.0,0.0,0.0,0.0,0.0,0.0,0.0,0.0,0.0,0.0,0.0,0.0,0.0,0.0,0.0,0.0,0.0,0.0,0.0,0.0,0.0,0.0,0.0,0.0,0.0,0.0,0.0,0.0,0.0,0.0,0.0,0.0,0.0,0.0,0.0,0.0,0.0,0.0,0.0,0.0,0.0,0.0,0.0,0.0,0.0,0.0,0.0,0.0,0.0,0.0,0.0,0.0,0.0,0.0,0.0,0.0,0.0,0.0,0.0,0.0,0.0,0.0,0.0,0.0,0.0,0.0,0.0,0.0,0.0,0.0,0.0,0.0,0.0,0.0,0.0,0.0,0.0,0.0,0.0,0.0,0.0,0.0,0.0,0.0,0.0,0.0,0.0,0.0,0.0,0.0,0.0,0.0,0.0,0.0,0.0,0.0,0.0,0.0,0.0,0.0,0.0,0.0,0.0,0.0,0.0,0.0,0.0,0.0,0.0,0.0,0.0,0.0,0.0,0.0,0.0,0.0,0.0,0.0,0.0,0.0,0.0,0.0,0.0,0.0,0.0,0.0,0.0,0.0,0.0,0.0,0.0,0.0,0.0,0.0,0.0,0.0,0.0,0.0,0.0,0.0,0.0,0.0,0.0,0.0,0.0,0.0,0.0,0.0,0.0,0.0,0.0,0.0,0.0,0.0,0.0,0.0,0.0,0.0,0.0,0.0,0.0,0.0,0.0,0.0,0.0,0.0,0.0,0.0,0.0,0.0,0.0,0.0,0.0,0.0,0.0,0.0,0.0,0.0,0.0,0.0,0.0,0.0,0.0,0.0,0.0,0.0,0.0,0.0,0.0,0.0,0.0,0.0,0.0,0.0,0.0,0.0,0.0,0.0,0.0,0.0,0.0,0.0,0.0,0.0,0.0,0.0,0.0,0.0,0.0,0.0,0.0,0.0,0.0,0.0,0.0,0.0,0.0,0.0,0.0,0.0,0.0,0.0,0.0,0.0,0.0,0.0,0.0,0.0,0.0,0.0,0.0,0.0,0.0,0.0,0.0,0.0,0.0,0.0,0.0,0.0,0.0,0.0,0.0,0.0,0.0,0.0,0.0,0.0,0.0,0.0,0.0,0.0,0.0,0.0,0.0,0.0,0.0,0.0,0.0,0.0,0.0,0.0,0.0,0.0,0.0,0.0,0.0,0.0,0.0,0.0,0.0,0.0,0.0,0.0,0.0,0.0,0.0,0.0,0.0,0.0,0.0,0.0,0.0,0.0,0.0,0.0,0.0,0.0,0.0,0.0,0.0,0.0,0.0,0.0,0.0,0.0,0.0,0.0,0.0,0.0,0.0,0.0,0.0,0.0,0.0,0.0,0.0,0.0,0.0,0.0,0.0,0.0,0.0,0.0,0.0,0.0,0.0,0.0,0.0,0.0,0.0,0.0,0.0,0.0,0.0,0.0,0.0,0.0,0.0,0.0,0.0,0.0,0.0,0.0,0.0,0.0,0.0,0.0,0.0,0.0,0.0,0.0,0.0,0.0,0.0,0.0,0.0,0.0,0.0,0.0,0.0,0.0,0.0,0.0,0.0,0.0,0.0,0.0,0.0,0.0,0.0,0.0,0.0,0.0,0.0,0.0,0.0,0.0,0.0,0.0,0.0,0.0,0.0,0.0,0.0,0.0,0.0,0.0,0.0,0.0,0.0,0.0,0.0,0.0,0.0,0.0,0.0,0.0,0.0,0.0,0.0,0.0,0.0,0.0,0.0,0.0,0.0,0.0,0.0,0.0,0.0,0.0,0.0,0.0,0.0,0.0,0.0,0.0,0.0,0.0,0.0,0.0,0.0,0.0,0.0,0.0,0.0,0.0,0.0,0.0,0.0,0.0,0.0,0.0,0.0,0.0,0.0,0.0,0.0,0.0,0.0,0.0,0.0,0.0,0.0,0.0,0.0,0.0,0.0,0.0,0.0,0.0,0.0,0.0,0.0,0.0,0.0,0.0,0.0,0.0,0.0,0.0,0.0,0.0,0.0,0.0,0.0,0.0,0.0,0.0,0.0,0.0,0.0,0.0,0.0,0.0,0.0,0.0,0.0,0.0,0.0,0.0,0.0,0.0,0.0,0.0,0.0,0.0,0.0,0.0,0.0,0.0,0.0,0.0,0.0,0.0,0.0,0.0,0.0,0.0,0.0,0.0,0.0,0.0,0.0,0.0,0.0,0.0,0.0,0.0,0.0,0.0,0.0,0.0,0.0,0.0,0.0,0.0,0.0,0.0,0.0,0.0,0.0,0.0,0.0,0.0,0.0,0.0,0.0,0.0,0.0,0.0,0.0,0.0,0.0,0.0,0.0,0.0,0.0,0.0,0.0,0.0,0.0,0.0,0.0,0.0,0.0,0.0,0.0,0.0,0.0,0.0,0.0,0.0,0.0,0.0,0.0,0.0,0.0,0.0,0.0,0.0,0.0,0.0,0.0,0.0,0.0,0.0,0.0,0.0,0.0,0.0,0.0,0.0,0.0,0.0,0.0,0.0,0.0,0.0,0.0,0.0,0.0,0.0,0.0,0.0,0.0,0.0,0.0,0.0,0.0,0.0,0.0,0.0,0.0,0.0,0.0,0.0,0.0,0.0,0.0,0.0,0.0,0.0,0.0,0.0,0.0,0.0,0.0,0.0,0.0,0.0,0.0,0.0,0.0,0.0,0.0,0.0,0.0,0.0,0.0,0.0,0.0,0.0,0.0,0.0,0.0,0.0,0.0,0.0,0.0,0.0,0.0,0.0,0.0,0.0,0.0,0.0,0.0,0.0,0.0,0.0,0.0,0.0,0.0,0.0,0.0,0.0,0.0,0.0,0.0,0.0,0.0,0.0,0.0,0.0,0.0,0.0,0.0,0.0,0.0,0.0,0.0,0.0,0.0,0.0,0.0,0.0,0.0,0.0,0.0,0.0,0.0,0.0,0.0,0.0,0.0,0.0,0.0,0.0,0.0,0.0,0.0,0.0,0.0,0.0,0.0,0.0,0.0,0.0,0.0,0.0,0.0,0.0,0.0,0.0,0.0,0.0,0.0,0.0,0.0,0.0,0.0,0.0,0.0,0.0,0.0,0.0,0.0,0.0,0.0,0.0,0.0,0.0,0.0,0.0,0.0,0.0,0.0,0.0,0.0,0.0,0.0,0.0,0.0,0.0,0.0,0.0,0.0,0.0,0.0,0.0,0.0,0.0,0.0,0.0,0.0,0.0,0.0,0.0,0.0,0.0,0.0,0.0,0.0,0.0,0.0,0.0,0.0,0.0,0.0,0.0,0.0,0.0,0.0,0.0,0.0,0.0,0.0,0.0,0.0,0.0,0.0,0.0,0.0,0.0,0.0,0.0,0.0,0.0,0.0,0.0,0.0,0.0,0.0,0.0,0.0,0.0,0.0,0.0,0.0,0.0,0.0,0.0,0.0,0.0,0.0,0.0,0.0,0.0,0.0,0.0,0.0,0.0,0.0,0.0,0.0,0.0,0.0,0.0,0.0,0.0,0.0,0.0,0.0,0.0,0.0,0.0,0.0,0.0,0.0,0.0,0.0,0.0,0.0,0.0,0.0,0.0,0.0,0.0,0.0,0.0,0.0,0.0,0.0,0.0,0.0,0.0,0.0,0.0,0.0,0.0,0.0,0.0,0.0,0.0,0.0,0.0,0.0,0.0,0.0,0.0,0.0,0.0,0.0,0.0,0.0,0.0,0.0,0.0,0.0,0.0,0.0,0.0,0.0,0.0,0.0,0.0,0.0,0.0,0.0,0.0,0.0,0.0,0.0,0.0,0.0,0.0,0.0,0.0,0.0,0.0,0.0,0.0,0.0,0.0,0.0,0.0,0.0,0.0,0.0,0.0,0.0,0.0,0.0,0.0,0.0,0.0,0.0,0.0,0.0,0.0,0.0,0.0,0.0,0.0,0.0,0.0,0.0,0.0,0.0,0.0,0.0,0.0,0.0,0.0,0.0,0.0,0.0,0.0,0.0,0.0,0.0,0.0,2.7927,2.5081,0.0,0.0,0.0,0.0,0.0,0.0,0.0,0.0,0.0,0.0,0.0,0.0,0.0,0.0,0.0,0.0,0.0,0.0,0.0,0.0,0.0,0.0,0.0,0.0,0.0,0.0,0.0,0.0,0.0,0.0,0.0,0.0,0.0,0.0,0.0,0.0,0.0,0.0,2.0377,2.2077,2.4221,2.2394,2.1446,2.1288,0.0,0.0,0.0,0.0,0.0,0.0,0.0,0.0,0.0,0.0,0.0,0.0,0.0,0.0,0.0,0.0,0.0,0.0,0.0,0.0,0.0,0.0,0.0,0.0,0.0,0.0,0.0,0.0,0.0,0.0,0.0,0.0,0.0,0.0,0.0,0.0,0.0,0.0,0.0,0.0,0.0,0.0,0.0,0.0,0.0,0.0,0.0,0.0,0.0,0.0,0.0,0.0,0.0,0.0,0.0,0.0,0.0,0.0,0.0,0.0,0.0,0.0,0.0,0.0,0.0,0.0,0.0,0.0,0.0,0.0,3.0664,2.8805,0.0,0.0,0.0,0.0,0.0,0.0,0.0,0.0,0.0,0.0,0.0,0.0,0.0,0.0,0.0,0.0,0.0,0.0,0.0,0.0,0.0,0.0,0.0,0.0,1.5473,1.5384,1.6034,1.6664,0.0,0.0,0.0,0.0,0.0,0.0,0.0,1.9061,1.9421,1.9765,2.2032,2.3994,2.559,2.4984,2.4611,2.4379,2.2236,0.0,0.0,0.0,0.0,0.0,0.0,0.0,0.0,0.0,0.0,0.0,0.0,0.0,0.0,0.0,0.0,0.0,0.0,0.0,0.0,0.0,0.0,0.0,0.0,0.0,0.0,0.0,0.0,0.0,0.0,0.0,0.0,0.0,0.0,0.0,0.0,0.0,0.0,0.0,0.0,0.0,0.0,0.0,0.0,0.0,0.0,0.0,0.0,0.0,0.0,0.0,0.0,0.0,0.0,0.0,0.0,0.0,0.0,0.0,0.0,0.0,0.0,0.0,3.3595,3.4078,3.3909,3.5053,3.5756,3.592,3.4046,3.3442,3.3588,3.1043,0.0,0.0,0.0,0.0,0.0,0.0,0.0,0.0,0.0,0.0,0.0,0.0,0.0,0.0,0.0,0.0,0.0,0.0,0.0,0.0,0.0,1.6082,1.6584,1.6111,1.6888,1.743,0.0,0.0,0.0,0.0,0.0,0.0,1.964,2.0579,2.1884,2.3578,2.5867,2.6493,2.5597,2.5509,2.5766,2.6254,2.4105,2.3193,2.3241,0.0,0.0,0.0,0.0,0.0,0.0,0.0,0.0,0.0,0.0,0.0,0.0,0.0,0.0,0.0,0.0,0.0,0.0,0.0,0.0,0.0,0.0,0.0,0.0,0.0,0.0,0.0,0.0,0.0,0.0,0.0,0.0,0.0,0.0,0.0,0.0,0.0,0.0,0.0,0.0,0.0,2.8097,2.7238,0.0,0.0,0.0,0.0,0.0,0.0,0.0,0.0,0.0,0.0,0.0,0.0,0.0,3.4486,3.4266,3.4931,3.5568,3.6193,3.7218,3.8412,3.9717,4.0117,4.0553,4.0962,4.0648,0.0,3.3774,3.3367,0.0,0.0,0.0,0.0,0.0,0.0,0.0,0.0,0.0,0.0,0.0,0.0,0.0,0.0,0.0,0.0,0.0,0.0,0.0,0.0,0.0,1.7327,1.8139,1.7909,1.9092,1.9824,1.9751,2.0167,0.0,0.0,0.0,2.2575,2.2826,2.3373,2.4182,2.5252,2.6262,2.6759,2.6772,2.6922,2.7101,2.7203,2.5884,2.4841,2.4014,2.3318,0.0,0.0,0.0,0.0,0.0,0.0,0.0,0.0,0.0,0.0,0.0,0.0,0.0,0.0,0.0,0.0,0.0,0.0,0.0,0.0,0.0,0.0,0.0,0.0,0.0,0.0,0.0,0.0,0.0,0.0,0.0,0.0,0.0,0.0,0.0,0.0,0.0,0.0,0.0,2.7266,2.8207,2.8198,2.851,2.8422,0.0,0.0,0.0,0.0,0.0,0.0,0.0,0.0,0.0,3.7267,3.7547,3.815,3.9197,3.9522,3.9843,4.0163,4.0839,4.1403,4.1868,4.2066,4.2125,4.2129,4.197,4.0554,3.8299,3.7503,3.63,3.4791,0.0,0.0,0.0,0.0,3.2479,3.284,0.0,0.0,0.0,0.0,0.0,0.0,0.0,0.0,0.0,0.0,0.0,0.0,1.6989,1.8617,1.9654,1.9521,2.1017,2.1832,2.1569,2.2208,0.0,0.0,2.3994,2.476,2.5238,2.5514,2.5806,2.6134,2.6689,2.7413,2.8249,2.8659,2.8731,2.852,2.7923,2.6685,2.501,2.4128,2.3755,2.3739,0.0,0.0,0.0,0.0,0.0,0.0,0.0,0.0,0.0,0.0,0.0,0.0,0.0,0.0,0.0,0.0,0.0,0.0,0.0,0.0,0.0,0.0,0.0,0.0,0.0,0.0,0.0,0.0,0.0,0.0,0.0,0.0,0.0,0.0,0.0,0.0,0.0,2.8742,2.9681,2.9768,3.0986,3.1244,0.0,0.0,0.0,0.0,0.0,0.0,3.7162,3.7327,3.8402,4.0568,4.0591,4.1285,4.2841,4.2841,4.2962,4.3163,4.3345,4.3498,4.3595,4.3562,4.3477,4.3292,4.3087,4.2994,4.2866,4.1064,4.0018,3.9313,3.7417,3.6535,3.631,3.6056,3.6068,3.6457,0.0,0.0,0.0,0.0,0.0,0.0,0.0,0.0,0.0,0.0,0.0,1.8016,1.8016,1.986,2.0884,2.0381,2.1924,2.2576,2.1742,2.3955,2.4989,2.4255,2.5361,2.5802,2.5395,2.6025,2.6385,2.6461,2.858,2.9645,2.9705,3.0492,3.0854,3.0818,3.0396,2.885,2.65,2.5058,2.4452,2.4394,2.3755,0.0,0.0,0.0,0.0,0.0,0.0,0.0,0.0,0.0,0.0,0.0,0.0,0.0,0.0,0.0,0.0,0.0,0.0,0.0,0.0,0.0,0.0,0.0,0.0,0.0,0.0,0.0,0.0,0.0,0.0,0.0,0.0,0.0,0.0,0.0,0.0,0.0,0.0,3.265,3.5469,0.0,0.0,0.0,0.0,3.5912,3.6739,3.8109,4.0083,4.0671,4.189,4.3996,4.3809,4.3535,4.3278,4.3278,4.366,4.4405,4.3984,4.4552,4.6014,4.5561,4.5599,4.6002,4.5989,4.5977,4.5768,4.294,4.0993,3.976,3.9647,3.8744,3.7623,3.8553,3.8896,3.9056,0.0,0.0,0.0,0.0,0.0,0.0,0.0,0.0,1.649,1.659,1.763,1.836,1.836,2.0914,2.2555,2.2416,2.4335,2.5266,2.4516,2.5361,2.5765,2.5468,2.6377,2.7021,2.7322,2.8328,2.8629,2.8181,3.0084,3.0925,3.0792,3.2373,3.2933,3.2625,3.3005,3.2318,3.0769,2.8796,2.7693,2.7245,2.7012,2.6079,0.0,0.0,0.0,0.0,0.0,0.0,0.0,0.0,0.0,0.0,0.0,0.0,0.0,0.0,0.0,0.0,0.0,0.0,0.0,0.0,0.0,0.0,0.0,0.0,0.0,0.0,0.0,0.0,0.0,0.0,0.0,0.0,0.0,0.0,0.0,0.0,0.0,3.4341,3.6441,0.0,3.646,3.7875,3.9149,3.9838,4.119,4.2312,4.3059,4.3277,4.3966,4.5234,4.5156,4.5544,4.6448,4.6448,4.6843,4.7591,4.7421,4.7641,4.8174,4.7879,4.7847,4.7989,4.7814,4.7739,4.7661,4.6634,4.5191,4.3619,4.3334,4.297,4.2591,4.2338,4.2443,4.2704,0.0,0.0,0.0,0.0,0.0,0.0,0.0,0.0,1.6722,1.7063,1.813,1.9089,1.972,2.2189,2.3917,2.4209,2.5951,2.6747,2.6055,2.6545,2.6757,2.6523,2.7302,2.8127,2.8954,2.9756,3.0315,3.0627,3.2292,3.3157,3.3256,3.5126,3.5806,3.5487,3.5891,3.5657,3.4848,3.3267,3.1347,2.9332,2.9221,2.8168,2.6636,0.0,0.0,0.0,0.0,0.0,0.0,0.0,0.0,0.0,0.0,0.0,0.0,0.0,0.0,0.0,0.0,0.0,0.0,0.0,0.0,0.0,0.0,0.0,0.0,0.0,0.0,0.0,0.0,0.0,0.0,0.0,0.0,0.0,0.0,3.5139,3.7095,3.6189,3.8316,3.971,3.9294,4.0817,4.2115,4.2829,4.4192,4.5006,4.5006,4.5517,4.607,4.6587,4.6855,4.7497,4.8562,4.8579,4.8817,4.9293,4.9293,4.9293,4.9293,4.9154,4.9098,4.9086,4.8907,4.8831,4.8831,4.8831,4.8063,4.6838,4.6448,4.6356,4.6382,4.5467,4.5337,4.5522,0.0,0.0,0.0,0.0,0.0,0.0,0.0,1.6355,1.6973,1.7964,1.8983,2.0301,2.2106,2.3677,2.4904,2.5636,2.6553,2.6801,2.608,2.75,2.8049,2.7332,2.8165,2.9098,3.0077,3.0226,3.1385,3.3671,3.5245,3.6389,3.7109,3.8636,3.9346,3.9325,3.9029,3.8739,3.8447,3.8115,3.5144,3.0629,3.0223,2.9594,2.8773,0.0,0.0,0.0,0.0,0.0,0.0,0.0,0.0,0.0,0.0,0.0,0.0,0.0,0.0,0.0,0.0,0.0,0.0,0.0,0.0,0.0,0.0,0.0,0.0,0.0,0.0,0.0,0.0,0.0,0.0,0.0,0.0,0.0,3.5986,3.7419,3.86,3.8418,4.1447,4.324,4.2476,4.3757,4.4649,4.4667,4.5416,4.5873,4.5873,4.7366,4.8234,4.8234,4.8942,4.9311,4.9329,4.9329,4.9364,4.94,4.94,4.943,4.9454,4.9454,4.9454,4.9454,4.9454,4.9454,4.9454,4.9454,4.9332,4.9098,4.8745,4.8607,4.8517,4.772,4.7423,4.7328,0.0,0.0,0.0,0.0,0.0,0.0,0.0,1.6508,1.7178,1.799,1.914,2.052,2.219,2.3714,2.4957,2.5841,2.6633,2.7066,2.694,2.7453,2.7697,2.7585,2.8948,2.9819,3.0085,3.2862,3.4621,3.5281,3.7501,3.8691,3.8911,4.0061,4.0519,4.04,4.0852,4.0621,3.9896,3.9512,3.8239,3.6306,3.4216,3.2646,3.1418,0.0,0.0,0.0,0.0,0.0,0.0,0.0,0.0,0.0,0.0,0.0,0.0,0.0,0.0,0.0,0.0,0.0,0.0,0.0,0.0,0.0,0.0,0.0,0.0,0.0,0.0,0.0,0.0,0.0,0.0,0.0,3.7882,3.9187,3.8646,4.0623,4.2301,4.2782,4.3693,4.4435,4.4803,4.5231,4.5713,4.6302,4.7098,4.7544,4.7544,4.8478,4.9002,4.9002,4.9198,4.959,5.0161,5.0161,5.0762,5.1917,5.1917,5.219,5.2699,5.2699,5.2699,5.2699,5.2699,5.2699,5.2699,5.2699,5.2353,5.163,4.966,4.8761,4.8582,4.8352,4.8123,4.7796,0.0,0.0,0.0,0.0,0.0,0.0,0.0,1.6554,1.7332,1.8425,1.9398,2.0841,2.3082,2.4132,2.5155,2.6364,2.6902,2.7231,2.7392,2.7511,2.794,2.8755,2.9687,3.0837,3.2208,3.4774,3.6447,3.7102,3.9211,4.0405,4.0753,4.1665,4.2215,4.242,4.2836,4.2671,4.2086,4.1828,4.1442,4.0726,3.8332,3.6171,3.4186,3.2651,3.1478,3.0463,2.906,2.8296,2.7669,2.5791,0.0,0.0,0.0,0.0,0.0,0.0,0.0,0.0,0.0,0.0,0.0,0.0,0.0,0.0,0.0,0.0,0.0,0.0,0.0,0.0,0.0,0.0,0.0,0.0,4.0474,4.1875,4.2206,4.3241,4.4239,4.5006,4.5095,4.5541,4.6688,4.6813,4.7122,4.7907,4.8389,4.8657,4.8657,4.9394,4.9805,4.9805,5.0459,5.103,5.1494,5.1802,5.2427,5.335,5.335,5.3599,5.4001,5.4001,5.4001,5.4001,5.4001,5.4001,5.4001,5.4001,5.3747,5.3176,0.0,0.0,0.0,0.0,4.9438,4.9003,0.0,0.0,0.0,0.0,0.0,0.0,0.0,1.6595,1.7562,1.9058,1.9767,2.1288,2.4282,2.4722,2.5428,2.6998,2.7249,2.7392,2.7549,2.7674,2.8516,3.0247,3.0414,3.1993,3.5266,3.6221,3.7452,3.9066,4.0521,4.1655,4.2458,4.3179,4.39,4.4614,4.4614,4.4504,4.4327,4.4327,4.4197,4.3821,4.2137,3.9784,3.7069,3.4988,3.4024,3.3359,3.0199,2.9118,2.8915,2.726,0.0,0.0,0.0,0.0,0.0,0.0,0.0,0.0,0.0,0.0,0.0,0.0,0.0,0.0,0.0,0.0,0.0,0.0,0.0,0.0,0.0,0.0,0.0,0.0,4.3152,4.5024,4.582,4.5398,4.5274,4.5998,4.607,4.6659,4.8169,4.8312,4.8597,4.9252,4.9382,4.9448,4.9448,5.0197,0.0,0.0,0.0,5.2934,5.3023,5.3658,5.4037,5.4126,5.4126,5.418,5.4282,5.4282,5.4282,5.4282,5.4282,5.4282,5.4282,5.4282,5.4228,5.4068,5.3327,5.2541,5.1808,5.1539,5.1034,5.0499,0.0,0.0,0.0,0.0,0.0,0.0,0.0,1.7155,1.8201,1.9375,2.0368,2.1939,2.4474,2.4777,2.5461,2.7112,2.7382,2.7587,2.7882,2.7925,2.8695,3.038,3.1072,3.2931,3.6096,3.7585,3.9111,4.0663,4.1591,4.2483,4.3276,4.3436,4.39,4.4614,4.4614,4.4592,4.4548,4.4548,4.4509,4.4407,4.3883,4.2315,4.0049,3.8088,3.7291,3.6995,3.5091,3.4413,3.4005,3.1293,2.965,2.8593,2.7721,2.6597,0.0,0.0,0.0,0.0,0.0,0.0,0.0,0.0,0.0,0.0,0.0,0.0,0.0,0.0,0.0,0.0,0.0,0.0,0.0,4.2774,4.4431,4.5856,4.6641,4.7187,4.7562,4.7723,4.7741,4.8098,4.9002,4.9091,4.9145,4.9287,4.9894,5.0268,5.0268,5.103,5.1774,5.2417,5.2738,5.3202,5.3782,5.3943,5.4335,5.496,5.496,0.0,5.5937,5.5937,5.5937,5.5937,5.5937,5.5937,5.5937,5.5937,5.5562,5.4888,5.4104,5.3332,5.2641,5.2302,5.1741,5.1083,0.0,0.0,0.0,0.0,0.0,0.0,0.0,1.7198,1.8309,1.9277,2.0472,2.2004,2.3984,2.4225,2.4952,2.6689,2.7407,2.7817,2.8,2.8071,2.8995,3.1003,3.1492,3.3356,3.6925,3.8183,3.9565,4.1092,4.1905,4.2894,4.4061,4.4061,4.4685,4.5802,4.5802,4.5802,4.5802,4.5802,4.5802,4.5755,4.5252,4.4163,4.2618,4.0463,3.953,3.9059,3.695,3.5928,3.5249,3.2967,3.1422,3.0437,3.0288,2.9329,2.8144,0.0,0.0,0.0,0.0,0.0,0.0,0.0,0.0,0.0,0.0,0.0,0.0,0.0,0.0,3.8227,3.9609,0.0,4.318,4.4442,4.5963,4.7134,4.7544,4.8258,4.8603,4.8234,4.8526,4.9049,4.9822,4.9894,5.0072,5.0465,5.0949,5.1379,5.1785,5.224,5.2869,5.3675,5.4051,5.4432,5.4796,5.5124,5.5509,5.5902,5.5821,5.6008,5.6401,5.6401,5.6401,5.6401,5.6401,5.6401,5.6401,5.6401,5.6151,5.5758,5.5352,5.4491,5.3444,5.3264,5.287,5.2365,0.0,0.0,0.0,0.0,0.0,0.0,0.0,1.7247,1.8384,1.9183,2.0575,2.2054,2.3457,2.3665,2.4446,2.6286,2.7391,2.8014,2.8042,2.814,2.9255,3.1599,3.1546,3.3392,3.7506,3.8237,3.9397,4.1092,4.1905,4.3019,4.44,4.4531,4.5381,4.6766,4.6938,4.7009,4.7009,4.7009,4.7009,4.6938,4.6123,4.5309,4.437,4.2351,4.1279,4.0521,3.7891,3.6534,3.5723,3.4011,3.2778,3.2126,3.284,3.2176,3.098,3.0153,2.9992,0.0,0.0,0.0,0.0,0.0,0.0,0.0,0.0,3.4906,3.5913,3.8306,3.941,4.0552,4.2598,4.3643,4.4631,4.6034,4.7405,4.8339,4.85,4.9238,4.9547,4.8989,4.9275,4.9901,5.0844,5.0885,5.1148,5.1909,5.2125,5.2526,5.3211,5.3427,5.3894,5.4685,5.5284,5.568,5.5823,5.6366,5.6626,5.66,5.6492,5.6428,5.6401,5.6401,5.6401,5.6401,5.6401,5.6401,5.6401,5.6401,5.6401,5.6401,5.6401,5.5616,5.446,5.43,5.3993,5.3592,0.0,0.0,0.0,0.0,0.0,0.0,0.0,0.0,1.9044,1.9494,2.1147,2.2613,2.3501,2.3665,2.4479,2.6409,2.7455,2.8056,2.8168,2.8182,2.9255,3.1599,3.1028,3.2813,3.7496,3.7702,3.8835,4.1092,4.1905,4.2751,4.3633,4.4293,4.5077,4.5963,4.6676,4.7009,4.7009,4.7009,4.7009,4.6938,4.6123,4.5309,4.4496,4.3583,4.2764,4.1798,3.9397,3.8471,3.8053,3.5732,3.4597,3.4224,3.4613,3.4289,3.34,3.1558,3.1029,3.0519,2.8112,2.9804,3.2817,3.5084,3.661,3.839,0.0,4.1631,4.1586,4.3408,4.4431,4.5066,4.5374,4.607,4.6902,4.7788,4.8331,4.8885,4.9607,5.0645,5.1373,5.1475,5.082,5.094,5.2397,5.2223,5.2251,5.2812,5.3203,5.3518,5.3804,5.4146,5.4721,5.5446,5.5554,5.5931,5.665,5.6745,5.6733,5.66,5.6586,5.6519,5.6401,5.6401,5.6401,5.6401,5.6401,5.6401,5.6401,5.6401,5.6401,5.6401,5.6401,5.6294,5.6044,5.533,5.4576,5.3944,0.0,0.0,0.0,0.0,0.0,0.0,0.0,0.0,0.0,1.868,2.0538,2.1948,2.2282,2.3352,2.4553,2.585,2.6856,2.7649,2.8171,2.8196,2.8845,3.0297,3.045,3.2091,3.5489,3.6444,3.7844,3.9762,4.1002,4.2012,4.2822,4.3597,4.4364,4.5113,4.5452,4.5595,4.5595,4.5595,4.5595,4.5559,4.5238,4.4649,4.3829,4.258,4.1895,4.1369,3.9458,3.8201,0.0,3.5694,3.479,3.4446,3.5483,3.5341,3.4517,3.3268,3.3187,3.3621,3.4046,3.4782,3.6007,3.8445,3.9828,4.0991,4.2452,4.2831,4.3334,4.4959,4.5945,4.6498,4.6498,4.7152,4.7875,4.8396,4.9381,5.031,5.0968,5.184,5.2558,5.2961,5.2498,5.2371,5.3025,5.2938,5.2941,5.3152,5.3842,5.4482,5.5027,5.5514,5.6132,5.6903,5.6663,5.6698,5.7041,5.6964,5.6886,5.6834,5.6742,5.6653,5.6519,5.6519,5.6465,5.6401,5.6401,5.6401,5.6401,5.6401,5.6401,5.6401,5.6401,5.6401,5.6347,5.6026,5.5687,5.533,0.0,0.0,0.0,0.0,0.0,0.0,0.0,0.0,0.0,0.0,1.9775,2.1092,2.1417,2.3158,2.4532,2.5114,2.6288,2.7252,2.7821,2.8088,2.8552,2.9362,2.9915,3.1324,3.3723,3.5275,3.6756,3.8138,3.969,4.0753,4.1351,4.2134,4.3026,4.3971,4.4203,4.4417,4.4614,4.4614,4.4478,4.4275,4.4043,4.3383,4.2384,4.1206,4.0378,3.9664,3.854,3.7523,3.6568,3.5552,3.4856,3.4588,3.5721,3.5677,3.5017,3.4062,3.3821,3.4481,3.7104,3.7702,3.821,4.0788,4.2369,4.3279,4.3279,4.3893,4.4785,4.5909,4.6587,4.7009,4.7009,4.7726,4.8494,4.8951,5.0402,5.1682,5.2281,5.2951,5.3465,5.368,5.3674,5.36,5.3423,5.3439,5.3492,5.3655,5.4621,5.5476,5.6091,5.6821,5.7494,5.8072,5.7766,5.7522,5.7394,5.7295,5.7158,5.7003,5.6899,5.6781,5.6653,5.6626,5.6546,5.6437,5.6428,5.6401,5.6401,5.6401,5.6401,5.6401,5.6401,5.6401,5.6401,5.6401,5.6401,5.6311,0.0,0.0,0.0,0.0,0.0,0.0,0.0,0.0,0.0,0.0,0.0,0.0,0.0,2.3203,2.4315,2.4332,2.5962,2.7002,2.7038,2.7774,2.8552,2.9362,2.9415,3.0529,3.2882,3.4454,3.5641,3.647,3.8085,3.8888,3.8923,3.9655,4.086,4.2404,4.3197,4.3936,4.4614,4.4614,4.4185,4.3472,4.268,4.1413,4.0002,3.9958,3.8513,3.6542,3.6488,3.6943,3.7318,3.573,3.5195,3.5177,3.5231,3.5231,3.4892,3.3374,3.1857,3.1324,3.4464,3.6435,3.8353,4.1476,4.3993,4.5695,4.5695,4.632,4.692,4.6955,4.6973,4.7009,4.7009,4.7911,4.8948,4.9735,5.1273,5.2639,5.3436,5.4017,5.4123,5.3483,5.4083,5.4335,5.375,5.3759,5.3987,5.4522,5.572,5.6519,5.6674,5.7859,5.8539,5.8576,5.8566,5.8343,5.7882,5.787,5.7582,5.7003,5.7003,5.6925,5.6781,5.6667,5.66,5.6586,5.6469,5.6401,5.6401,5.6401,5.6401,5.6401,5.6401,5.6401,5.6401,5.6401,5.6401,5.6401,0.0,0.0,0.0,0.0,0.0,0.0,0.0,0.0,0.0,0.0,0.0,0.0,0.0,0.0,0.0,0.0,2.5066,2.5908,2.6931,2.7246,2.7756,2.857,2.9112,2.9779,3.0564,3.2081,3.3009,3.3277,3.5373,3.6408,3.6444,3.7755,3.8657,3.9201,3.946,3.9727,3.995,3.995,3.9817,3.9567,3.9281,3.8853,3.8264,3.7193,3.6622,3.6203,0.0,3.4587,3.5204,3.4642,3.4464,3.4553,3.5052,3.4856,3.425,3.3221,3.3624,3.4882,3.7014,3.9512,4.2019,4.4107,4.5624,4.6598,4.6598,4.6813,4.7009,4.7009,4.6581,4.6262,4.6489,4.7373,4.8452,4.9701,5.1379,5.2929,5.4098,5.3967,5.3894,5.4349,5.4156,5.4122,5.4458,5.4517,5.4605,5.4791,5.6228,5.7131,5.7162,5.8323,5.8988,5.8988,5.874,5.8524,5.8365,5.8064,5.7789,5.7594,5.7183,5.6977,5.6938,5.6794,5.6728,5.6733,5.66,5.6532,5.6519,5.6442,5.6401,5.6401,5.6401,5.6401,5.6401,5.6401,5.6401,5.6401,0.0,0.0,0.0,0.0,0.0,0.0,0.0,0.0,0.0,0.0,0.0,0.0,0.0,0.0,0.0,0.0,0.0,2.5122,2.611,2.6414,2.6925,2.7739,2.8294,2.8851,2.9429,3.0702,3.1379,3.1379,3.3128,3.3979,3.4015,3.531,3.6212,3.6747,3.7032,3.7336,3.7595,3.7595,3.7425,3.7175,3.7175,3.6836,3.6265,3.548,3.5356,0.0,3.3874,3.3651,3.4053,3.3776,3.3865,3.4125,3.4311,3.4044,3.3723,3.4052,3.5212,3.7006,3.9744,4.1956,4.3968,4.5921,4.6795,4.7205,4.732,4.7254,4.7216,4.7331,4.6632,4.6076,4.6385,4.734,4.8269,4.89,5.0936,5.2711,5.3596,5.3595,5.3747,5.4394,5.4276,5.4219,5.4446,5.4731,5.4901,5.4901,5.6455,5.7403,5.7403,5.8705,5.9461,5.9461,5.8915,5.8698,5.8802,5.8237,5.8004,5.8146,5.7747,5.748,5.732,5.7183,5.7036,5.686,5.6728,5.6662,5.6667,5.6532,5.6465,5.6465,5.6428,5.6401,5.6401,5.6401,5.6401,5.6401,0.0,0.0,0.0,0.0,0.0,0.0,0.0,0.0,0.0,0.0,0.0,0.0,0.0,0.0,0.0,0.0,0.0,0.0,2.4694,2.5348,2.6104,2.6895,2.7007,2.778,2.9346,3.0198,3.0646,3.0682,3.1349,3.168,3.1698,3.2424,3.3588,3.5052,3.5828,3.6604,3.7363,3.7363,3.6925,3.6221,3.6221,3.5346,3.4107,3.482,3.4642,3.4035,3.4035,3.4035,3.3919,3.3168,3.3463,3.4018,3.3249,3.3096,3.3632,3.5819,3.6595,3.7755,4.2277,4.3607,4.4321,4.6859,4.7515,4.7621,4.7941,4.7778,4.7631,4.7897,4.7067,4.6344,4.6577,4.7712,4.835,4.7573,5.0073,5.2126,5.2183,5.3062,5.3726,5.3764,5.4408,5.456,5.384,5.4484,5.4977,5.4977,5.6474,5.7422,5.746,5.9022,5.9874,5.9837,5.9097,5.8858,5.9168,5.8427,5.823,5.8597,5.8597,5.8365,5.7928,5.7789,5.7474,5.7036,5.6886,5.6807,5.6794,5.6667,5.6613,5.6586,5.6451,5.6414,5.6401,5.6401,5.6401,5.6401,0.0,0.0,0.0,0.0,0.0,0.0,0.0,0.0,0.0,0.0,0.0,0.0,0.0,0.0,0.0,0.0,0.0,0.0,2.4623,2.4873,2.5319,2.6068,2.6178,2.6681,2.7684,2.7983,2.8411,2.9004,2.9732,3.0091,3.0109,3.0798,3.1635,3.2599,3.2813,3.3356,3.4096,3.4096,3.3989,3.3793,3.3793,3.3552,3.3239,3.341,3.3374,3.3221,3.3221,3.3221,3.316,3.2971,3.3802,3.4874,3.4686,3.5846,3.7309,3.7282,3.9379,4.1956,4.3169,4.495,4.6661,4.7438,4.784,4.8049,4.8127,4.8195,4.8059,4.7395,4.6626,4.5983,4.5645,4.6517,4.7464,4.8052,5.0492,5.2543,5.3206,5.3526,5.3908,5.4515,5.4257,5.4155,5.456,5.5375,5.5868,5.5868,5.6815,5.7668,5.8339,5.9344,5.9628,5.9022,5.8813,5.8727,5.8826,5.8863,5.8801,5.8597,5.8597,5.8534,5.8407,5.8012,5.7777,5.7636,5.7163,5.6951,5.6938,5.6807,5.6689,5.66,5.6559,5.6478,5.6401,5.6401,5.6401,5.6401,0.0,0.0,0.0,0.0,0.0,0.0,0.0,0.0,0.0,0.0,0.0,0.0,0.0,0.0,0.0,0.0,0.0,0.0,0.0,2.4141,2.4528,2.5277,2.5386,2.5787,2.6606,2.704,2.7486,2.7962,2.8674,2.9028,2.9022,2.9698,3.0261,3.0707,3.1028,3.1421,3.1875,3.2214,3.2382,0.0,0.0,3.29,3.29,3.29,3.3114,3.3374,3.3025,3.3132,3.3481,3.3802,3.449,3.532,3.6024,3.7184,3.846,3.9388,4.1484,4.3722,4.4767,4.6124,4.7374,4.7744,4.7969,4.8083,4.7997,4.796,4.7729,4.7024,4.6174,4.5527,4.5446,4.627,4.7038,4.7271,4.9865,5.2032,5.2525,5.3245,5.401,5.4799,5.4503,5.456,5.5394,5.5906,5.652,5.724,5.7714,5.8188,5.8661,5.9135,5.9173,5.8718,5.7998,5.7771,5.8131,5.9043,5.938,5.9169,5.9169,5.9055,5.8852,5.8599,5.826,5.7882,5.7546,5.727,5.7079,5.6951,5.6847,5.6768,5.6702,5.6613,5.6478,5.6478,5.6437,5.6401,0.0,0.0,0.0,0.0,0.0,0.0,0.0,0.0,0.0,0.0,0.0,0.0,0.0,0.0,0.0,0.0,0.0,0.0,0.0,0.0,2.3791,2.4516,2.461,2.5028,2.5823,2.6591,2.7067,2.7224,2.7797,2.8128,2.8229,2.88,2.9208,2.944,3.0075,3.0414,3.0557,3.1367,3.1696,3.1768,3.2579,3.29,3.29,0.0,3.3338,3.3847,3.3142,3.3427,3.4214,3.4945,3.5338,3.5792,3.7282,3.805,3.8924,4.1655,4.3161,4.44,4.6456,4.7059,4.7283,4.7821,4.8053,4.8076,4.7748,4.7501,4.7189,4.6653,4.5773,4.5209,4.5509,4.6391,4.684,4.6191,4.8964,5.1237,5.135,5.2715,5.401,5.4799,5.4806,5.5129,5.6114,5.6311,5.6956,5.8415,5.8624,5.8699,5.8699,5.8586,5.8472,5.8377,5.7069,5.6683,5.7384,5.9059,5.9893,5.9893,5.9893,5.969,5.9289,5.9234,5.8802,5.8068,5.7951,5.7666,5.7289,5.71,5.7028,5.699,5.6873,5.6742,5.6626,5.6613,5.6532,5.641,0.0,0.0,0.0,0.0,0.0,0.0,0.0,0.0,0.0,0.0,0.0,0.0,0.0,0.0,0.0,0.0,0.0,0.0,0.0,0.0,0.0,2.3701,2.3764,2.4174,2.4992,2.5212,2.5649,2.6321,2.6392,2.6718,2.7321,2.7392,2.812,2.9405,2.9522,2.9933,3.0557,3.1367,3.1696,3.1768,3.2579,3.29,3.29,3.29,0.0,0.0,3.2953,3.3427,3.4214,3.4945,3.6078,3.7354,3.829,4.0378,4.258,4.3133,4.4767,4.648,4.6884,4.7407,4.7811,4.7759,4.8375,4.8746,4.7754,4.7787,4.7584,4.6037,4.5726,4.557,4.4973,4.5696,4.6531,4.7061,4.9423,5.1426,5.2108,5.3056,5.401,5.4799,5.4314,5.4503,5.6038,5.6796,5.7308,5.7592,5.8301,5.8699,5.8699,5.8017,5.7308,5.6645,5.7005,5.7251,5.7403,5.9059,5.9893,5.9893,5.9893,5.9861,5.9776,5.938,5.9112,5.8921,5.8205,5.7847,5.7749,5.732,5.7105,5.7003,5.6959,5.6886,5.6742,5.664,5.6586,5.6546,0.0,0.0,0.0,0.0,0.0,0.0,0.0,0.0,0.0,0.0,1.6457,1.6799,0.0,0.0,0.0,0.0,0.0,0.0,0.0,0.0,0.0,0.0,2.3499,2.3747,2.4168,2.4621,2.5248,2.6051,0.0,2.6974,2.7727,2.7654,2.8042,2.8784,2.9201,2.9594,3.0011,3.1197,3.1696,3.1768,3.2579,3.29,3.29,0.0,0.0,0.0,3.29,3.3427,3.4214,3.4945,3.5989,3.7193,3.8406,4.0681,4.2965,4.3383,4.516,4.7009,4.7009,4.7352,4.7767,4.7836,4.8327,4.8469,4.7262,4.7158,4.6844,4.5208,4.4978,4.4988,4.4754,4.5809,4.6864,4.7333,4.9538,5.1483,5.2298,5.315,5.401,5.4799,5.456,5.4977,5.6664,5.7175,5.76,5.8036,5.8036,5.8017,5.8017,5.724,5.6379,5.5546,5.6341,5.6975,5.7403,5.8661,5.9495,5.9893,5.9893,5.9893,5.9885,5.9673,5.9425,5.9187,5.8753,5.8314,5.7882,5.7666,5.7382,5.71,5.71,5.701,5.6899,5.6834,5.6715,5.66,0.0,0.0,0.0,0.0,0.0,0.0,0.0,1.6173,1.6201,1.6201,1.6316,1.6503,1.676,1.7353,0.0,0.0,0.0,0.0,0.0,0.0,0.0,0.0,0.0,0.0,2.3534,0.0,0.0,2.5721,2.6467,0.0,0.0,0.0,0.0,0.0,2.8855,2.9237,2.9487,3.0868,3.1536,0.0,0.0,3.29,3.29,0.0,0.0,0.0,0.0,3.3302,3.3982,3.4892,3.5623,3.6417,3.8041,4.0039,4.2012,4.3151,4.4928,4.6551,4.692,4.7249,4.7565,4.7829,4.8152,4.8062,4.6704,4.6453,4.607,4.4554,4.4401,4.4571,4.4616,4.6009,4.7171,4.7338,4.9339,5.122,5.2253,5.298,5.3726,5.456,5.4628,5.5299,5.6986,5.7289,5.7668,5.8377,5.7441,5.6853,5.6853,5.6266,5.5602,5.492,5.5754,5.6588,5.7384,5.8263,5.9097,5.9893,5.9893,5.9893,5.9893,5.9893,5.9698,5.9334,5.9243,5.8803,5.815,5.7985,5.769,5.7333,5.7239,5.7143,5.7041,5.7015,5.6873,5.668,0.0,0.0,0.0,0.0,0.0,0.0,0.0,1.6201,1.6201,1.6201,1.6316,1.6403,1.6436,1.746,0.0,0.0,0.0,0.0,0.0,0.0,0.0,0.0,0.0,0.0,0.0,0.0,0.0,2.4819,2.5557,0.0,0.0,0.0,0.0,0.0,0.0,2.8713,2.9458,3.0272,0.0,0.0,0.0,0.0,0.0,0.0,0.0,0.0,0.0,3.2953,3.3239,3.4704,3.5248,3.5587,3.7193,3.8826,4.0564,4.2848,4.4132,4.5131,4.6598,4.7249,4.7511,4.7543,4.7984,4.7979,4.6423,4.6282,4.6038,4.4373,4.4747,4.5178,4.4467,4.5756,4.6983,4.719,4.8683,5.0444,5.217,5.2468,5.2847,5.3707,5.3821,5.4465,5.6152,5.6967,5.7422,5.7516,5.6038,5.5129,5.5129,5.5072,5.4977,5.4901,5.5754,5.6588,5.7384,5.8263,5.9097,5.9893,5.9893,5.9893,5.9893,5.9893,5.9877,5.9809,5.9389,5.915,5.9027,5.8216,5.787,5.7789,5.7357,5.7188,5.7181,5.7036,5.6972,5.6938,0.0,0.0,0.0,0.0,0.0,0.0,0.0,1.6173,1.6201,1.6201,1.6256,1.6275,1.6275,1.7172,1.7873,0.0,0.0,0.0,0.0,0.0,0.0,0.0,0.0,0.0,0.0,0.0,2.4251,2.5302,2.5604,0.0,0.0,0.0,0.0,0.0,0.0,2.9094,2.9458,3.0182,0.0,0.0,0.0,0.0,0.0,0.0,0.0,0.0,0.0,0.0,3.3078,3.4169,3.4838,3.5391,3.6524,3.7639,3.8986,4.1359,4.3258,4.4846,4.5963,4.688,4.75,4.75,4.7243,4.6792,4.6139,4.548,4.4804,4.4135,4.4319,4.4545,4.4334,4.5653,4.6866,4.7155,4.8605,5.0165,5.15,5.1672,5.1995,5.2828,5.3378,5.4371,5.6038,5.6929,5.7403,5.7403,5.5849,5.4901,5.4901,5.4901,5.4901,5.4901,5.5242,5.583,5.6664,5.7497,5.8339,5.9173,5.9666,5.9893,5.9893,5.9893,5.9893,5.9885,5.9706,5.947,5.9168,5.8832,5.8378,5.7882,5.7702,5.7455,5.7188,5.7125,5.7079,5.6972,0.0,0.0,0.0,0.0,0.0,0.0,1.6116,1.6173,1.6201,1.6201,1.6201,1.6201,1.6201,1.6759,1.73,1.774,0.0,0.0,0.0,0.0,0.0,0.0,0.0,0.0,0.0,0.0,2.3973,2.5281,2.5517,2.6273,0.0,0.0,2.7812,2.7881,0.0,0.0,0.0,0.0,0.0,0.0,0.0,0.0,0.0,0.0,0.0,0.0,0.0,0.0,0.0,0.0,0.0,3.5052,3.6078,3.6783,3.7711,4.0057,4.2081,4.3793,4.4828,4.5853,4.6683,4.6892,4.6212,4.547,4.5417,4.4677,4.3931,4.3689,4.4042,4.436,4.424,4.5531,4.6733,4.7002,4.8286,4.9685,5.0944,5.136,5.1767,5.2336,5.3378,5.4617,5.6057,5.6929,5.7403,5.7403,5.5849,5.4901,5.4901,5.4901,5.4901,5.4901,5.4901,5.5318,5.619,5.6758,5.7467,5.8339,5.9154,5.9552,5.9552,5.9799,5.9893,5.9893,5.9893,5.9706,5.9389,5.9131,5.8661,5.8086,5.7801,5.7492,5.7188,5.7188,5.7125,5.7036,0.0,0.0,0.0,0.0,0.0,0.0,0.0,1.6201,1.6201,1.6201,1.6201,1.6201,1.6201,1.6208,1.6562,1.7421,0.0,0.0,0.0,0.0,0.0,0.0,0.0,0.0,0.0,0.0,2.4035,2.4315,2.5114,2.5575,2.5735,2.6462,2.689,2.7056,0.0,0.0,0.0,0.0,0.0,0.0,0.0,0.0,0.0,0.0,0.0,0.0,0.0,0.0,0.0,0.0,0.0,0.0,0.0,3.6399,3.6863,3.9226,4.0493,4.1484,4.3097,4.4078,4.4793,4.5439,4.4964,4.4272,4.4064,4.4005,4.3763,4.2983,4.4135,4.5016,4.4153,4.5361,4.6541,4.6676,4.7541,4.8844,5.0647,5.1757,5.2393,5.2393,5.387,5.5223,5.6114,5.6929,5.7403,5.7403,5.5849,5.4901,5.4901,5.4901,5.4901,5.4901,5.4901,5.5318,5.619,5.6209,5.6614,5.7422,5.8301,5.8718,5.8737,5.9533,5.9893,5.9893,5.9893,5.9893,5.9836,5.8959,5.8597,5.8503,5.757,5.7201,5.7188,5.7188,5.7188,5.7176,0.0,0.0,0.0,0.0,0.0,0.0,0.0,1.6201,1.6201,1.6201,1.6201,1.6201,1.6201,1.6201,1.6347,1.6723,0.0,0.0,0.0,0.0,0.0,0.0,0.0,0.0,0.0,0.0,2.3141,2.3684,2.4267,2.4792,2.5306,2.5719,2.6206,2.6745,2.6985,2.7526,0.0,0.0,0.0,0.0,0.0,0.0,3.0184,0.0,0.0,0.0,0.0,0.0,0.0,0.0,0.0,0.0,0.0,0.0,0.0,3.7961,3.9254,4.0511,4.1573,4.2573,4.3348,4.3565,4.285,4.2406,4.3481,4.3011,4.2593,4.3448,4.4042,4.4321,4.4061,4.4915,4.5908,4.6593,4.7467,4.8535,4.9889,5.0347,5.0582,5.0687,5.3177,5.5242,5.6114,5.7467,5.8036,5.7441,5.6398,5.5527,5.4939,5.4901,5.4901,5.4901,5.4901,5.5034,5.5318,5.5906,5.6323,5.6588,5.7422,5.8131,5.8718,5.8965,5.9382,5.9893,5.9893,5.9893,5.9877,5.9594,5.9298,5.895,5.8378,5.7955,5.7642,5.7326,5.7188,5.7188,0.0,0.0,0.0,0.0,0.0,0.0,0.0,1.6201,1.6201,1.6201,1.6201,1.6201,1.6201,1.6201,1.6236,1.6316,0.0,0.0,0.0,0.0,0.0,0.0,0.0,0.0,0.0,2.1991,2.2372,2.2881,2.3161,2.354,2.4022,2.4573,2.5247,2.6048,2.643,2.7003,0.0,0.0,0.0,0.0,0.0,0.0,2.9657,0.0,0.0,0.0,0.0,0.0,0.0,0.0,0.0,0.0,0.0,0.0,0.0,0.0,3.7826,3.8816,3.9932,4.0916,4.1702,4.1939,4.1484,4.1305,4.2558,4.2211,4.1969,4.328,4.3559,4.3633,4.3949,4.4432,4.5215,4.6432,4.7119,4.8008,4.9397,4.9901,5.0324,5.0794,5.3233,5.5242,5.6114,5.7422,5.7979,5.7441,5.6645,5.5811,5.4958,5.4901,5.4901,5.4901,5.4901,5.4901,5.4901,5.5432,5.5716,5.5716,5.655,5.724,5.7771,5.8074,5.8661,5.9457,5.9457,5.9628,0.0,5.9706,5.9451,5.915,5.876,5.8311,5.7859,5.757,5.7345,5.7188,0.0,0.0,0.0,0.0,0.0,0.0,0.0,0.0,0.0,0.0,1.6201,1.6201,1.6201,1.6201,1.6201,0.0,0.0,0.0,0.0,0.0,0.0,0.0,0.0,0.0,0.0,2.1694,2.1773,2.1955,2.1991,2.207,2.2265,2.3222,2.4194,2.5161,2.6131,2.6984,0.0,0.0,0.0,0.0,0.0,0.0,0.0,0.0,0.0,0.0,0.0,0.0,0.0,0.0,0.0,0.0,0.0,0.0,0.0,0.0,0.0,0.0,0.0,3.9192,3.9907,4.0487,4.0641,4.0828,4.1456,4.156,0.0,4.2705,4.2835,4.3039,4.3856,4.4061,4.4618,4.6234,4.664,4.7392,4.9159,5.0225,5.12,5.2208,5.3738,5.511,5.6095,5.6929,5.7422,5.7479,5.6739,5.5906,5.5034,5.4939,5.4901,5.4901,5.4901,5.4901,5.4901,5.4901,5.4901,5.492,5.5716,5.6133,5.6228,5.6967,5.779,5.8605,5.8661,5.9116,5.9793,5.9406,5.9252,5.9215,5.8792,5.8375,5.7978,5.7916,5.7618,5.7239,0.0,0.0,0.0,0.0,0.0,0.0,0.0,0.0,0.0,0.0,0.0,1.6201,1.6201,1.6201,0.0,0.0,0.0,0.0,0.0,0.0,0.0,0.0,0.0,0.0,0.0,2.1603,2.1617,2.1456,2.1823,2.221,2.2608,2.3235,2.4152,2.5282,2.5939,2.6655,2.739,0.0,0.0,0.0,0.0,0.0,0.0,0.0,0.0,0.0,3.1995,3.2292,0.0,0.0,0.0,0.0,0.0,0.0,0.0,0.0,3.5847,3.647,3.6863,0.0,3.8534,3.8882,3.9127,3.9683,0.0,4.1114,4.1263,4.3299,4.3225,4.3039,4.3856,4.4544,4.5332,4.6345,4.7037,4.7913,4.9218,4.9813,5.047,5.1362,5.2374,5.3833,5.5981,5.6929,5.7676,5.8339,5.76,5.6758,5.5943,5.5261,5.4901,5.4901,5.4901,5.4901,5.4901,5.4901,5.4901,5.4901,5.511,5.5546,5.6209,5.6398,5.6929,5.7744,5.8415,5.8813,5.9014,5.9538,5.9751,5.969,5.9252,5.8988,5.8803,5.8157,5.7824,5.769,0.0,0.0,0.0,0.0,0.0,0.0,0.0,0.0,0.0,0.0,0.0,0.0,0.0,0.0,0.0,0.0,0.0,0.0,0.0,0.0,0.0,0.0,0.0,0.0,2.1293,2.1433,2.1604,2.1803,2.2063,2.2495,2.3088,2.3458,2.4161,2.5154,2.6027,2.675,2.7307,2.7307,2.7307,0.0,2.7669,0.0,0.0,0.0,0.0,0.0,3.1969,3.217,0.0,3.2387,3.2641,3.2862,0.0,0.0,0.0,0.0,3.5101,3.5935,3.6292,3.7095,3.7906,3.8302,3.8794,3.9493,4.0763,4.0706,4.0873,4.2556,4.2556,4.25,4.3299,4.4451,4.5565,4.6364,4.7181,4.8106,4.9248,5.003,5.0523,5.058,5.1672,5.3245,5.5394,5.636,5.7354,5.8605,5.8263,5.7467,5.6266,5.5754,5.5318,5.492,5.4901,5.4901,5.4901,5.4901,5.4901,5.4901,5.4901,5.5148,5.5602,5.5602,5.6057,5.6872,5.7354,5.7771,5.8169,5.9003,5.9344,5.9366,5.9487,5.9389,5.914,5.8662,5.8378,5.8146,0.0,0.0,0.0,0.0,0.0,0.0,0.0,0.0,0.0,0.0,0.0,0.0,0.0,0.0,0.0,0.0,0.0,0.0,0.0,0.0,0.0,0.0,0.0,2.127,2.1293,2.1293,2.1609,2.2232,2.2329,2.2774,2.3513,2.3825,2.4413,2.5244,2.6278,2.6916,2.7234,2.7291,2.7266,2.7278,2.7955,0.0,0.0,0.0,0.0,0.0,0.0,0.0,0.0,3.2223,3.2696,3.3125,3.2433,0.0,0.0,0.0,0.0,0.0,3.622,3.714,3.7936,3.8313,3.8942,3.9632,4.0259,4.0297,4.0501,4.156,4.169,4.1924,4.2983,4.4347,4.5565,4.6364,4.7231,4.8164,4.9256,5.0325,5.0789,5.017,5.1225,5.2828,5.4901,5.564,5.6796,5.8737,5.8775,5.8074,5.6671,5.6349,5.5849,5.5129,5.4977,5.4901,5.4901,5.4901,5.4901,5.4901,5.4901,5.4901,5.4901,5.4901,5.5299,5.6,5.6133,5.6588,5.727,5.815,5.8491,5.8567,5.9249,5.9362,5.9101,5.9046,5.8885,5.8638,0.0,0.0,0.0,0.0,0.0,0.0,0.0,0.0,0.0,0.0,0.0,0.0,0.0,0.0,0.0,0.0,0.0,0.0,0.0,0.0,0.0,0.0,2.0925,2.1175,2.1293,2.1293,2.1358,2.1471,2.2094,2.2774,2.3521,2.4343,2.5371,2.6505,2.6488,2.6624,2.6908,2.7177,2.7137,2.6916,2.7314,0.0,0.0,0.0,0.0,0.0,0.0,0.0,0.0,3.2064,3.2089,3.2039,3.1926,0.0,0.0,0.0,0.0,0.0,3.6459,3.7823,3.8866,3.849,3.8648,3.9172,4.0165,3.9832,3.9937,4.2166,4.2073,4.2285,4.4514,4.5127,4.5565,4.6364,4.7415,4.8423,4.9287,4.9804,5.0322,5.0933,5.058,5.18,5.5621,5.5451,5.6379,5.9476,5.9078,5.8586,5.8339,5.6967,5.6133,5.6,5.528,5.4901,5.4901,5.4901,5.4901,5.4901,5.4901,5.4901,5.4901,5.4901,5.4977,5.5148,5.5887,5.6266,5.6455,5.7251,5.7592,5.7611,5.7744,5.8186,5.8729,5.8328,5.8587,5.9046,0.0,0.0,0.0,0.0,0.0,0.0,0.0,0.0,0.0,0.0,0.0,0.0,0.0,0.0,0.0,0.0,0.0,0.0,0.0,0.0,0.0,2.0646,2.0835,2.103,2.1199,2.1254,2.1495,2.1884,2.2629,2.335,2.4072,2.4886,2.5672,2.6357,2.6235,2.6409,2.6816,2.6965,2.7047,2.7079,0.0,0.0,0.0,0.0,0.0,0.0,0.0,0.0,0.0,0.0,3.1882,3.1827,3.192,0.0,0.0,0.0,0.0,0.0,3.6626,3.7749,3.8857,3.9182,3.9687,4.0257,4.0896,4.1077,4.1293,4.1999,4.2556,4.3243,4.4395,4.5342,4.6345,4.7608,4.8389,4.8975,4.9351,5.008,5.058,5.0505,5.0561,5.1547,5.3908,5.4591,5.5906,5.8377,5.9059,5.9154,5.8718,5.7979,5.7145,5.6228,5.5811,5.5375,5.4901,5.4901,5.4901,5.4901,5.4901,5.4901,5.4901,5.4901,5.4901,5.4913,5.5318,5.5508,5.5564,5.6398,5.6739,5.6796,5.7232,5.763,5.7974,5.7748,5.7608,5.7554,0.0,0.0,0.0,0.0,0.0,0.0,0.0,0.0,0.0,0.0,0.0,0.0,0.0,0.0,0.0,0.0,0.0,0.0,0.0,0.0,2.0433,2.072,2.0778,2.0909,2.1143,2.1254,2.1657,2.2402,2.3139,2.3933,2.4774,2.5331,2.574,2.5992,2.5992,2.6261,2.6716,2.6716,2.6891,2.7194,0.0,0.0,0.0,0.0,0.0,0.0,0.0,0.0,0.0,0.0,0.0,0.0,0.0,0.0,0.0,3.3635,3.4862,3.6228,3.6755,3.7762,3.8917,3.9853,4.0409,4.0861,4.146,4.2073,4.2452,4.2211,4.3299,4.4358,4.4544,4.5621,4.6903,4.8147,4.8781,4.9182,4.9369,5.025,5.0656,4.9981,5.0486,5.1293,5.2298,5.3567,5.5015,5.6683,5.8188,5.8756,5.815,5.8282,5.7809,5.6512,5.6311,5.5887,5.5204,5.4996,5.4901,5.4901,5.4901,5.4901,5.4901,5.4901,5.4901,5.4901,5.4901,5.4901,5.4958,5.5621,5.5906,5.5962,5.6569,5.6929,5.7137,5.7327,5.6974,5.6491,0.0,0.0,0.0,0.0,0.0,0.0,0.0,0.0,0.0,0.0,0.0,0.0,0.0,0.0,0.0,0.0,0.0,0.0,0.0,0.0,2.0373,2.0519,2.0703,2.095,2.127,2.1301,2.1657,2.2402,2.3139,2.4184,2.5526,2.559,2.574,2.5992,2.5992,2.6163,2.6435,2.6435,2.659,2.6892,2.7641,0.0,0.0,0.0,0.0,0.0,0.0,0.0,0.0,0.0,0.0,0.0,0.0,0.0,3.2537,3.3292,3.4367,3.5564,3.6827,3.8326,3.9642,4.0222,3.9804,3.9656,4.1237,4.1635,4.2099,4.3522,4.4562,4.5435,4.6178,4.642,4.6531,4.6643,4.7574,4.8551,4.9294,4.9747,4.9962,4.9912,4.9962,5.0618,5.2241,5.2506,5.3264,5.4958,5.5943,5.6436,5.6387,5.7081,5.7441,5.7308,5.6588,5.6171,5.6114,5.5299,5.4901,5.4901,5.4901,5.4901,5.4901,5.4901,5.4901,5.4901,5.4901,5.4901,5.4901,5.4977,5.4996,5.4996,5.5072,5.5564,5.6387,5.7118,5.7352,5.7313,0.0,0.0,0.0,0.0,0.0,0.0,0.0,0.0,0.0,0.0,0.0,0.0,0.0,0.0,0.0,0.0,0.0,0.0,0.0,0.0,2.0364,2.0494,2.0695,2.0917,2.1167,2.1254,2.1657,2.2402,2.3561,2.4637,2.5597,2.5597,2.5637,2.5749,2.5749,2.6264,2.7156,2.7156,2.7663,2.851,2.8802,2.9283,0.0,0.0,0.0,0.0,0.0,0.0,0.0,0.0,3.18,3.1827,3.1955,3.2467,3.3134,3.3565,3.4512,3.5593,3.6274,3.7749,3.917,3.9513,3.9758,4.0334,4.1962,4.315,4.3912,4.3986,4.5491,4.6735,4.6531,4.7311,4.7831,4.733,4.814,4.896,4.9354,4.963,4.9802,4.9898,4.9905,5.0151,5.077,5.1786,5.2658,5.3302,5.4617,5.5621,5.6171,5.6493,5.6645,5.6645,5.636,5.5943,5.5394,5.5072,5.4901,5.4901,5.4901,5.4901,5.4901,5.4901,5.4901,5.4901,5.4901,5.4901,5.4901,5.4901,5.4901,5.4901,5.4901,5.511,5.5432,5.5735,5.5679,5.5532,0.0,0.0,0.0,0.0,0.0,0.0,0.0,0.0,0.0,0.0,0.0,0.0,0.0,0.0,0.0,0.0,0.0,0.0,0.0,2.0296,2.0364,2.0494,2.0695,2.0893,2.1103,2.1456,2.2005,2.2742,2.4168,2.5114,2.5597,2.5597,2.5597,2.5606,2.5921,2.6636,2.76,2.7744,2.8449,2.9506,2.9573,3.0046,0.0,0.0,0.0,0.0,0.0,0.0,0.0,0.0,3.18,3.1837,3.2045,3.2564,3.3152,3.336,3.4654,3.6063,3.6313,3.7752,3.9283,3.9776,4.0148,4.0817,4.2426,4.3875,4.4859,4.4804,4.6345,4.7534,4.6977,4.7776,4.8333,4.7794,4.8572,4.93,4.9391,4.9615,4.9795,4.9898,4.9905,4.9905,4.9905,5.094,5.1604,5.1604,5.293,5.3984,5.4598,5.5129,5.5527,5.5773,5.5792,5.564,5.5318,5.5034,5.4901,5.4901,5.4901,5.4901,5.4901,5.4901,5.4901,5.4901,5.4901,5.4901,5.4901,5.4901,5.4901,5.4901,5.4901,5.4901,5.4901,5.4901,5.4737,5.4568,0.0,0.0,0.0,0.0,0.0,0.0,0.0,0.0,0.0,0.0,0.0,0.0,0.0,0.0,0.0,0.0,0.0,0.0,2.0203,2.0296,2.0364,2.0494,2.0695,2.0884,2.1095,2.1964,2.2774,2.3521,2.492,2.5597,2.5597,2.5597,2.5597,2.5648,2.6646,2.7293,2.7642,2.8035,2.8712,2.9532,2.9741,3.0178,3.0791,0.0,0.0,0.0,0.0,0.0,0.0,0.0,3.1809,3.1846,3.2037,3.2197,3.2344,3.2538,3.4625,3.6916,3.7135,3.8563,4.0257,4.1316,4.0984,4.0836,4.2445,4.3429,4.4488,4.6178,4.7144,4.7701,4.7701,4.7701,4.7701,4.7701,4.8669,4.9399,4.9407,4.9691,4.9905,4.9905,4.9905,4.9905,4.9905,4.9905,4.9905,4.9905,5.0694,5.1199,5.1199,5.2771,5.4041,5.4844,5.4882,5.5299,5.6152,5.5318,5.4901,5.4901,5.4901,5.4901,5.4901,5.4901,5.4901,5.4901,5.4901,5.4901,5.4901,5.4901,5.4901,5.4901,5.4901,5.4901,5.4901,5.4901,5.4901,5.4901,0.0,0.0,0.0,0.0,0.0,0.0,0.0,0.0,0.0,0.0,0.0,0.0,0.0,0.0,0.0,0.0,0.0,0.0,2.0234,2.0296,2.0321,2.0364,2.0637,2.0827,2.0884,2.239,2.3512,2.4209,2.5137,2.5597,2.5597,2.5597,2.5597,2.5639,2.6451,2.726,2.8078,2.8943,2.9873,3.0798,3.1093,3.1308,3.1508,0.0,0.0,0.0,0.0,0.0,0.0,0.0,0.0,0.0,3.2223,3.237,3.2555,3.28,3.4083,3.5472,3.5669,3.794,4.0218,3.9923,4.0958,4.2211,4.2686,4.3901,4.5547,4.7738,4.7924,4.7701,4.7701,4.8166,4.837,4.7794,4.859,4.9281,4.9391,4.9615,4.9788,4.9898,4.9905,4.9905,4.9905,4.9905,4.9905,4.9905,5.0132,5.0542,5.118,5.1672,5.2317,5.3113,5.3131,5.3264,5.351,5.387,5.4067,5.4067,5.4636,5.4901,5.4901,5.4901,5.4901,5.4901,5.4901,5.4901,5.4901,5.4901,5.4901,5.4901,5.4901,5.4901,5.4901,5.4901,5.4901,5.4901,0.0,0.0,0.0,0.0,0.0,0.0,0.0,0.0,0.0,0.0,0.0,0.0,0.0,0.0,0.0,0.0,0.0,0.0,0.0,0.0,2.033,2.039,2.0928,2.1567,2.2253,2.3343,2.4241,2.4936,2.538,2.5597,2.5597,2.5597,2.5597,2.5639,2.6479,2.7275,2.8052,2.9276,3.0282,3.1093,3.1467,3.1681,3.1827,0.0,0.0,0.0,0.0,0.0,0.0,0.0,0.0,0.0,3.2395,3.2496,3.2786,3.3785,3.4875,3.6029,3.7235,3.9175,4.091,4.1014,4.1924,4.3058,4.4042,4.5045,4.6364,4.8481,4.8519,4.8184,4.8184,4.8574,4.8767,4.836,4.8853,4.9316,4.9391,4.957,4.9728,4.9809,4.9816,4.9843,4.9886,4.9905,4.9905,4.9905,4.9905,5.0132,5.0656,5.0675,5.1066,5.19,5.1919,5.2089,5.2393,5.2923,5.3169,5.3188,5.4029,5.4427,5.4427,5.475,5.4901,5.4901,5.4901,5.4901,5.4901,5.4901,5.4901,5.4901,5.4901,5.4901,5.4901,5.4901,5.4901,5.4901,0.0,0.0,0.0,0.0,0.0,0.0,0.0,0.0,0.0,0.0,0.0,0.0,0.0,0.0,0.0,0.0,0.0,0.0,0.0,0.0,2.0364,2.0494,2.1414,2.2691,2.4369,2.4475,2.4855,2.5597,2.5597,2.5597,2.5597,2.5597,2.5597,2.5648,2.6683,2.7339,2.7757,2.9243,3.0242,3.0798,3.1192,3.1583,3.1959,3.2237,0.0,0.0,0.0,0.0,0.0,0.0,0.0,0.0,3.2581,3.2631,3.3013,3.5029,3.637,3.7778,4.038,4.14,4.2062,4.3522,4.3392,4.354,4.5955,4.6494,4.6958,4.8574,4.8909,4.8909,4.8909,4.8909,4.8969,4.9181,4.9305,4.9415,4.9446,4.9593,4.9699,4.9721,4.9707,4.9757,4.9871,4.9879,4.9905,4.9905,4.9905,4.9905,4.9905,4.9905,5.0265,5.1066,5.1085,5.1426,5.2165,5.226,5.2298,5.2298,5.3169,5.3631,5.3726,5.4541,5.4901,5.4901,5.4901,5.4901,5.4901,5.4901,5.4901,5.4901,5.4901,5.4901,5.4901,5.4901,5.4901,5.4901,0.0,0.0,0.0,0.0,0.0,0.0,0.0,0.0,0.0,0.0,0.0,0.0,0.0,0.0,0.0,0.0,0.0,0.0,0.0,0.0,2.0364,2.0494,2.15,2.2587,2.369,2.4225,2.4855,2.5597,2.5597,2.5597,2.5597,2.5597,2.5597,2.5655,2.6971,2.7751,2.8181,2.9862,3.0798,3.1206,3.1556,3.2174,3.2985,3.3815,3.4206,0.0,0.0,0.0,0.0,0.0,0.0,0.0,3.281,3.2844,3.3126,3.4569,3.603,3.7552,3.9149,4.1022,4.263,4.2965,4.3392,4.4228,4.6085,4.6494,4.6958,4.8574,4.8909,4.8909,4.8909,4.8909,4.8969,4.9181,4.9305,4.9499,4.9755,4.9738,4.9743,4.9843,4.9752,4.9707,4.9743,4.9836,4.9905,4.9905,4.9905,4.9905,4.9905,4.9905,4.9981,5.017,5.0189,5.0265,5.0436,5.113,5.1464,5.1464,5.2298,5.3037,5.3726,5.4541,5.4901,5.4901,5.4901,5.4901,5.4901,5.4901,5.4901,5.4901,5.4901,5.4901,5.4901,5.4901,5.4901,5.4901,0.0,0.0,0.0,0.0,0.0,0.0,0.0,0.0,0.0,0.0,0.0,0.0,0.0,0.0,0.0,0.0,0.0,0.0,0.0,0.0,0.0,2.1234,2.1894,2.2786,2.395,2.4322,2.4855,2.5597,2.5597,2.5597,2.5597,2.5597,2.5597,2.5655,2.674,2.748,2.803,3.0005,3.1385,3.2297,3.2835,3.3838,3.5015,3.4894,3.4844,3.4836,3.4717,0.0,0.0,0.0,0.0,0.0,0.0,0.0,3.3297,3.5349,3.5995,3.6765,3.9996,4.1244,4.1932,4.3095,4.3689,4.4432,4.6122,4.6494,4.6958,4.8574,4.8978,4.9012,4.8926,4.9027,4.9152,4.9187,4.9395,4.9555,4.9559,4.957,4.9563,4.9559,4.957,4.9593,4.9685,4.9823,4.9905,4.9905,4.9905,4.9905,4.9905,4.9843,4.983,4.9905,4.9748,4.9741,4.9905,5.0284,5.0511,5.058,5.1426,5.2487,5.3726,5.4541,5.4901,5.4901,5.4901,5.4901,5.4901,5.4901,5.4901,5.4901,5.4901,5.4901,5.4901,5.4901,5.4901,5.4901,0.0,0.0,0.0,0.0,0.0,0.0,0.0,0.0,0.0,0.0,0.0,0.0,0.0,0.0,0.0,0.0,0.0,0.0,0.0,0.0,0.0,2.1886,2.2351,2.3139,2.4306,2.4572,2.4994,2.5619,2.5619,2.5635,2.5654,2.5758,2.5887,2.6078,2.7004,2.7731,2.8398,3.0564,3.2261,3.3593,3.4211,3.5418,3.6717,3.5605,3.5119,3.4923,3.4451,3.3766,3.3044,3.3093,0.0,0.0,0.0,0.0,3.3639,3.6063,3.597,3.6113,4.0882,4.1505,4.1337,4.3466,4.4005,4.4432,4.6122,4.6494,4.6958,4.8574,4.9062,4.9137,4.8943,4.9176,4.936,4.9252,4.9464,4.9563,4.9355,4.9355,4.9329,4.9244,4.9329,4.9461,4.9622,4.9802,4.9905,4.9905,4.9905,4.9898,4.9871,4.9764,4.9724,4.9811,4.9533,4.9525,4.9811,4.9702,4.9702,4.9811,5.0693,5.1862,5.3254,5.422,5.4746,5.4901,5.4901,5.4901,5.4901,5.4901,5.4901,5.4901,5.4901,5.4901,5.4901,5.4901,5.4901,5.4901,0.0,0.0,0.0,0.0,0.0,0.0,0.0,0.0,0.0,0.0,2.0054,0.0,0.0,0.0,0.0,0.0,0.0,0.0,2.0296,0.0,0.0,2.1215,2.2586,2.3431,2.3634,2.4839,2.5524,2.5682,2.5682,2.5745,2.5877,2.6406,2.7036,2.7846,2.957,3.0557,3.1031,3.2934,3.4057,3.4521,3.4627,3.53,3.6198,3.6022,3.6033,3.607,3.532,3.4964,3.4751,3.4152,3.4357,0.0,0.0,0.0,3.4321,3.4932,3.564,3.6691,3.8971,4.1014,4.2723,4.3745,4.4005,4.4432,4.6122,4.6494,4.6958,4.8574,4.9062,4.9137,4.8943,4.9176,4.938,4.9376,4.9415,4.9529,4.9769,4.9468,4.9268,4.936,4.9391,4.9415,4.9438,4.9719,4.9905,4.9905,4.9905,4.985,4.9736,4.9707,4.9622,4.9476,4.943,4.943,4.9476,4.9453,4.9453,4.9476,5.0349,5.0933,5.1333,5.2896,5.4088,5.4901,5.4901,5.4901,5.4901,5.4901,5.4901,5.4901,5.4901,5.4901,5.4901,5.4901,5.4901,5.4901,0.0,0.0,0.0,0.0,0.0,0.0,0.0,0.0,0.0,0.0,0.0,2.022,0.0,0.0,0.0,2.0296,2.0296,2.0569,2.1158,2.1793,2.2222,2.2432,2.3121,2.3683,2.4047,2.467,2.5218,2.571,2.571,2.5996,2.6587,2.7265,2.7894,2.8517,3.0164,3.1213,3.1834,3.3505,3.4704,3.5479,3.5488,3.6589,3.8097,3.6763,3.631,3.6292,3.548,3.4927,3.4606,3.4696,3.466,3.4535,3.4196,0.0,0.0,0.0,3.4896,3.5594,3.834,4.0903,4.2983,4.3801,4.4005,4.4432,4.6122,4.6494,4.6991,4.871,4.9137,4.9162,4.9079,4.9249,4.9376,4.9308,4.9345,4.9391,4.9342,4.9388,4.9349,4.9133,4.945,4.9611,4.9422,4.9705,4.9905,4.9905,4.983,4.9752,4.9699,4.9529,4.9418,4.9407,4.9225,4.9217,4.9399,4.934,4.934,4.9407,4.979,5.0261,5.0827,5.2021,5.3179,5.4257,5.4712,5.4901,5.4901,5.4901,5.4901,5.4901,5.4901,5.4901,5.4901,5.4901,5.4901,5.4886,0.0,0.0,0.0,0.0,0.0,0.0,0.0,0.0,0.0,0.0,0.0,0.0,0.0,0.0,0.0,0.0,2.0857,2.1267,2.217,2.2835,2.3288,2.3496,2.3667,2.3982,2.4491,2.4697,2.5118,2.5747,2.5765,2.6152,2.6885,2.7902,2.8669,2.9277,3.0748,3.1884,3.278,3.4171,3.5315,3.6193,3.6397,3.7616,3.9111,3.7148,3.6533,3.6568,3.5552,3.4981,3.4731,3.5088,3.4838,3.4365,3.4217,3.3908,0.0,0.0,0.0,3.5532,3.8336,4.0606,4.2441,4.3483,4.372,4.4214,4.618,4.6592,4.7055,4.8826,4.9205,4.9205,4.9205,4.9305,4.9352,4.9219,4.9273,4.9257,4.902,4.9228,4.9291,4.8933,4.938,4.964,4.9422,4.9633,4.979,4.985,4.9702,4.9619,4.9563,4.9351,4.9219,4.9273,4.9027,4.9018,4.9273,4.916,4.916,4.9263,4.9263,4.965,5.0354,5.1161,5.2148,5.3305,5.4364,5.4845,5.4901,5.4901,5.4901,5.4901,5.4901,5.4901,5.4894,5.4837,5.4822,5.4799,0.0,0.0,0.0,0.0,0.0,0.0,0.0,0.0,0.0,0.0,0.0,0.0,2.1242,2.1827,2.2203,2.2203,2.2366,2.2667,2.3101,2.3168,2.3288,2.3496,2.4112,0.0,2.4491,2.5248,2.5714,2.5881,2.5947,2.6061,2.6294,2.8034,2.9474,3.0664,3.2138,3.3452,3.4637,3.5785,3.631,3.6462,3.7211,3.7594,3.7621,3.6747,3.6872,3.7336,3.5757,3.5667,3.6167,3.5445,3.5177,3.5059,3.4545,3.4487,3.4688,0.0,0.0,0.0,3.8841,3.9788,4.0927,4.2624,4.2954,4.3569,4.636,4.684,4.7169,4.8851,4.9205,4.9205,4.9205,4.9305,4.9352,4.9219,4.9214,4.9195,4.9197,4.9046,4.8935,4.8909,4.9104,4.9284,4.9391,4.9422,4.9518,4.9699,4.9533,4.9352,4.9228,4.9222,4.9113,4.8925,4.8917,4.8917,4.8935,4.8926,4.8926,4.8935,4.8935,4.9047,4.9315,5.0108,5.1031,5.2094,5.3852,5.4726,5.4901,5.4901,5.4901,5.4901,5.4901,5.4901,5.4879,5.4695,5.4621,5.4589,0.0,0.0,0.0,0.0,0.0,0.0,0.0,0.0,0.0,0.0,0.0,0.0,0.0,2.2353,2.2534,2.2675,2.3293,2.3754,2.3907,2.4425,2.4765,2.4846,2.5082,2.5223,2.5264,2.5561,2.5784,2.5963,2.6451,2.6912,2.733,2.888,3.0379,3.1838,3.2843,3.3661,3.4347,3.4752,3.5204,3.5641,3.5935,3.6988,3.8272,3.7479,3.7666,3.829,3.771,3.7032,3.6435,3.6658,3.5833,3.4655,3.4454,3.4658,3.5016,3.5275,3.656,3.7956,3.8247,3.9349,4.0664,4.1819,4.2452,4.3368,4.5533,4.6382,4.719,4.8968,4.926,4.9205,4.9205,4.9119,4.9121,4.9179,4.9088,4.9012,4.9012,4.9127,4.9144,4.8935,4.9231,4.9442,4.9388,4.9407,4.9476,4.9685,4.9434,4.9252,4.9195,4.9079,4.8978,4.8909,4.8909,4.8909,4.8909,4.8909,4.8909,4.8909,4.8909,4.8943,4.903,4.9831,5.0754,5.1773,5.2992,5.3917,5.4581,5.4581,5.4581,5.4581,5.4581,5.4581,5.4573,5.4497,5.4472,5.4447,0.0,0.0,0.0,0.0,0.0,0.0,0.0,0.0,0.0,0.0,0.0,0.0,0.0,0.0,2.3491,2.3689,2.4291,2.4656,2.4737,2.5291,2.5597,2.5597,2.5619,2.5659,2.571,2.601,2.6234,2.6371,2.7158,2.7828,2.8424,2.9635,3.09,3.2205,3.2966,3.3737,3.4464,3.4464,3.5052,3.6024,3.6301,3.7514,3.9102,3.8576,3.8701,3.9182,3.9296,3.8483,3.7443,3.8069,3.7152,3.5732,3.5537,3.5553,3.5663,3.5856,3.6841,3.7956,3.8235,3.9126,4.0181,4.1049,4.1634,4.2623,4.5028,4.5952,4.688,4.892,4.9268,4.917,4.9113,4.8995,4.8943,4.9079,4.8986,4.8909,4.8909,4.9094,4.9152,4.8935,4.9182,4.9354,4.9337,4.9273,4.9313,4.9529,4.926,4.9096,4.9096,4.8978,4.8909,4.8909,4.8909,4.8909,4.8909,4.8909,4.8909,4.8909,4.8909,4.8909,4.8919,4.9447,5.0205,5.1156,5.2014,5.3163,5.4409,5.4409,5.4409,5.4409,5.4409,5.4409,5.4382,5.4321,5.4304,5.4278,0.0,0.0,0.0,0.0,0.0,0.0,0.0,0.0,0.0,2.268,0.0,0.0,0.0,0.0,0.0,2.5326,2.532,2.5391,2.5597,2.5606,2.5606,2.5639,2.5703,2.5742,2.5775,2.6698,2.717,2.717,2.8063,2.886,2.9516,3.0302,3.1077,3.1803,3.2555,3.3766,3.5195,3.5177,3.6096,3.7621,3.8433,3.9226,3.994,3.994,3.9958,4.0014,4.0354,3.9923,3.9235,3.9543,3.912,3.8379,3.7812,3.7225,3.673,3.673,3.7306,3.8098,0.0,0.0,0.0,4.0312,4.0472,4.1312,4.4789,4.5532,4.6183,4.8616,4.9168,4.9137,4.8943,4.8909,4.8909,4.8909,4.8909,4.8909,4.8909,4.8909,4.8909,4.8909,4.8909,4.8986,4.917,4.902,4.8986,4.9179,4.9012,4.8909,4.8909,4.8909,4.8909,4.8909,4.8909,4.8909,4.8909,4.8909,4.8909,4.8909,4.8909,4.8909,4.8909,4.8909,4.9346,5.0144,5.1026,5.2526,5.4354,5.4373,5.4373,5.4373,5.4373,5.4373,5.4356,5.4163,5.4091,5.4064,0.0,0.0,0.0,0.0,0.0,0.0,0.0,0.0,0.0,0.0,0.0,0.0,2.5622,2.5529,2.5667,2.6267,2.5821,2.5562,2.567,2.568,2.5952,2.6591,2.662,2.6906,2.7501,2.829,2.8728,2.8761,3.0406,3.1467,3.1946,3.2453,3.2959,3.3412,3.3061,3.3766,3.5177,3.4624,3.5311,3.68,3.7604,3.9075,4.077,4.077,4.1127,4.1677,4.1947,4.0835,3.9336,4.0182,3.93,3.7949,3.8516,3.8169,3.7566,3.7566,3.8142,3.8692,3.8328,0.0,0.0,0.0,0.0,0.0,4.2492,4.4239,4.5866,4.7121,4.8354,4.9137,4.8943,4.8909,4.8909,4.8909,4.8909,4.8909,4.8909,4.8909,4.8909,4.8909,4.8909,4.8986,4.917,4.902,4.8986,4.9179,4.9012,4.8909,4.8909,4.8909,4.8909,4.8909,4.8909,4.8909,4.8909,4.8909,4.8909,4.8909,4.8909,4.8909,4.8909,4.8909,4.9346,5.0144,5.1026,5.2056,5.3143,5.3739,5.3972,5.3972,5.3972,5.3972,5.3954,5.3898,5.3879,5.3888,0.0,0.0,0.0,0.0,0.0,0.0,0.0,0.0,0.0,0.0,0.0,0.0,2.6905,2.6687,2.6607,2.6727,2.6392,2.6199,2.6239,2.6526,2.7061,2.7883,2.7948,2.8178,2.8659,2.9101,2.9447,2.9641,3.1092,3.2156,3.2871,0.0,3.3785,3.4296,3.3987,3.4365,3.5231,3.5453,3.6453,3.7898,3.8362,3.9771,4.1591,4.1591,4.1978,4.2596,4.3187,4.2623,4.17,4.244,4.1164,3.9304,3.9556,3.8841,3.79,3.79,3.8235,3.8569,3.8432,3.8729,3.9101,3.9101,0.0,0.0,4.2287,4.3838,4.5396,4.7234,4.8381,4.9037,4.8926,4.8909,4.8909,4.8909,4.8909,4.8909,4.8909,4.8909,4.8909,4.8909,4.8909,4.8952,4.9062,4.8978,4.8952,4.9062,4.8969,4.8909,4.8909,4.8909,4.8909,4.8909,4.8909,4.8909,4.8909,4.8909,4.8909,4.8909,4.8909,4.8909,4.8909,4.8909,4.916,4.9643,5.0488,5.1342,5.2159,5.2977,5.3487,5.3803,5.3803,5.3803,5.3803,5.3803,5.3803,5.3803,0.0,0.0,0.0,0.0,0.0,0.0,0.0,0.0,0.0,0.0,2.8602,2.8372,2.7889,2.7967,2.7809,2.7232,2.729,2.7358,2.7377,2.7984,2.865,2.9317,2.9393,2.9428,2.9428,2.9565,2.9812,3.0176,0.0,0.0,0.0,0.0,0.0,0.0,3.5075,3.5248,3.5427,3.6854,3.8397,3.9904,3.9904,4.0806,4.2172,4.2303,4.255,4.2933,4.4043,4.4517,4.4667,4.4936,4.3567,4.1597,4.0799,3.9572,3.8414,3.8235,3.8309,3.8588,3.9212,3.9305,3.9231,3.9231,3.9175,0.0,4.2797,4.3596,4.4562,4.7497,4.824,4.837,4.837,4.837,4.837,4.837,4.8519,4.8704,4.8872,4.8909,4.8909,4.8909,4.8909,4.8909,4.8909,4.8909,4.8909,4.8909,4.8909,4.8909,4.8909,4.8909,4.8909,4.8909,4.8909,4.8909,4.8909,4.8909,4.8909,4.8909,4.8909,4.8909,4.8909,4.8909,4.8909,4.8946,4.9754,5.0534,5.1323,5.2234,5.306,5.3803,5.3803,5.3803,5.3803,5.3803,5.3803,5.3803,0.0,0.0,0.0,0.0,0.0,0.0,0.0,0.0,2.935,2.9582,2.92,2.8858,2.8753,2.8862,2.9114,2.9502,2.9571,2.9617,2.9722,2.9865,3.0044,3.0238,3.0259,3.027,3.027,3.0859,0.0,0.0,0.0,0.0,0.0,0.0,0.0,3.6016,3.5446,3.5552,3.6185,3.6488,3.7898,3.9904,3.9904,4.0475,4.1425,4.2358,4.27,4.2897,4.4235,4.394,4.2937,4.3203,4.2965,4.2426,4.1616,4.1597,4.1597,4.0297,4.0836,4.1739,4.1244,4.065,4.0148,4.0148,3.9628,0.0,3.99,4.1107,4.224,4.289,4.4042,4.4952,4.4952,4.4952,4.4952,4.4952,4.6085,4.7423,4.8723,4.8909,4.8909,4.8909,4.8909,4.8909,4.8909,4.8909,4.8909,4.8909,4.8909,4.8909,4.8909,4.8909,4.8909,4.8909,4.8909,4.8909,4.8909,4.8909,4.8909,4.8909,4.8909,4.8909,4.8909,4.8909,4.8909,4.8946,4.9754,5.02,5.046,5.1992,5.306,5.3803,5.3803,5.3803,5.3803,5.3803,5.3803,5.3803,2.5979,2.6378,0.0,0.0,0.0,0.0,0.0,0.0,3.0801,3.0927,3.1056,3.1027,3.0735,3.1434,3.1791,3.1386,3.1402,3.1319,3.1021,3.1329,3.1725,3.2122,3.1989,3.2083,3.2489,3.2339,0.0,0.0,0.0,0.0,0.0,0.0,3.6613,3.6979,3.6586,3.6845,3.763,3.7978,3.8602,3.9397,3.9934,4.1104,4.2617,4.3325,4.3915,4.4446,4.5138,4.4731,4.3865,4.4003,4.3232,4.2203,4.2203,4.1924,4.1523,4.1114,4.1579,4.2025,4.1226,4.0706,4.0297,3.987,3.9417,0.0,0.0,4.0996,4.1832,4.263,4.3448,4.4005,4.4005,4.4005,4.4005,4.4005,4.5417,4.6494,4.6457,4.7868,4.8909,4.8909,4.8909,4.8909,4.8909,4.8909,4.8909,4.8909,4.8909,4.8909,4.8909,4.8909,4.8909,4.8909,4.8909,4.8909,4.8909,4.8909,4.8909,4.8909,4.8909,4.8909,4.8909,4.8909,4.8909,4.8919,4.9336,4.9736,5.02,5.1472,5.2475,5.3237,5.3636,5.3803,5.3803,5.3803,5.3803,5.3803,2.7197,2.7337,0.0,0.0,0.0,0.0,0.0,0.0,3.229,3.2472,3.3076,3.3313,3.2825,3.3978,3.4321,3.3123,3.3406,3.3388,3.2749,3.3294,3.389,3.4487,3.4118,3.4145,3.4649,3.399,0.0,0.0,0.0,0.0,0.0,0.0,3.7167,3.764,3.7819,3.822,3.8852,3.9602,3.9675,3.9364,4.0426,4.189,4.3513,4.4169,4.4848,4.5468,4.5573,4.5374,4.5053,4.5053,4.3715,4.2118,4.2463,4.2006,4.1374,4.156,4.195,4.2136,4.1319,4.0873,4.0464,3.9751,3.9342,3.9454,0.0,0.0,0.0,4.2797,4.3058,4.3058,4.3058,4.3058,4.3113,4.328,4.4562,4.5138,4.3949,4.6197,4.8017,4.8184,4.863,4.8834,4.8686,4.8667,4.8723,4.889,4.876,4.8742,4.889,4.8909,4.8909,4.8909,4.8909,4.8909,4.8909,4.8909,4.8909,4.8909,4.8909,4.8909,4.8909,4.8909,4.8909,4.8909,4.8909,4.928,4.9949,5.0803,5.1639,5.2457,5.3432,5.3803,5.3803,5.3803,5.3803,5.3803,2.9137,2.9596,3.0404,0.0,0.0,0.0,0.0,0.0,3.3335,3.4109,3.4208,3.4152,3.409,3.4719,3.5074,3.4902,3.6215,3.696,3.6745,3.6932,3.7051,3.7073,3.6475,3.5864,3.5302,3.5934,0.0,0.0,0.0,0.0,0.0,0.0,3.8403,3.7721,3.8564,3.8877,3.8861,3.9716,4.0444,4.1108,4.2048,4.2024,4.166,4.3631,4.4026,4.3587,4.4056,4.4186,4.4153,4.4153,4.3968,4.3485,4.2166,4.3121,4.4328,4.2229,4.3158,4.4692,4.3838,4.2556,4.1449,4.133,4.0197,3.9157,3.9342,0.0,3.9435,3.9621,0.0,3.9658,3.9658,0.0,0.0,4.0687,4.1579,4.2341,4.2853,4.3875,4.4841,4.5621,4.7608,4.863,4.7906,4.785,4.8129,4.8853,4.824,4.8147,4.8872,4.8909,4.8909,4.8909,4.8909,4.8909,4.8909,4.8909,4.8909,4.8909,4.8909,4.8909,4.8909,4.8909,4.8909,4.8909,4.8909,4.8937,4.9104,4.9912,5.0766,5.1695,5.3218,5.3803,5.3803,5.3803,5.3803,5.3803,3.07,3.0911,3.145,3.2329,0.0,0.0,0.0,0.0,3.4814,3.5414,3.5948,3.6417,3.676,3.7788,3.8288,3.7891,3.8482,3.8699,3.8297,3.8316,3.8338,3.8306,3.7862,3.7672,3.7832,3.7992,0.0,0.0,3.8667,0.0,0.0,0.0,3.9112,3.9165,3.9607,3.9983,4.0355,4.1194,4.1482,4.1508,4.3304,4.3498,4.2865,4.4646,4.4954,4.438,4.4093,4.4005,4.4005,4.4005,4.3689,4.3355,4.3652,4.379,4.3845,4.3771,4.4135,4.4358,4.3522,4.315,4.2649,4.1244,4.0724,4.0297,3.9324,3.9101,3.9101,3.9101,0.0,0.0,0.0,0.0,0.0,0.0,4.0743,4.1374,4.0736,4.2575,4.4135,4.4506,4.5881,4.7051,4.7646,4.8129,4.8537,4.8872,4.8593,4.8537,4.889,4.8909,4.8909,4.8909,4.8909,4.8909,4.8909,4.8909,4.8909,4.8909,4.8909,4.8909,4.8909,4.8909,4.8909,4.8909,4.8909,4.8909,4.8964,4.9773,5.0609,5.1509,5.2661,5.3385,5.3803,5.3803,5.3803,5.3803,3.2924,3.2474,3.239,3.3538,3.3921,0.0,0.0,3.6298,3.6558,3.7094,3.7917,3.862,3.9059,3.9991,4.0415,3.9924,3.9936,3.9754,3.9282,3.9288,3.9387,3.9585,3.9386,3.9562,4.0133,4.0135,4.0311,4.068,4.0311,0.0,0.0,0.0,0.0,4.0273,4.0554,4.1075,4.1792,4.2622,4.2776,4.2613,4.4543,4.4944,4.4469,4.5279,4.5485,4.5247,4.4318,4.4153,4.4358,4.4358,4.4116,4.3986,4.4997,4.4626,4.4005,4.5016,4.5016,4.4451,4.341,4.3392,4.3132,4.0947,4.0668,4.0606,3.938,3.9101,3.9101,3.9101,3.9101,0.0,0.0,0.0,3.9175,3.9417,0.0,4.0568,3.9591,4.1293,4.2742,4.2983,4.3957,4.5157,4.655,4.7423,4.7999,4.824,4.8444,4.8667,4.889,4.8909,4.8909,4.8909,4.8909,4.8909,4.8909,4.8909,4.8909,4.8909,4.8909,4.8909,4.8909,4.8909,4.8909,4.8909,4.8909,4.8909,4.8937,4.9531,5.0274,5.1138,5.1955,5.2754,5.3487,5.372,5.3803,5.3803,3.628,3.471,3.3608,3.5065,3.5852,3.674,3.8094,3.8305,3.8608,3.9491,4.0011,4.0326,4.0336,4.0207,4.0111,4.0093,4.0272,4.0319,4.0181,4.0274,4.0634,4.1294,4.1427,4.1511,4.1547,4.2337,4.2402,4.1659,4.2402,4.2384,0.0,0.0,0.0,0.0,4.1279,4.1982,4.2621,4.3566,4.4389,4.5137,4.587,4.6033,4.5736,4.4885,4.4951,4.5364,4.4364,4.4544,4.5257,4.5257,4.5759,4.6252,4.5528,4.5788,4.6242,4.5517,4.5825,4.6067,4.4413,4.341,4.2452,4.0817,3.9795,3.9175,3.9101,3.9101,3.9101,3.9101,3.9101,3.9101,3.9101,3.9101,3.9387,0.0,3.9702,0.0,0.0,3.9721,3.9565,4.0427,4.1913,4.3206,4.4042,4.4915,4.5732,4.6513,4.7293,4.8091,4.8872,4.8909,4.8909,4.8909,4.8909,4.8909,4.8909,4.8909,4.8909,4.8909,4.8909,4.8909,4.8909,4.8909,4.8909,4.8909,4.8909,4.8909,4.8909,4.8927,4.9401,5.0219,5.1101,5.1936,5.2735,5.3515,5.3803,5.3803,3.7269,3.6888,3.6562,3.7145,3.7505,3.8191,3.953,4.0331,4.0938,4.1357,4.1791,4.1997,4.1804,4.1765,4.1781,4.1876,4.1943,4.2,4.1992,4.2029,4.1912,4.1612,4.2147,4.2202,4.1686,4.2474,4.2765,4.2484,4.2221,4.1967,0.0,0.0,0.0,0.0,4.2121,4.2899,4.3646,4.4507,4.5024,4.5315,4.5751,4.637,4.6953,4.6376,4.594,4.5599,4.5248,4.5589,4.6232,4.6232,4.6339,4.655,4.681,4.6717,4.655,4.681,4.6698,4.6382,4.5807,4.5844,4.5528,4.3336,4.2983,4.2768,4.1133,4.0334,3.9963,3.9963,3.9498,3.9101,3.9101,3.9101,3.9194,0.0,3.9287,3.9194,0.0,3.9287,3.9212,3.9498,4.0996,4.2519,4.3875,4.5268,4.642,4.7237,4.8036,4.8612,4.889,4.8909,4.8909,4.8909,4.8909,4.8909,4.8909,4.8909,4.8909,4.8909,4.8909,4.8909,4.8909,4.8909,4.8909,4.8909,4.8909,4.8909,4.8909,4.8909,4.9364,5.0182,5.1063,5.1881,5.2698,5.3487,5.3803,5.3803,3.8688,3.8972,3.8933,3.87,3.9117,3.9867,4.0913,4.1661,4.2158,4.2338,4.2608,4.2811,4.2954,4.3049,4.3256,4.3614,4.34,4.3169,4.2928,4.2892,4.2538,4.1741,4.2466,4.2801,4.2565,4.2783,4.3036,4.3326,4.252,4.213,0.0,0.0,0.0,0.0,4.2674,4.3507,4.4548,4.5073,4.5707,4.6403,4.6882,4.7185,4.7375,4.7544,4.6946,4.603,4.6134,4.6622,4.7217,4.7182,4.7293,4.7533,4.7987,4.7776,4.746,4.798,4.7757,4.7237,4.6661,4.6884,0.0,4.4544,4.4413,4.4339,4.2471,4.1635,4.1244,4.1244,4.0346,3.9825,4.068,3.9881,3.9305,0.0,0.0,3.9101,0.0,3.9101,3.9101,3.9101,4.0048,4.1349,4.2983,4.4376,4.5769,4.7163,4.8017,4.8612,4.889,4.8909,4.8909,4.8909,4.8909,4.8909,4.8909,4.8909,4.8909,4.8909,4.8909,4.8909,4.8909,4.8909,4.8909,4.8909,4.8909,4.8909,4.8909,4.8909,4.9206,4.9763,5.0618,5.1435,5.2308,5.3394,5.3803,5.3803,4.0553,4.0875,4.0602,3.9772,4.0686,4.1709,4.2207,4.2333,4.2392,4.2483,4.2575,4.293,4.3714,4.3961,4.4373,4.515,4.4561,4.3833,4.3073,4.2982,4.2611,4.185,4.2556,4.3326,4.4087,4.3344,4.3326,4.4105,4.329,4.2892,0.0,0.0,0.0,0.0,4.3,4.3888,4.5363,4.5363,4.6521,4.8383,4.9023,4.8375,4.7146,4.8275,4.7877,4.6774,4.7008,4.7604,4.8243,4.8134,4.8584,4.9189,4.8978,4.8917,4.8917,4.8909,4.8909,4.8574,4.7033,4.6624,4.6234,4.4599,4.4191,4.3968,4.3169,4.2946,4.2927,4.2927,4.1672,4.1244,4.3466,4.133,3.9714,4.1226,4.0148,3.9101,3.9101,3.9101,3.9101,3.9101,3.9175,3.9825,4.1393,4.2333,4.3856,4.6252,4.7218,4.8054,4.8872,4.8872,4.8872,4.8909,4.8909,4.8909,4.8909,4.8909,4.8909,4.8909,4.8909,4.8909,4.8909,4.8909,4.8909,4.8909,4.8909,4.8909,4.8909,4.8909,4.8909,4.8974,4.9791,5.0636,5.1584,5.3218,5.3803,5.3803,4.14,4.177,4.1832,4.1609,4.1877,4.2145,4.2277,4.2841,4.3071,4.2565,4.3632,4.4319,4.3989,4.4558,4.5052,4.5251,4.51,4.4892,4.4693,4.4123,4.3707,4.3498,4.3689,4.3888,4.4105,4.3906,4.3888,4.4105,4.329,4.2892,4.291,0.0,0.0,4.3815,4.4431,4.5254,4.6196,4.6196,4.7151,4.8609,4.7841,4.8029,4.8743,4.871,4.8688,4.8633,4.8355,4.8723,4.9313,4.9276,4.9303,4.9321,4.917,4.9121,4.9088,4.8943,4.8909,4.8816,4.8407,4.8277,4.8036,4.7014,4.6754,4.6531,0.0,0.0,4.4663,4.4663,4.3801,4.289,4.2314,4.1542,4.068,3.9863,3.938,3.9101,3.9101,3.9101,3.9101,3.9101,4.0197,4.0891,4.0724,4.2519,4.4228,4.5517,4.6903,4.8054,4.8872,4.8333,4.8277,4.889,4.8909,4.8909,4.8909,4.8909,4.8909,4.8909,4.8909,4.8909,4.8909,4.8909,4.8909,4.8909,4.8909,4.8909,4.8909,4.8909,4.8909,4.8974,4.9791,5.0636,5.1584,5.3218,5.3803,5.3756,4.1941,4.2205,4.2297,4.2297,4.2356,4.2394,4.2394,4.3071,4.3494,4.319,4.4013,4.4608,4.4568,4.47,4.491,4.5273,4.5291,4.5146,4.4802,4.4359,4.4105,4.4105,4.4105,4.4421,4.5128,4.4802,4.4621,4.4621,4.4178,4.3779,4.3435,4.425,4.4621,4.4639,4.5091,4.5743,4.6514,4.6688,4.7248,4.7967,4.7414,4.7858,0.0,4.8951,4.9266,4.9572,4.9313,4.9478,4.9785,4.9721,4.9615,4.951,4.9348,4.9292,4.9241,4.9088,4.9029,4.9012,4.8926,4.8909,4.8797,4.8333,4.8221,4.8017,4.7218,4.6661,4.6345,4.6345,4.5398,4.4599,4.4766,4.3336,4.1702,4.0401,3.9584,3.9231,3.9602,3.9349,3.9196,3.9416,4.0077,4.0377,4.0042,4.2767,4.4915,4.5759,4.6661,4.7367,4.7831,4.7757,4.7906,4.837,4.8723,4.8909,4.8909,4.8909,4.8909,4.8909,4.8909,4.8909,4.8909,4.8909,4.8909,4.8909,4.8909,4.8909,4.8909,4.8909,4.8909,4.8974,4.9791,5.0395,5.0989,5.2289,5.2977,5.3282,4.2221,4.2308,4.2336,4.2336,4.2524,4.2649,4.2552,4.3074,4.3622,4.3964,4.4012,4.4305,4.5063,4.4603,4.454,4.5236,4.5291,4.5001,4.4304,4.416,4.416,4.425,4.416,4.4838,4.6457,4.5707,4.5345,4.5454,4.5345,4.4928,0.0,4.5073,4.5454,4.5454,4.5562,4.5943,4.6524,4.6924,4.7058,4.7049,4.7496,4.7909,4.8363,4.9153,4.9655,4.9905,4.9905,4.9905,4.9885,4.9771,4.9728,4.9699,4.9491,4.9438,4.9407,4.9268,4.9211,4.9154,4.8986,4.8926,4.8909,4.8909,4.8909,4.8723,4.8017,4.7868,4.7868,4.7868,4.6735,4.6345,4.824,4.5509,4.2678,4.1831,4.061,4.0011,4.0761,4.0215,3.984,4.0087,3.99,0.0,3.9579,4.2846,4.5241,4.5914,4.6199,4.642,4.6643,4.7218,4.7646,4.785,4.8537,4.8909,4.8909,4.8909,4.8909,4.8909,4.8909,4.8909,4.8909,4.8909,4.8909,4.8909,4.8909,4.8909,4.8909,4.8909,4.8909,4.8964,4.9661,4.994,5.0052,5.0915,5.1649,5.2298,4.2162,4.2394,4.2455,4.2455,4.3084,4.3382,4.2824,4.2861,4.3205,4.3912,4.4053,4.414,4.4295,4.4784,4.5146,4.5291,4.5291,4.5236,4.5091,4.4467,4.4395,4.5055,4.444,4.4838,4.6457,4.5707,4.5635,4.6287,4.5635,4.5236,0.0,4.5906,4.6287,4.6323,4.6983,4.6993,4.6524,4.6867,4.7048,4.7141,4.7772,4.8479,4.9212,4.9655,4.9845,4.9905,4.9905,4.9905,4.9905,4.9878,4.9871,4.9843,4.9688,4.9656,4.96,4.9415,4.9292,4.9187,4.9173,4.9029,4.8909,4.8909,4.8909,4.8872,4.8723,4.8686,4.8686,4.8686,4.8481,4.7999,4.7088,4.5212,4.346,4.2432,4.2759,4.3206,4.3355,4.3243,4.2689,4.1445,4.2385,4.2282,4.0131,4.1932,4.3203,4.3123,4.4588,4.6093,4.7423,4.6995,4.7311,4.8649,4.8834,4.8909,4.8909,4.8909,4.8909,4.8909,4.8909,4.8909,4.8909,4.8909,4.8909,4.8909,4.8909,4.8909,4.8909,4.8909,4.8909,4.8909,4.9057,4.9113,4.9206,5.0042,5.0278,5.0356,4.2226,4.2415,4.2493,4.2493,4.2921,4.3312,4.3415,4.3094,4.3141,4.3955,4.4066,4.4105,4.4105,4.4069,4.4069,4.4069,4.4069,4.4069,4.4069,4.3689,4.3833,4.4639,4.4313,4.4838,4.6457,4.6124,4.6106,4.6504,4.654,4.6341,0.0,0.0,4.7109,4.7145,4.7526,4.7254,4.6514,4.667,4.6759,4.6837,4.7375,4.8184,4.912,4.9503,4.9748,4.9905,4.9905,4.9905,4.9905,4.9905,4.9905,4.9898,4.9823,4.9802,4.9767,4.9607,4.9503,4.9452,4.934,4.9233,4.916,4.916,4.916,4.916,4.916,4.9121,4.9054,4.9054,4.8978,4.8537,4.7348,4.5769,0.0,4.4539,4.3871,4.367,4.4544,4.4283,4.3828,4.3331,4.2962,4.24,4.1534,4.1771,4.2269,4.2965,4.4442,4.5815,4.7014,4.6717,4.7051,4.824,4.8686,4.8909,4.8909,4.8909,4.8909,4.8909,4.8909,4.8909,4.8909,4.8909,4.8909,4.8909,4.8909,4.8909,4.8891,4.8704,4.8641,4.8623,4.8486,4.842,4.8485,4.8872,4.9073,4.9412,4.231,4.2498,4.2637,4.2675,4.3007,4.3513,4.4158,4.384,4.373,4.4278,4.4214,4.4105,4.4105,4.3526,4.3091,4.291,4.2892,4.2892,4.2892,4.2892,4.3181,4.3815,4.3833,4.4522,4.5961,4.616,4.6341,4.6504,4.7308,4.7381,0.0,0.0,4.7707,4.7689,4.7526,4.7091,4.6504,4.6504,4.6504,4.6553,4.7117,4.7887,4.8747,4.9131,4.9431,4.9679,4.9679,4.9679,4.9679,4.9679,4.9764,4.9898,4.9811,4.9838,4.9871,4.9681,4.967,4.967,4.9518,4.9438,4.9407,4.9407,4.9407,4.9407,4.9407,4.9313,4.9244,4.9244,4.9121,4.8726,4.7772,4.6723,0.0,4.6459,4.5035,4.4367,4.5689,4.5282,4.4865,4.4935,4.3468,4.2508,4.2753,4.222,4.2358,4.3589,4.4615,4.5572,4.6457,4.6494,4.6865,4.7664,4.8314,4.8649,4.8649,4.8816,4.8909,4.8909,4.8909,4.8909,4.8909,4.8909,4.8909,4.8909,4.8909,4.8909,4.8864,4.855,4.8402,4.8374,4.8093,4.8002,4.8002,4.8002,4.8177,4.8681,4.2302,4.2777,4.3087,4.3205,4.4159,4.4934,4.5068,4.5336,4.5451,4.5213,4.4548,4.4105,4.4105,4.4033,4.3689,4.2964,4.2892,4.2892,4.2892,4.2892,4.2928,4.3018,4.3018,4.3417,4.4313,4.5037,4.578,4.6504,4.7308,4.7652,4.758,0.0,4.7707,4.7671,4.6928,4.6576,0.0,4.6504,4.6504,4.6589,4.7738,4.8252,4.8383,4.8738,4.8876,4.891,4.891,4.891,4.891,4.891,4.9358,4.9838,4.9551,4.9662,4.9831,4.9521,4.9555,4.9692,4.9678,4.9548,4.9407,4.9407,4.9407,4.9407,4.9407,4.9391,4.9384,4.9384,4.9368,4.892,4.7515,4.7865,4.7978,4.6711,4.7069,4.757,4.7735,4.768,4.7076,4.5613,4.5267,4.4506,4.2865,4.3494,4.4006,4.3959,4.4519,4.5325,4.6449,4.6494,4.6865,4.7664,4.7776,4.7813,4.7813,4.8537,4.8909,4.8909,4.8909,4.8909,4.8909,4.8909,4.8909,4.8909,4.8909,4.8909,4.8864,4.855,4.8402,4.8374,4.8093,4.8002,4.8002,4.8002,4.7842,4.7735,4.305,4.3343,4.3688,4.4227,4.4788,4.5332,4.5847,4.6069,4.6296,4.6625,4.5594,4.482,4.482,4.482,4.4494,4.3689,4.3616,4.3417,4.2928,4.2892,4.2892,4.2892,4.2892,4.3272,4.4087,4.4431,4.52,4.6504,4.683,4.7218,4.7707,0.0,0.0,0.0,0.0,4.6232,4.5816,4.6305,4.6504,4.6607,4.7812,4.8296,4.8344,4.8658,4.8807,4.8807,4.8807,4.8807,4.8807,4.8807,4.9003,4.9214,4.9087,4.9118,4.9206,4.9079,4.9096,4.9153,4.9153,4.9286,4.9407,4.9407,4.9559,4.9705,4.9705,4.9652,4.9578,4.9578,4.9476,4.9224,4.8625,4.8272,4.8027,4.7951,4.7672,4.7621,4.8107,4.818,4.7924,4.7264,4.6264,4.5455,4.5025,4.4418,4.4236,4.4626,4.5008,4.5507,4.6157,4.6656,4.7169,4.7674,4.8166,4.8426,4.8426,4.8742,4.8909,4.8909,4.8909,4.8909,4.8909,4.8909,4.8909,4.8891,4.8686,4.8605,4.8569,4.8055,4.7862,4.7832,4.7525,4.7396,4.7396,4.7396,4.7309,4.7248,4.3907,4.4175,4.4572,4.5414,4.5722,4.6109,4.6948,4.6975,4.7202,4.8025,4.7085,4.6236,4.5998,4.598,4.556,4.4501,4.4428,4.4081,4.325,4.3195,4.3195,4.3195,4.3195,4.3469,4.4026,4.4189,4.4795,4.5931,4.6084,4.645,4.6983,0.0,0.0,0.0,4.5906,4.5743,4.5671,4.6015,4.6421,4.6923,4.7773,4.8111,4.8151,4.8402,4.8486,4.8486,4.8486,4.8486,4.8486,4.8486,4.8486,4.8504,4.8623,4.8711,4.8781,4.8676,4.872,4.8807,4.8807,4.9013,4.922,4.922,4.9408,4.958,4.958,4.9491,4.9446,4.9446,4.9326,4.9188,4.909,4.8353,4.7912,4.8412,4.7734,4.7355,4.7931,4.8004,4.8004,4.8004,4.6721,4.6083,4.6677,4.5426,4.4805,4.5385,4.5796,4.6074,4.6204,4.6838,4.7315,4.7546,4.8197,4.8556,4.8556,4.8779,4.8909,4.8909,4.8909,4.8909,4.89,4.8794,4.8759,4.8741,4.843,4.8279,4.824,4.7726,4.75,4.7468,4.7127,4.7009,4.7009,4.7009,4.7009,4.7009,4.4804,4.5247,4.5768,4.6704,4.7147,4.7674,4.8534,4.8336,4.8393,4.9268,4.9019,4.8446,4.7673,4.758,4.6929,4.5332,4.5191,4.4822,4.3944,4.3889,4.3889,4.3889,4.3889,4.3889,4.3907,4.4359,4.4609,4.4627,4.5087,4.5327,4.5327,0.0,4.5327,4.5273,4.4476,4.5001,4.6432,4.5653,4.6232,4.7689,4.7699,4.7717,4.7717,4.771,4.771,4.771,4.771,4.771,4.771,4.771,4.771,4.7783,4.818,4.8541,4.8729,4.8402,4.855,4.8807,4.8807,4.8807,4.8807,4.8807,4.8816,4.8816,4.8816,4.8816,4.8816,4.8816,4.8816,4.8721,4.8373,4.8192,4.7957,4.7578,0.0,4.7302,4.7302,4.7302,4.7302,4.7302,4.6647,4.6485,4.723,4.66,4.6169,4.6198,4.6852,4.7117,4.6713,4.7002,4.7197,4.7206,4.7528,4.7701,4.7701,4.85,4.8909,4.8909,4.8909,4.8909,4.8891,4.8569,4.8411,4.8393,4.8113,4.8002,4.7982,4.7631,4.75,4.7468,4.7127,4.7009,4.7009,4.7009,4.7009,4.7009,4.6417,4.6723,4.7081,4.7971,4.8222,4.8559,4.94,4.9413,4.9426,4.9703,4.9636,4.9445,4.9196,4.8725,4.7776,4.616,4.6011,4.5417,4.3997,4.3904,4.3904,4.3904,4.3904,4.3904,4.3904,4.4053,4.4395,4.4934,4.4856,4.4991,0.0,4.5291,4.5001,4.4486,4.4784,4.52,4.5707,4.5997,4.6729,4.7707,4.7707,4.7707,4.7707,4.7707,4.7707,4.7707,4.7707,4.7707,4.7707,4.7707,4.7707,4.771,4.7855,4.7962,4.8024,4.7929,4.7962,4.8043,4.8043,4.824,4.8449,4.8449,4.8632,4.8807,4.8807,4.8807,4.8807,4.8807,4.8807,4.8764,4.8667,4.8421,4.8191,4.8072,4.7767,4.7565,4.7565,4.7565,4.7565,4.7565,4.7284,4.7176,4.741,4.7147,4.6744,4.6241,4.6421,4.6328,4.5832,4.7088,4.7674,4.7351,4.8109,0.0,4.8519,4.8907,4.9104,4.9104,4.9104,4.9037,4.8909,4.8933,4.8749,4.8393,4.8213,4.7957,4.7621,4.7305,4.716,4.7149,4.7037,4.7009,4.7009,4.7009,4.7009,4.7009,4.7674,4.7896,4.8161,4.8995,4.9153,4.9317,4.981,4.9905,4.9905,4.9905,4.9905,4.9905,4.9905,4.9488,4.8559,4.693,4.678,4.6068,4.4394,4.4282,4.4282,4.4282,4.4282,4.4282,4.4282,4.4154,0.0,4.4837,4.439,4.4227,4.4395,4.4395,4.4141,4.3689,4.4486,4.5019,4.5345,4.616,4.6964,4.7707,4.7707,4.7707,4.7707,4.7707,4.7707,4.7707,4.7707,4.7707,4.7707,4.7707,4.7707,4.7707,4.7707,4.7707,4.7707,4.7707,4.7707,4.7707,4.7707,4.7878,4.8062,4.8062,4.8221,4.8393,4.8393,4.8393,4.8393,4.8393,4.8393,4.8393,4.8393,4.822,4.8062,4.8062,4.7847,4.7707,4.7707,4.7707,4.7707,4.7707,4.7354,4.7239,4.7547,4.723,4.6935,4.6783,4.6765,4.6615,4.6277,4.7075,4.7536,4.7554,4.8228,4.8596,4.8596,4.8695,4.8758,4.8793,4.8847,4.8759,4.8578,4.8793,4.8614,4.8132,4.8049,4.7797,4.7396,4.7116,4.7032,4.7066,4.702,4.7009,4.7009,4.7009,4.7009,4.7009,4.8616,4.8768,4.9014,4.9772,4.9905,4.9905,4.9905,4.9905,4.9905,4.9905,4.9905,4.9905,4.9905,4.9905,4.9242,4.763,4.7441,4.6714,4.5103,4.4933,4.4895,4.4895,4.4895,4.4895,4.4895,4.459,4.4416,4.4381,4.3735,4.3258,4.2892,4.2892,4.2892,4.2946,4.3797,4.4603,4.5363,4.6214,4.7029,4.7707,4.7707,4.7707,4.7707,4.7707,4.7707,4.7707,4.7707,4.7707,4.7707,4.7707,4.7707,4.7707,4.7707,4.7707,4.7707,4.7707,4.7707,4.7707,4.7707,4.7707,4.7707,4.7707,4.7707,4.7707,4.7707,4.7707,4.7707,4.7707,4.7707,4.7707,4.7707,4.7707,4.7707,4.7707,4.7707,4.7707,4.7707,4.7707,4.7707,4.7707,4.7047,4.6874,4.7634,4.7019,4.6866,4.7562,4.7616,4.7616,4.7616,4.6966,4.6965,4.7795,4.8015,4.8114,4.8104,4.8053,4.8063,4.8115,4.8249,4.8209,4.8032,4.8289,4.8163,4.771,4.7726,4.758,4.7298,4.7104,4.7088,4.7196,4.7066,4.702,4.7009,4.7009,4.7009,4.7009,4.945,4.9621,4.9684,4.9874,4.9905,4.9905,4.9905,4.9905,4.9905,4.9905,4.9905,4.9905,4.9905,4.9905,4.9488,4.8483,4.7782,4.6967,4.5956,4.5274,4.4895,4.4895,4.4895,4.4895,4.4895,4.4814,4.4537,4.402,4.3865,4.3473,4.2892,4.2892,4.2892,4.2964,4.4385,4.5128,4.5399,4.6801,4.7526,4.7707,4.7707,4.7707,4.7707,4.7707,4.7707,4.7707,4.7707,4.7707,4.7707,4.7707,4.7707,4.7707,4.7707,4.7707,4.7707,4.7707,4.7707,4.7707,4.7707,4.7707,4.7707,4.7707,4.7707,4.7707,4.7707,4.7707,4.7707,4.7707,4.7707,4.7707,4.7707,4.7707,4.7707,4.7707,4.7707,4.7707,4.7707,4.7707,4.7707,4.7707,4.7526,4.7489,4.7671,4.7526,4.7236,4.683,4.6783,4.6783,4.6783,4.6615,4.6961,4.7915,4.8142,4.821,4.8104,4.8232,4.8318,4.8318,4.8365,4.8326,4.8238,4.8458,4.8269,4.779,4.7937,4.7733,4.7309,4.7254,4.7216,4.7196,4.7174,4.7088,4.7009,4.7009,4.7009,4.7009,4.981,4.9905,4.9905,4.9905,4.9905,4.9905,4.9905,4.9905,4.9905,4.9905,4.9905,4.9905,4.9905,4.9905,4.9715,4.9279,4.8123,4.7062,4.6247,4.5388,4.4895,4.4895,4.4895,4.4895,4.4895,4.4895,4.4564,4.3904,4.3904,4.3557,4.2892,4.2892,4.3091,4.3507,4.4747,4.5508,4.5924,4.7164,4.7707,4.7707,4.7707,4.7707,4.7707,4.7707,4.7707,4.7707,4.7707,4.7707,4.7707,4.7707,4.7707,4.7707,4.7707,4.7707,4.7707,4.7707,4.7707,4.7707,4.7707,4.7707,4.7707,4.7707,4.7707,4.7707,4.7707,4.7707,4.7707,4.7707,4.7707,4.7707,4.7707,4.7707,4.7707,4.7707,4.7381,4.7272,4.7652,4.7381,4.729,4.7652,4.7707,4.7707,4.7707,4.7707,4.7508,4.7073,4.7055,4.7055,4.7055,4.7399,4.7679,4.7858,4.7901,4.7893,4.7832,4.7877,4.7848,4.7764,4.7917,4.7915,4.7809,4.8249,4.8172,4.7676,4.7975,4.7883,4.7479,4.7327,4.7283,4.7323,4.7167,4.71,4.7088,4.7014,4.7009,4.7009,4.9905,4.9905,4.9905,4.9905,4.9905,4.9905,4.9905,4.9905,4.9905,4.9905,4.9905,4.9905,4.9905,4.9905,4.9848,4.9734,4.8294,4.7119,4.6436,4.5445,4.4895,4.4895,4.4895,4.4895,4.4895,4.4895,4.4609,4.3981,4.3927,4.3582,4.2958,4.292,4.3326,4.4141,4.4928,4.5743,4.6558,4.7363,4.7707,4.7707,4.7707,4.7707,4.7707,4.7707,4.7707,4.7707,4.7707,4.7707,4.7707,4.7707,4.7707,4.7707,4.7707,4.7707,4.7707,4.7707,4.7707,4.7707,4.7707,4.7707,4.7707,4.7707,4.7707,4.7707,4.7707,4.7707,4.7707,4.7707,4.7707,4.7707,4.7707,4.7707,4.7707,4.7707,4.7127,4.692,4.7598,4.7109,4.6928,4.7616,4.7707,4.7707,4.7707,4.7707,4.7707,4.7707,4.7815,4.7888,4.7888,4.863,4.8703,4.7906,4.7774,4.7637,4.7479,4.7331,4.7176,4.7043,4.7316,4.7388,4.7267,4.7891,4.7941,4.7543,4.7893,4.7911,4.7686,4.7377,4.7367,4.7468,4.716,4.7111,4.7167,4.7054,4.7009,4.7009,4.9905,4.9905,4.9905,4.9905,4.9905,4.9905,4.9905,4.9905,4.9905,4.9905,4.9905,4.9905,4.9905,4.9905,4.9627,4.8945,4.7972,4.7346,4.7226,4.5767,4.4895,4.4895,4.4895,4.4895,4.4895,4.4895,4.4707,4.432,4.4042,4.3705,4.331,4.3032,4.3326,4.4141,4.4928,4.5743,4.6558,4.7363,4.7707,4.7707,4.7707,4.7707,4.7707,4.7707,4.7707,4.7707,4.7707,4.7707,4.7707,4.7707,4.7707,4.7707,4.7707,4.7707,4.7707,4.7707,4.7707,4.7707,4.7707,4.7707,4.7707,4.7707,4.7707,4.7707,4.7707,4.7707,4.7707,4.7707,4.7707,4.7707,4.7707,4.7707,4.7707,4.7707,4.7598,4.7562,4.7671,0.0,4.7562,4.7689,4.7707,4.7707,4.7707,4.7707,4.7707,4.7707,4.8322,4.8721,4.8721,4.9474,4.9546,4.8739,4.8681,4.8258,4.7341,4.7149,4.71,4.7174,4.7212,4.7323,4.7457,4.7557,4.7639,4.7668,4.7731,4.7741,4.7707,4.7636,4.7572,4.749,4.732,4.7227,4.7167,4.7054,4.7009,4.7009,4.9905,4.9905,4.9905,4.9905,4.9905,4.9905,4.9905,4.9905,4.9905,4.9905,4.9905,4.9905,4.9905,4.9905,4.9583,4.8768,4.7896,4.7213,4.6778,4.5596,4.4895,4.4895,4.4895,4.4895,4.4895,4.4895,4.4745,4.439,4.4054,4.373,4.3397,4.306,4.3562,4.4765,4.5128,4.5997,4.7164,4.7544,4.7707,4.7707,4.7707,4.7707,4.7707,4.7707,4.7707,4.7707,4.7707,4.7707,4.7707,4.7707,4.7707,4.7707,4.7707,4.7707,4.7707,4.7707,4.7707,4.7707,4.7707,4.7707,4.7707,4.7707,4.7707,4.7707,4.7707,4.7707,4.7707,4.7707,4.7707,4.7707,4.7707,4.7707,4.7707,4.7707,4.7345,4.72,4.7634,4.7327,4.72,4.7652,4.7707,4.7707,4.7707,4.7707,4.787,4.8322,4.8684,4.9083,4.9528,5.0318,5.018,4.8938,4.8403,4.7879,4.7309,4.7172,4.71,4.7088,4.7174,4.7245,4.7345,4.7446,4.7533,4.7604,4.7668,4.7707,4.7689,4.7625,4.7604,4.7593,4.7338,4.7249,4.7238,4.7059,4.7009,4.7009,4.9905,4.9905,4.9905,4.9905,4.9905,4.9905,4.9905,4.9905,4.9905,4.9905,4.9905,4.9905,4.9905,4.9905,4.9488,4.8483,4.7782,4.6967,4.5956,4.5274,4.4895,4.4895,4.4895,4.4895,4.4895,4.4895,4.4777,4.453,4.4102,4.377,4.3517,4.3078,4.3761,4.5291,4.5291,4.6196,4.7707,4.7707,4.7707,4.7707,4.7707,4.7707,4.7707,4.7707,4.7707,4.7707,4.7707,4.7707,4.7707,4.7707,4.7707,4.7707,4.7707,4.7707,4.7707,4.7707,4.7707,4.7707,4.7707,4.7707,4.7707,4.7707,4.7707,4.7707,4.7707,4.7707,4.7707,4.7707,4.7707,4.7707,4.7707,4.7707,4.7707,4.7707,0.0,4.6983,4.7616,4.7164,4.7001,4.7634,4.7707,4.7707,4.7707,4.787,4.8232,4.8847,4.9246,4.9727,5.0354,5.1133,5.0832,4.9228,4.8067,4.7407,4.7291,4.7194,4.71,4.7009,4.71,4.7174,4.7207,4.7367,4.7436,4.7468,4.7604,4.7646,4.7646,4.7583,4.7615,4.7675,4.7377,4.7294,4.7331,4.7116,4.7043,4.7043,4.9905,4.9905,4.9905,4.9905,4.9905,4.9905,4.9905,4.9905,4.9905,4.9905,4.9905,4.9905,4.9905,4.9905,4.9242,4.7649,4.7441,4.6714,4.5103,4.4933,4.4895,4.4895,4.4895,4.4895,4.4895,4.4895,4.4883,4.4864,4.4231,4.3889,4.3849,4.3204,4.3761,4.5291,4.5291,4.6196,4.7707,4.7707,4.7707,4.7707,4.7707,4.7707,4.7707,4.7707,4.7707,4.7707,4.7707,4.7707,4.7707,4.7707,4.7707,4.7707,4.7707,4.7707,4.7707,4.7707,4.7707,4.7707,4.7707,4.7707,4.7707,4.7707,4.7707,4.7707,4.7707,4.7707,4.7707,4.7707,4.7707,4.7707,4.7707,4.7707,4.7707,4.7707,0.0,0.0,4.7689,4.7652,4.7634,4.7689,4.7707,4.7707,4.7707,4.8377,4.8847,4.8902,5.0289,5.1151,5.1205,5.1984,5.1665,5.0064,4.8261,4.7302,4.7291,4.7116,4.702,4.7009,4.702,4.7077,4.7207,4.7219,4.7267,4.7313,4.7468,4.7511,4.7522,4.7636,4.7678,4.7696,4.7551,4.7479,4.7468,4.7256,4.7196,4.7174,4.9905,4.9905,4.9905,4.9905,4.9905,4.9905,4.9905,4.9905,4.9905,4.9905,4.9905,4.9905,4.9905,4.9905,4.9223,4.7555,4.7403,4.6695,4.5009,4.4895,4.4895,4.4895,4.4895,4.4895,4.4895,4.4895,4.4895,4.4895,4.422,4.3904,4.3907,4.3725,4.425,4.5327,4.5816,4.6657,4.7707,4.7707,4.7707,4.7707,4.7707,4.7707,4.7707,4.7707,4.7707,4.7707,4.7707,4.7707,4.7707,4.7707,4.7707,4.7707,4.7707,4.7707,4.7707,4.7707,4.7707,4.7707,4.7707,4.7707,4.7707,4.7707,4.7707,4.7707,4.7707,4.7707,4.7707,4.7707,4.7707,4.7707,4.7707,4.7707,4.7707,4.7707,0.0,4.7707,4.7707,4.7707,4.7707,4.7707,4.7707,4.7906,4.8395,4.8721,4.9318,5.0307,5.0941,5.1513,5.2021,5.1858,5.1477,5.0861,4.9007,4.7794,4.7291,4.7104,4.7009,4.7009,4.7009,4.7032,4.7077,4.7156,4.7212,4.7238,4.7331,4.7374,4.7385,4.7428,4.75,4.7554,4.7428,4.7374,4.7363,4.7245,4.7151,4.7066,4.9905,4.9905,4.9905,4.9905,4.9905,4.9905,4.9905,4.9905,4.9905,4.9905,4.9905,4.9905,4.9905,4.9905,4.9223,4.7555,4.7403,4.6695,4.5009,4.4895,4.4895,4.4895,4.4895,4.4895,4.4895,4.4895,4.4895,4.4895,4.432,4.4004,4.3907,4.4144,4.4629,4.5345,4.6142,4.6946,4.7707,4.7707,4.7707,4.7707,4.7707,4.7707,4.7707,4.7707,4.7707,4.7707,4.7707,4.7707,4.7707,4.7707,4.7707,4.7707,4.7707,4.7707,4.7707,4.7707,4.7707,4.7707,4.7707,4.7707,4.7707,4.7707,4.7707,4.7707,4.7707,4.7707,4.7707,4.7707,4.7707,4.7707,4.7707,4.7707,4.7707,4.7707,4.7707,4.7707,4.7707,4.7707,4.7707,4.7707,4.7707,4.8015,4.8829,4.9137,4.9836,5.1205,5.1531,5.193,5.2462,5.1984,5.1568,5.1314,4.971,4.8477,4.7668,4.723,4.7009,4.7009,4.7009,4.7009,4.6991,4.7088,4.7151,4.7133,4.7227,4.7283,4.7265,4.728,4.7363,4.7428,4.7385,4.7341,4.728,4.7249,4.7167,4.7054,4.9905,4.9905,4.9905,4.9905,4.9905,4.9905,4.9905,4.9905,4.9905,4.9905,4.9905,4.9905,4.9905,4.9905,4.9223,4.7555,4.7403,4.6695,4.5009,4.4895,4.4895,4.4895,4.4895,4.4895,4.4895,4.4895,4.4895,4.4895,4.457,4.4227,4.3915,4.4379,4.4866,4.5345,4.616,4.6946,4.7707,4.7707,4.7707,4.7707,4.7707,4.7707,4.7707,4.7707,4.7707,4.7707,4.7707,4.7707,4.7707,4.7707,4.7707,4.7707,4.7707,4.7707,4.7707,4.7707,4.7707,4.7707,4.7707,4.7707,4.7707,4.7707,4.7707,4.7707,4.7707,4.7707,4.7707,4.7707,4.7707,4.7707,4.7707,4.7707,4.7707,4.7707,4.7707,4.7707,4.7707,4.7707,4.7707,4.7707,4.7707,4.8015,4.8829,4.9619,5.0445,5.126,5.2057,5.2498,5.2498,5.2498,5.2147,5.1332,5.028,4.9315,4.8524,4.7498,4.7009,4.7009,4.7009,4.7009,4.7009,4.7009,4.7009,4.702,4.7133,4.7207,4.719,4.7265,4.7291,4.7302,4.7457,4.7407,4.7291,4.7291,4.7261,4.7185,4.9905,4.9905,4.9905,4.9905,4.9905,4.9905,4.9905,4.9905,4.9905,4.9905,4.9905,4.9905,4.9905,4.9905,4.9223,4.7555,4.7403,4.6695,4.5009,4.4895,4.4895,4.4895,4.4895,4.4895,4.4895,4.4895,4.4895,4.4895,4.457,4.4227,4.3915,4.4959,4.5386,4.5363,4.6729,4.7471,4.7707,4.7707,4.7707,4.7707,4.7707,4.7707,4.7707,4.7707,4.7707,4.7707,4.7707,4.7707,4.7707,4.7707,4.7707,4.7707,4.7707,4.7707,4.7707,4.7707,4.7707,4.7707,4.7707,4.7707,4.7707,4.7707,4.7707,4.7707,4.7707,4.7707,4.7707,4.7707,4.7707,4.7707,4.7707,4.7707,4.7707,4.7707,4.7707,4.7707,4.7707,4.7707,4.7707,4.7707,4.7707,4.8232,4.9601,4.9956,5.0662,5.2027,5.2353,5.2498,5.2498,5.2498,5.2513,5.2564,5.1258,5.0297,4.9763,4.7922,4.7009,4.7009,4.7009,4.7009,4.7009,4.7009,4.7009,4.702,4.7283,4.729,4.7088,4.7338,4.7359,4.7216,4.7278,4.7267,4.7234,4.7234,4.7167,4.7054,4.9905,4.9905,4.9905,4.9905,4.9905,4.9905,4.9905,4.9905,4.9905,4.9905,4.9905,4.9905,4.9905,4.9905,4.9355,4.8028,4.7308,4.6361,4.499,4.4895,4.4895,4.4895,4.4895,4.4895,4.4895,4.4895,4.4895,4.4895,4.4694,4.443,4.4132,4.5394,4.581,4.5553,4.7037,4.7707,4.7707,4.7707,4.7707,4.7707,4.7707,4.7707,4.7707,4.7707,4.7707,4.7707,4.7707,4.7707,4.7707,4.7707,4.7707,4.7707,4.7707,4.7707,4.7707,4.7707,4.7707,4.7707,4.7707,4.7707,4.7707,4.7707,4.7707,4.7707,4.7707,4.7707,4.7707,4.7707,4.7707,4.7707,4.7707,4.7707,4.7707,4.7707,4.7707,4.7707,4.7707,4.7707,4.7707,4.7707,4.7707,4.8214,4.9492,4.9919,5.0771,5.2371,5.2498,5.2498,5.2498,5.2498,5.2599,5.2853,5.1585,5.0848,5.0739,4.8705,4.7517,4.7194,4.7059,4.7138,4.7385,4.7261,4.7272,4.7407,4.761,4.7522,4.7205,4.7425,4.7349,4.714,4.7185,4.7174,4.714,4.7185,4.7111,4.7009,4.9905,4.9905,4.9905,4.9905,4.9905,4.9905,4.9905,4.9905,4.9905,4.9905,4.9905,4.9905,4.9905,4.9905,4.9583,4.8768,4.7176,4.583,4.4952,4.4895,4.4895,4.4895,4.4895,4.4895,4.4895,4.4895,4.4883,4.4858,4.4883,4.4745,4.4498,4.5733,4.6165,4.5975,4.7167,4.7707,4.7707,4.7707,4.7707,4.7707,4.7707,4.7707,4.7707,4.7707,4.7707,4.7707,4.7707,4.7707,4.7707,4.7707,4.7707,4.7707,4.7707,4.7707,4.7707,4.7707,4.7707,4.7707,4.7707,4.7707,4.7707,4.7707,4.7707,4.7707,4.7707,4.7707,4.7707,4.7707,4.7707,4.7707,4.7707,4.7707,4.7707,4.7707,4.7707,4.7707,4.7707,4.7707,4.7707,4.7707,4.7707,4.8015,4.8829,4.9691,5.0843,5.2371,5.2498,5.2498,5.2498,5.2526,5.2549,5.2549,5.1594,5.12,5.145,4.9778,4.8507,4.7662,4.7274,4.7407,4.7992,4.7673,4.7705,4.8002,4.8032,4.785,4.7536,4.7536,4.7349,4.7037,4.7145,4.7111,4.7002,4.7151,4.71,4.7009,4.9905,4.9905,4.9905,4.9905,4.9905,4.9905,4.9905,4.9905,4.9905,4.9905,4.9905,4.9905,4.9905,4.9905,4.9583,4.8768,4.7176,4.583,4.4952,4.4895,4.4895,4.4895,4.4895,4.4895,4.4895,4.4895,4.4777,4.4505,4.4777,4.4948,4.5041,4.5889,4.6488,4.6837,4.7432,4.7707,4.7707,4.7707,4.7707,4.7707,4.7707,4.7707,4.7707,4.7707,4.7707,4.7707,4.7707,4.7707,4.7707,4.7707,4.7707,4.7707,4.7707,4.7707,4.7707,4.7707,4.7707,4.7707,4.7707,4.7707,4.7707,4.7707,4.7707,4.7707,4.7707,4.7707,4.7707,4.7707,4.7707,4.7707,4.7707,4.7707,4.7707,4.7707,4.7707,4.7707,4.7707,4.7707,4.7707,4.7707,4.7707,4.8015,4.8829,5.0198,5.1459,5.2426,5.2498,5.2498,5.2498,5.2798,5.2976,5.2976,5.2652,5.2268,5.1863,5.1064,5.0036,4.8821,4.812,4.786,4.8002,4.7921,4.7931,4.8012,4.8212,4.8143,4.7891,4.7891,4.7694,4.737,4.7127,4.7032,4.6991,4.7043,4.7014,4.7009,4.9905,4.9905,4.9905,4.9905,4.9905,4.9905,4.9905,4.9905,4.9905,4.9905,4.9905,4.9905,4.9905,4.9905,4.9412,4.818,4.727,4.6241,4.499,4.4895,4.4895,4.4895,4.4895,4.4895,4.4895,4.4732,4.4577,4.439,4.4577,4.4936,4.5451,4.5877,4.6511,4.7351,4.7595,4.7707,4.7707,4.7707,4.7707,4.7707,4.7707,4.7707,4.7707,4.7707,4.7707,4.7707,4.7707,4.7707,4.7707,4.7707,4.7707,4.7707,4.7707,4.7707,4.7707,4.7707,4.7707,4.7707,4.7707,4.7707,4.7707,4.7707,4.7707,4.7707,4.7707,4.7707,4.7707,4.7707,4.7707,4.7707,4.7707,4.7707,4.7707,4.7707,4.7707,4.7707,4.7707,4.7707,4.7707,4.7707,4.7707,4.8015,4.8829,4.9999,5.1061,5.1876,5.2281,5.2583,5.2783,5.2798,5.289,5.3096,5.2791,5.2583,5.252,5.1798,5.1224,5.0814,4.9679,4.9305,4.9626,4.9462,4.9463,4.9636,4.9769,4.9647,4.9385,4.9385,4.9091,4.8583,4.8028,4.7704,4.7526,4.7134,4.7009,4.7009,4.9905,4.9905,4.9905,4.9905,4.9905,4.9905,4.9905,4.9905,4.9905,4.9905,4.9905,4.9905,4.9905,4.9905,4.9223,4.7555,4.7403,4.6695,4.5009,4.4895,4.4895,4.4895,4.4895,4.4895,4.4895,4.4623,4.4436,4.4313,4.4313,4.4798,4.5739,4.579,4.6488,4.7712,4.771,4.7707,4.7707,4.7707,4.7707,4.7707,4.7707,4.7707,4.7707,4.7707,4.7707,4.7707,4.7707,4.7707,4.7707,4.7707,4.7707,4.7707,4.7707,4.7707,4.7707,4.7707,4.7707,4.7707,4.7707,4.7707,4.7707,4.7707,4.7707,4.7707,4.7707,4.7707,4.7707,4.7707,4.7707,4.7707,4.7707,4.7707,4.7707,4.7707,4.7707,4.7707,4.7707,4.7707,4.7707,4.7707,4.7707,4.8015,4.8829,4.9492,5.03,5.1224,5.193,5.2499,5.2969,5.275,5.2761,5.3096,5.2665,5.2672,5.3159,5.2375,5.2238,5.2735,5.1587,5.1157,5.1389,5.111,5.1147,5.1398,5.1398,5.1232,5.0977,5.091,5.0539,4.9915,4.9179,4.8681,4.8312,4.7651,4.739,4.7402,4.9905,4.9905,4.9905,4.9905,4.9905,4.9905,4.9905,4.9905,4.9905,4.9905,4.9905,4.9905,4.9905,4.9905,4.9223,4.7555,4.7403,4.6695,4.5009,4.4895,4.4895,4.4895,4.4895,4.4895,4.4895,4.4858,4.455,4.3974,4.3974,4.4631,4.586,4.5819,4.6654,4.8198,4.7862,4.7707,4.7707,4.7707,4.7707,4.7707,4.7707,4.7707,4.7707,4.7707,4.7707,4.7707,4.7707,4.7707,4.7707,4.7707,4.7707,4.7707,4.7707,4.7707,4.7707,4.7707,4.7707,4.7707,4.7707,4.7707,4.7707,4.7707,4.7707,4.7707,4.7707,4.7707,4.7707,4.7707,4.7707,4.7707,4.7707,4.7707,4.7707,4.7707,4.7707,4.7707,4.7707,4.7707,4.7707,4.7707,4.7707,4.8015,4.8829,4.8992,4.968,5.1187,5.1405,5.179,5.2547,5.2864,5.3043,5.3107,5.3033,5.3117,5.3357,5.3236,5.3248,5.3383,5.3525,5.2837,5.1398,5.1343,5.1361,5.1398,5.1398,5.138,5.1306,5.1015,5.069,5.0296,4.9893,4.9496,4.9145,4.9038,4.8984,4.9014,4.9905,4.9905,4.9905,4.9905,4.9905,4.9905,4.9905,4.9905,4.9905,4.9905,4.9905,4.9905,4.9905,4.9905,4.9223,4.7555,4.7403,4.6695,4.5009,4.4895,4.4895,4.4895,4.4895,4.4895,4.4895,4.4713,4.4471,4.4184,4.3997,4.4686,4.6165,4.5736,4.6501,4.8277,4.7868,4.7707,4.7707,4.7707,4.7707,4.7707,4.7707,4.7707,4.7707,4.7707,4.7707,4.7707,4.7707,4.7707,4.7707,4.7707,4.7707,4.7707,4.7707,4.7707,4.7707,4.7707,4.7707,4.7707,4.7707,4.7707,4.7707,4.7707,4.7707,4.7707,4.7707,4.7707,4.7707,4.7707,4.7707,4.7707,4.7707,4.7707,4.7707,4.7707,4.7707,4.7707,4.7707,4.7707,4.7707,4.7707,4.7707,4.7833,4.8196,4.8648,4.9191,4.9908,5.0778,5.1546,5.2138,5.255,5.2875,5.3096,5.2868,5.2965,5.3397,5.3407,5.3485,5.3678,5.3775,5.3442,5.2735,5.2735,5.2735,5.2735,5.2735,5.2735,5.2707,5.2372,5.2048,5.1661,5.0882,5.0053,4.9353,4.976,4.9812,4.9647]}]]